[[{"header":{"parameterUnit":"m.s-1","parameterCategory":1,"la1":31.0,"la2":29.5877,"lo1":-88.7671,"lo2":-86.6584,"dy":0.0162,"dx":0.0185,"nx":115,"ny":88,"refTime":"2026-03-24T00:00:00:Z","depth":0,"parameterNumber":2,"parameterNumberName":"U-component_of_WINDS"},"data":[0.0,0.0,0.0,0.0,0.0,0.0,0.0,0.0,0.0,0.0,0.0,0.0,0.0,0.0,0.0,0.0,0.0,0.0,0.0,0.0,0.0,0.0,0.0,0.0,0.0,0.0,0.0,0.0,0.0,0.0,0.0,0.0,0.0,0.0,0.0,0.0,0.0,0.0,0.0,0.0,0.0,0.0,0.0,0.0,0.0,0.0,0.0,0.0,0.0,0.0,0.0,0.0,0.0,0.0,0.0,0.0,0.0,0.0,0.0,0.0,0.0,0.0,0.0,0.0,0.0,0.0,0.0,0.0,0.0,0.0,0.0,0.0,0.0,0.0,0.0,0.0,0.0,0.0,0.0,0.0,0.0,0.0,0.0,0.0,0.0,0.0,0.0,0.0,0.0,0.0,0.0,0.0,0.0,0.0,0.0,0.0,0.0,0.0,0.0,0.0,0.0,0.0,0.0,0.0,0.0,0.0,0.0,0.0,0.0,0.0,0.0,0.0,0.0,0.0,0.0,0.0,0.0,0.0,0.0,0.0,0.0,0.0,0.0,0.0,0.0,0.0,0.0,0.0,0.0,0.0,0.0,0.0,0.0,0.0,0.0,0.0,0.0,0.0,0.0,0.0,0.0,0.0,0.0,0.0,0.0,0.0,0.0,0.0,0.0,0.0,0.0,0.0,0.0,0.0,0.0,0.0,0.0,0.0,0.0,0.0,0.0,0.0,0.0,0.0,0.0,0.0,0.0,0.0,0.0,0.0,0.0,0.0,0.0,0.0,0.0,0.0,0.0,0.0,0.0,0.0,0.0,0.0,0.0,0.0,0.0,0.0,0.0,0.0,0.0,0.0,0.0,0.0,0.0,0.0,0.0,0.0,0.0,0.0,0.0,0.0,0.0,0.0,0.0,0.0,0.0,0.0,0.0,0.0,0.0,0.0,0.0,0.0,0.0,0.0,0.0,0.0,0.0,0.0,0.0,0.0,0.0,0.0,0.0,0.0,0.0,0.0,0.0,0.0,0.0,0.0,0.0,0.0,0.0,0.0,0.0,0.0,0.0,0.0,0.0,0.0,0.0,0.0,0.0,0.0,0.0,0.0,0.0,0.0,0.0,0.0,0.0,0.0,0.0,0.0,0.0,0.0,0.0,0.0,0.0,0.0,0.0,0.0,0.0,0.0,0.0,0.0,0.0,0.0,0.0,0.0,0.0,0.0,0.0,0.0,0.0,0.0,0.0,0.0,0.0,0.0,0.0,0.0,0.0,0.0,0.0,0.0,0.0,0.0,0.0,0.0,0.0,0.0,0.0,0.0,0.0,0.0,0.0,0.0,0.0,0.0,0.0,0.0,0.0,0.0,0.0,0.0,0.0,0.0,0.0,0.0,0.0,0.0,0.0,0.0,0.0,0.0,0.0,0.0,0.0,0.0,0.0,0.0,0.0,0.0,0.0,0.0,0.0,0.0,0.0,0.0,0.0,0.0,0.0,0.0,0.0,0.0,0.0,0.0,0.0,0.0,0.0,0.0,0.0,0.0,0.0,0.0,0.0,0.0,0.0,0.0,0.0,0.0,0.0,0.0,0.0,0.0,0.0,0.0,0.0,0.0,0.0,0.0,0.0,0.0,0.0,0.0,0.0,0.0,0.0,0.0,0.0,0.0,0.0,0.0,0.0,0.0,0.0,0.0,0.0,0.0,0.0,0.0,0.0,0.0,0.0,0.0,0.0,0.0,0.0,0.0,0.0,0.0,0.0,0.0,0.0,0.0,0.0,0.0,0.0,0.0,0.0,0.0,0.0,0.0,0.0,0.0,0.0,0.0,0.0,0.0,0.0,0.0,0.0,0.0,0.0,0.0,0.0,0.0,0.0,0.0,0.0,0.0,0.0,0.0,0.0,0.0,0.0,0.0,0.0,0.0,0.0,0.0,0.0,0.0,0.0,0.0,0.0,0.0,0.0,0.0,0.0,0.0,0.0,0.0,0.0,0.0,0.0,0.0,0.0,0.0,0.0,0.0,0.0,0.0,0.0,0.0,0.0,0.0,0.0,0.0,0.0,0.0,0.0,0.0,0.0,0.0,0.0,0.0,0.0,0.0,0.0,0.0,0.0,0.0,0.0,0.0,0.0,0.0,0.0,0.0,0.0,0.0,0.0,0.0,0.0,0.0,0.0,0.0,0.0,0.0,0.0,0.0,0.0,0.0,0.0,0.0,0.0,0.0,0.0,0.0,0.0,0.0,0.0,0.0,0.0,0.0,0.0,0.0,0.0,0.0,0.0,0.0,0.0,0.0,0.0,0.0,0.0,0.0,0.0,0.0,0.0,0.0,0.0,0.0,0.0,0.0,0.0,0.0,0.0,0.0,0.0,0.0,0.0,0.0,0.0,0.0,0.0,0.0,0.0,0.0,0.0,0.0,0.0,0.0,0.0,0.0,0.0,0.0,0.0,0.0,0.0,0.0,0.0,0.0,0.0,0.0,0.0,0.0,0.0,0.0,0.0,0.0,0.0,0.0,0.0,0.0,0.0,0.0,0.0,0.0,0.0,0.0,0.0,0.0,0.0,0.0,0.0,0.0,0.0,0.0,0.0,0.0,0.0,0.0,0.0,0.0,0.0,0.0,0.0,0.0,0.0,0.0,0.0,0.0,0.0,0.0,0.0,0.0,0.0,0.0,0.0,0.0,0.0,0.0,0.0,0.0,0.0,0.0,0.0,0.0,0.0,0.0,0.0,0.0,0.0,0.0,0.0,0.0,0.0,0.0,0.0,0.0,0.0,0.0,0.0,0.0,0.0,0.0,0.0,0.0,0.0,0.0,0.0,0.0,0.0,0.0,0.0,0.0,0.0,0.0,0.0,0.0,0.0,0.0,0.0,0.0,0.0,0.0,0.0,0.0,0.0,0.0,0.0,0.0,0.0,0.0,0.0,0.0,0.0,0.0,0.0,0.0,0.0,0.0,0.0,0.0,0.0,0.0,0.0,0.0,0.0,0.0,0.0,0.0,0.0,0.0,0.0,0.0,0.0,0.0,0.0,0.0,0.0,0.0,0.0,0.0,0.0,0.0,0.0,0.0,0.0,0.0,0.0,0.0,0.0,0.0,0.0,0.0,0.0,0.0,0.0,0.0,0.0,0.0,0.0,0.0,0.0,0.0,0.0,0.0,0.0,0.0,0.0,0.0,0.0,0.0,0.0,0.0,0.0,0.0,0.0,0.0,0.0,0.0,0.0,0.0,0.0,0.0,0.0,0.0,0.0,0.0,0.0,0.0,0.0,0.0,0.0,0.0,0.0,0.0,0.0,0.0,0.0,0.0,0.0,0.0,0.0,0.0,0.0,0.0,0.0,0.0,0.0,0.0,0.0,0.0,0.0,0.0,0.0,0.0,0.0,0.0,0.0,0.0,0.0,0.0,0.0,0.0,0.0,0.0,0.0,0.0,0.0,0.0,0.0,0.0,0.0,0.0,0.0,0.0,0.0,0.0,0.0,0.0,0.0,0.0,0.0,0.0,0.0,0.0,0.0,0.0,0.0,0.0,0.0,0.0,0.0,0.0,0.0,0.0,0.0,0.0,0.0,0.0,0.0,0.0,0.0,0.0,0.0,0.0,0.0,0.0,0.0,0.0,0.0,0.0,0.0,0.0,0.0,0.0,0.0,0.0,0.0,0.0,0.0,0.0,0.0,0.0,0.0,0.0,0.0,0.0,0.0,0.0,0.0,0.0,0.0,0.0,0.0,0.0,0.0,0.0,0.0,0.0,0.0,0.0,0.0,0.0,0.0,0.0,0.0,0.0,0.0,0.0,0.0,0.0,0.0,0.0,0.0,0.0,0.0,0.0,0.0,0.0,0.0,0.0,0.0,0.0,0.0,0.0,0.0,0.0,0.0,0.0,0.0,0.0,0.0,0.0,0.0,0.0,0.0,0.0,0.0,0.0,0.0,0.0,0.0,0.0,0.0,0.0,0.0,0.0,0.0,0.0,0.0,0.0,0.0,0.0,0.0,0.0,0.0,0.0,0.0,0.0,0.0,0.0,0.0,0.0,0.0,0.0,0.0,0.0,0.0,0.0,0.0,0.0,0.0,0.0,0.0,0.0,0.0,0.0,0.0,0.0,0.0,0.0,0.0,0.0,0.0,0.0,0.0,0.0,0.0,0.0,0.0,0.0,0.0,0.0,0.0,0.0,0.0,0.0,0.0,0.0,0.0,0.0,0.0,0.0,0.0,0.0,0.0,0.0,0.0,0.0,0.0,0.0,0.0,0.0,0.0,0.0,0.0,0.0,0.0,0.0,0.0,0.0,-1.9788,0.0,0.0,0.0,0.0,0.0,0.0,0.0,0.0,0.0,0.0,0.0,0.0,0.0,0.0,0.0,0.0,0.0,0.0,0.0,0.0,0.0,0.0,0.0,0.0,0.0,0.0,0.0,0.0,0.0,0.0,0.0,0.0,0.0,0.0,0.0,0.0,0.0,0.0,0.0,0.0,0.0,0.0,0.0,0.0,0.0,0.0,0.0,0.0,0.0,0.0,0.0,0.0,0.0,0.0,0.0,0.0,0.0,0.0,0.0,0.0,0.0,0.0,0.0,0.0,0.0,0.0,0.0,0.0,0.0,0.0,0.0,0.0,0.0,0.0,0.0,0.0,0.0,0.0,0.0,0.0,0.0,0.0,0.0,0.0,0.0,0.0,0.0,0.0,0.0,0.0,0.0,0.0,0.0,0.0,0.0,0.0,0.0,0.0,0.0,0.0,0.0,0.0,0.0,0.0,0.0,0.0,0.0,0.0,0.0,0.0,-2.2086,-2.2381,-2.1974,-2.1382,-2.0571,0.0,0.0,0.0,0.0,0.0,0.0,0.0,0.0,0.0,0.0,0.0,0.0,0.0,0.0,0.0,0.0,0.0,0.0,0.0,0.0,0.0,0.0,0.0,0.0,0.0,0.0,0.0,0.0,0.0,0.0,0.0,0.0,0.0,0.0,0.0,0.0,0.0,0.0,0.0,0.0,0.0,0.0,0.0,0.0,0.0,0.0,0.0,0.0,0.0,0.0,0.0,0.0,0.0,0.0,0.0,0.0,0.0,0.0,0.0,0.0,0.0,0.0,0.0,0.0,0.0,0.0,0.0,0.0,0.0,0.0,0.0,0.0,0.0,0.0,0.0,0.0,0.0,0.0,0.0,0.0,0.0,0.0,0.0,0.0,0.0,0.0,0.0,0.0,0.0,0.0,0.0,0.0,0.0,0.0,0.0,0.0,0.0,0.0,0.0,0.0,0.0,0.0,0.0,0.0,0.0,0.0,0.0,0.0,0.0,0.0,0.0,0.0,-2.3024,-2.2331,-2.1011,0.0,0.0,0.0,0.0,0.0,0.0,0.0,0.0,0.0,0.0,0.0,0.0,0.0,0.0,0.0,0.0,0.0,0.0,0.0,0.0,0.0,0.0,0.0,0.0,0.0,0.0,0.0,0.0,0.0,0.0,0.0,0.0,0.0,0.0,0.0,0.0,0.0,0.0,0.0,0.0,0.0,0.0,0.0,0.0,0.0,0.0,0.0,0.0,0.0,0.0,0.0,0.0,0.0,0.0,0.0,0.0,0.0,0.0,0.0,0.0,0.0,0.0,0.0,0.0,0.0,0.0,0.0,0.0,0.0,0.0,0.0,0.0,0.0,0.0,0.0,0.0,0.0,0.0,0.0,0.0,0.0,0.0,0.0,0.0,0.0,0.0,0.0,0.0,0.0,0.0,0.0,0.0,0.0,0.0,0.0,0.0,0.0,0.0,0.0,0.0,0.0,0.0,0.0,0.0,0.0,0.0,0.0,0.0,0.0,0.0,-2.3135,-2.3711,-2.337,0.0,-2.0978,0.0,0.0,0.0,0.0,0.0,0.0,0.0,0.0,0.0,0.0,0.0,0.0,0.0,0.0,0.0,0.0,0.0,0.0,0.0,0.0,0.0,0.0,0.0,0.0,0.0,0.0,0.0,0.0,0.0,0.0,0.0,0.0,0.0,0.0,0.0,0.0,0.0,0.0,0.0,0.0,0.0,0.0,0.0,0.0,0.0,0.0,0.0,0.0,0.0,0.0,0.0,0.0,0.0,0.0,0.0,0.0,0.0,0.0,0.0,0.0,0.0,0.0,0.0,0.0,0.0,0.0,0.0,0.0,0.0,0.0,0.0,0.0,0.0,0.0,0.0,0.0,0.0,0.0,0.0,0.0,0.0,0.0,0.0,0.0,0.0,0.0,0.0,0.0,0.0,0.0,0.0,0.0,0.0,0.0,0.0,0.0,0.0,0.0,0.0,0.0,0.0,0.0,0.0,0.0,0.0,0.0,0.0,0.0,0.0,0.0,0.0,-2.4973,-2.4146,-2.3047,0.0,0.0,0.0,0.0,0.0,0.0,0.0,0.0,0.0,0.0,0.0,0.0,0.0,0.0,0.0,0.0,0.0,0.0,0.0,0.0,0.0,0.0,0.0,0.0,0.0,0.0,0.0,0.0,0.0,0.0,0.0,0.0,0.0,0.0,0.0,0.0,0.0,0.0,0.0,0.0,0.0,0.0,0.0,0.0,0.0,0.0,0.0,0.0,0.0,0.0,0.0,0.0,0.0,0.0,0.0,0.0,0.0,0.0,0.0,0.0,0.0,0.0,0.0,0.0,0.0,0.0,0.0,0.0,0.0,0.0,0.0,0.0,0.0,0.0,0.0,0.0,0.0,0.0,0.0,0.0,0.0,0.0,0.0,0.0,0.0,0.0,0.0,0.0,0.0,0.0,0.0,0.0,0.0,0.0,0.0,0.0,0.0,0.0,0.0,0.0,0.0,0.0,0.0,0.0,0.0,0.0,0.0,0.0,0.0,0.0,-2.5499,0.0,-2.5516,-2.4737,-2.359,-2.2084,0.0,0.0,0.0,0.0,0.0,0.0,0.0,0.0,0.0,0.0,0.0,0.0,0.0,0.0,0.0,0.0,0.0,0.0,0.0,0.0,0.0,0.0,0.0,0.0,0.0,0.0,0.0,0.0,0.0,0.0,0.0,0.0,0.0,0.0,0.0,0.0,0.0,0.0,0.0,0.0,0.0,0.0,0.0,0.0,0.0,0.0,0.0,0.0,0.0,0.0,0.0,0.0,0.0,0.0,0.0,0.0,0.0,0.0,0.0,0.0,0.0,0.0,0.0,0.0,0.0,0.0,0.0,0.0,0.0,0.0,0.0,0.0,0.0,0.0,0.0,0.0,0.0,0.0,0.0,0.0,0.0,0.0,0.0,0.0,0.0,0.0,0.0,0.0,0.0,0.0,0.0,0.0,0.0,0.0,0.0,0.0,0.0,0.0,0.0,0.0,0.0,0.0,0.0,0.0,0.0,0.0,0.0,0.0,0.0,-2.5864,-2.5501,-2.4912,-2.4963,-2.3998,0.0,0.0,0.0,0.0,0.0,0.0,0.0,0.0,0.0,0.0,0.0,0.0,0.0,0.0,0.0,0.0,0.0,0.0,0.0,0.0,0.0,0.0,0.0,0.0,0.0,0.0,0.0,0.0,0.0,0.0,0.0,0.0,0.0,0.0,0.0,0.0,0.0,0.0,0.0,0.0,0.0,0.0,0.0,0.0,0.0,0.0,0.0,0.0,0.0,0.0,0.0,0.0,0.0,0.0,0.0,0.0,0.0,0.0,0.0,0.0,0.0,0.0,0.0,0.0,0.0,0.0,0.0,0.0,0.0,0.0,0.0,0.0,0.0,0.0,0.0,0.0,0.0,0.0,0.0,0.0,0.0,0.0,0.0,0.0,0.0,0.0,0.0,0.0,0.0,0.0,0.0,0.0,0.0,0.0,0.0,0.0,0.0,0.0,0.0,0.0,0.0,0.0,0.0,0.0,0.0,0.0,0.0,0.0,0.0,-2.6444,-2.6657,-2.6547,-2.6093,-2.5577,-2.4469,0.0,0.0,0.0,0.0,0.0,0.0,0.0,0.0,0.0,0.0,0.0,0.0,0.0,0.0,0.0,0.0,0.0,0.0,0.0,0.0,0.0,0.0,0.0,0.0,0.0,0.0,0.0,0.0,0.0,0.0,0.0,0.0,0.0,0.0,0.0,0.0,0.0,0.0,0.0,0.0,0.0,0.0,0.0,0.0,0.0,0.0,0.0,0.0,0.0,0.0,0.0,0.0,0.0,0.0,0.0,0.0,0.0,0.0,0.0,0.0,0.0,0.0,0.0,0.0,0.0,0.0,0.0,0.0,0.0,0.0,0.0,0.0,0.0,0.0,0.0,0.0,0.0,0.0,0.0,0.0,0.0,0.0,0.0,0.0,0.0,0.0,0.0,0.0,0.0,0.0,0.0,0.0,0.0,0.0,0.0,0.0,0.0,0.0,0.0,0.0,0.0,0.0,0.0,0.0,0.0,0.0,0.0,0.0,0.0,-2.7029,0.0,-2.732,0.0,-2.6194,-2.5029,0.0,0.0,0.0,0.0,0.0,0.0,0.0,0.0,0.0,0.0,0.0,0.0,0.0,0.0,0.0,0.0,0.0,0.0,0.0,0.0,0.0,0.0,0.0,0.0,0.0,0.0,0.0,0.0,0.0,0.0,0.0,0.0,0.0,0.0,0.0,0.0,0.0,0.0,0.0,0.0,0.0,0.0,0.0,0.0,0.0,0.0,0.0,0.0,0.0,0.0,0.0,0.0,0.0,0.0,0.0,0.0,0.0,0.0,0.0,0.0,0.0,0.0,0.0,0.0,0.0,0.0,0.0,0.0,0.0,0.0,0.0,0.0,0.0,0.0,0.0,0.0,0.0,0.0,0.0,0.0,0.0,0.0,0.0,0.0,0.0,0.0,0.0,0.0,0.0,0.0,0.0,0.0,0.0,0.0,0.0,0.0,0.0,0.0,0.0,0.0,0.0,0.0,0.0,0.0,0.0,0.0,0.0,0.0,-2.7052,-2.7669,-2.7954,-2.7617,-2.6676,-2.6803,-2.5577,0.0,0.0,0.0,0.0,0.0,0.0,0.0,0.0,0.0,0.0,0.0,0.0,0.0,0.0,0.0,0.0,0.0,0.0,0.0,0.0,0.0,0.0,0.0,0.0,0.0,0.0,0.0,0.0,0.0,0.0,0.0,0.0,0.0,0.0,0.0,0.0,0.0,0.0,0.0,0.0,0.0,0.0,0.0,0.0,0.0,0.0,0.0,0.0,0.0,0.0,0.0,0.0,0.0,0.0,0.0,0.0,0.0,0.0,0.0,0.0,0.0,0.0,0.0,0.0,0.0,0.0,0.0,0.0,0.0,0.0,0.0,0.0,0.0,0.0,0.0,0.0,0.0,0.0,0.0,0.0,0.0,0.0,0.0,0.0,0.0,0.0,0.0,0.0,0.0,0.0,0.0,0.0,0.0,0.0,0.0,0.0,0.0,0.0,0.0,0.0,0.0,0.0,0.0,0.0,0.0,0.0,0.0,0.0,0.0,-2.7973,-2.8061,-2.7857,-2.7347,-2.6413,-2.5217,0.0,0.0,0.0,0.0,0.0,0.0,0.0,0.0,0.0,0.0,0.0,0.0,0.0,0.0,0.0,0.0,0.0,0.0,0.0,0.0,0.0,0.0,0.0,0.0,0.0,0.0,0.0,0.0,0.0,0.0,0.0,0.0,0.0,0.0,0.0,0.0,0.0,0.0,0.0,0.0,0.0,0.0,0.0,0.0,0.0,0.0,0.0,0.0,0.0,0.0,0.0,0.0,0.0,0.0,0.0,0.0,0.0,0.0,0.0,0.0,0.0,0.0,0.0,0.0,0.0,0.0,0.0,0.0,0.0,0.0,0.0,0.0,0.0,0.0,0.0,0.0,0.0,0.0,0.0,0.0,0.0,0.0,0.0,0.0,0.0,0.0,0.0,0.0,0.0,0.0,0.0,0.0,0.0,0.0,0.0,0.0,0.0,0.0,0.0,0.0,0.0,0.0,0.0,0.0,0.0,0.0,0.0,0.0,0.0,-2.809,-2.8314,-2.8308,-2.805,-2.6978,-2.5925,-2.4869,0.0,0.0,0.0,0.0,0.0,0.0,0.0,0.0,0.0,0.0,0.0,0.0,0.0,0.0,0.0,0.0,0.0,0.0,0.0,0.0,0.0,0.0,0.0,0.0,0.0,0.0,0.0,0.0,0.0,0.0,0.0,0.0,0.0,0.0,0.0,0.0,0.0,0.0,0.0,0.0,0.0,0.0,0.0,0.0,0.0,0.0,0.0,0.0,0.0,0.0,0.0,0.0,0.0,0.0,0.0,0.0,0.0,0.0,0.0,0.0,0.0,0.0,0.0,0.0,0.0,0.0,0.0,0.0,0.0,0.0,0.0,0.0,0.0,0.0,0.0,0.0,0.0,0.0,0.0,0.0,0.0,0.0,0.0,0.0,0.0,0.0,0.0,0.0,0.0,0.0,0.0,0.0,0.0,0.0,0.0,0.0,0.0,0.0,0.0,0.0,0.0,0.0,0.0,0.0,0.0,0.0,0.0,0.0,-2.8166,-2.868,-2.8814,-2.8523,-2.8183,-2.7358,0.0,0.0,0.0,0.0,0.0,0.0,0.0,0.0,0.0,0.0,0.0,0.0,0.0,0.0,0.0,0.0,0.0,0.0,0.0,0.0,0.0,0.0,0.0,0.0,0.0,0.0,0.0,0.0,0.0,0.0,0.0,0.0,0.0,0.0,0.0,0.0,0.0,0.0,0.0,0.0,0.0,0.0,0.0,0.0,0.0,0.0,0.0,0.0,0.0,0.0,0.0,0.0,0.0,0.0,0.0,0.0,0.0,0.0,0.0,0.0,0.0,0.0,0.0,0.0,0.0,0.0,0.0,0.0,0.0,0.0,0.0,0.0,0.0,0.0,0.0,0.0,0.0,0.0,0.0,0.0,0.0,0.0,0.0,0.0,0.0,0.0,0.0,0.0,0.0,0.0,0.0,0.0,0.0,0.0,0.0,0.0,0.0,0.0,0.0,0.0,0.0,0.0,0.0,0.0,0.0,0.0,0.0,0.0,0.0,-3.0037,-2.9072,-2.8277,-2.7865,-2.7486,-2.6928,0.0,0.0,0.0,0.0,0.0,0.0,0.0,0.0,0.0,0.0,0.0,0.0,0.0,0.0,0.0,0.0,0.0,0.0,0.0,0.0,0.0,0.0,0.0,0.0,0.0,0.0,0.0,0.0,0.0,0.0,0.0,0.0,0.0,0.0,0.0,0.0,0.0,0.0,0.0,0.0,0.0,0.0,0.0,0.0,0.0,0.0,0.0,0.0,0.0,0.0,0.0,0.0,0.0,0.0,0.0,0.0,0.0,0.0,0.0,0.0,0.0,0.0,0.0,0.0,0.0,0.0,0.0,0.0,0.0,0.0,0.0,0.0,0.0,0.0,0.0,0.0,0.0,0.0,0.0,0.0,0.0,0.0,0.0,0.0,0.0,0.0,0.0,0.0,0.0,0.0,0.0,0.0,0.0,0.0,0.0,0.0,0.0,0.0,0.0,0.0,0.0,0.0,0.0,0.0,0.0,0.0,0.0,0.0,-2.8622,-2.9895,-2.8874,-2.8166,-2.7913,-2.7715,-2.7397,0.0,0.0,0.0,0.0,0.0,0.0,0.0,0.0,0.0,0.0,0.0,0.0,0.0,0.0,0.0,0.0,0.0,0.0,0.0,0.0,0.0,0.0,0.0,0.0,0.0,0.0,0.0,0.0,0.0,0.0,0.0,0.0,0.0,0.0,0.0,0.0,0.0,0.0,0.0,0.0,0.0,0.0,0.0,0.0,0.0,0.0,0.0,0.0,0.0,0.0,0.0,0.0,0.0,0.0,0.0,0.0,0.0,0.0,0.0,0.0,0.0,0.0,0.0,0.0,0.0,0.0,0.0,0.0,0.0,0.0,0.0,0.0,0.0,0.0,0.0,0.0,0.0,0.0,0.0,0.0,0.0,0.0,0.0,0.0,0.0,0.0,0.0,0.0,0.0,0.0,0.0,0.0,0.0,0.0,0.0,0.0,0.0,0.0,0.0,0.0,0.0,0.0,0.0,0.0,0.0,0.0,0.0,0.0,-2.825,-2.8881,-2.8452,-2.8292,-2.8436,-2.8452,-2.8283,0.0,0.0,0.0,0.0,0.0,0.0,0.0,0.0,0.0,0.0,0.0,0.0,0.0,0.0,0.0,0.0,0.0,0.0,0.0,0.0,0.0,0.0,0.0,0.0,0.0,0.0,0.0,0.0,0.0,0.0,0.0,0.0,0.0,0.0,0.0,0.0,0.0,0.0,0.0,0.0,0.0,0.0,0.0,0.0,0.0,0.0,0.0,0.0,0.0,0.0,0.0,0.0,0.0,0.0,0.0,0.0,0.0,0.0,0.0,0.0,0.0,0.0,0.0,0.0,0.0,0.0,0.0,0.0,0.0,0.0,0.0,0.0,0.0,0.0,0.0,0.0,0.0,0.0,0.0,0.0,0.0,0.0,0.0,0.0,0.0,0.0,0.0,0.0,0.0,0.0,0.0,0.0,0.0,0.0,0.0,0.0,0.0,0.0,0.0,0.0,0.0,0.0,0.0,0.0,0.0,0.0,0.0,0.0,-2.8612,-3.0767,-2.8879,-2.8303,-2.9298,-2.8978,-2.8514,0.0,0.0,0.0,0.0,0.0,0.0,0.0,0.0,0.0,0.0,0.0,0.0,0.0,0.0,0.0,0.0,0.0,0.0,0.0,0.0,0.0,0.0,0.0,0.0,0.0,0.0,0.0,0.0,0.0,0.0,0.0,0.0,0.0,0.0,0.0,0.0,0.0,0.0,0.0,0.0,0.0,0.0,0.0,0.0,0.0,0.0,0.0,0.0,-2.9068,0.0,0.0,0.0,0.0,0.0,0.0,0.0,0.0,0.0,0.0,0.0,0.0,0.0,0.0,0.0,0.0,0.0,0.0,0.0,0.0,0.0,0.0,0.0,0.0,0.0,0.0,0.0,0.0,0.0,0.0,0.0,0.0,0.0,0.0,0.0,0.0,0.0,0.0,0.0,0.0,0.0,0.0,0.0,0.0,0.0,0.0,0.0,0.0,0.0,0.0,0.0,0.0,0.0,0.0,0.0,0.0,0.0,0.0,0.0,-2.8333,-3.0142,-2.859,-2.8322,-2.9523,-2.9329,-2.877,0.0,0.0,0.0,0.0,0.0,0.0,0.0,0.0,0.0,0.0,0.0,0.0,0.0,0.0,0.0,0.0,0.0,0.0,0.0,0.0,0.0,0.0,0.0,0.0,0.0,0.0,0.0,0.0,0.0,0.0,0.0,0.0,0.0,0.0,0.0,0.0,0.0,0.0,0.0,0.0,0.0,0.0,0.0,0.0,0.0,0.0,0.0,0.0,0.0,0.0,0.0,0.0,0.0,0.0,0.0,0.0,0.0,0.0,0.0,0.0,0.0,0.0,0.0,0.0,0.0,0.0,0.0,0.0,0.0,0.0,0.0,0.0,0.0,0.0,0.0,0.0,0.0,0.0,0.0,0.0,0.0,0.0,0.0,0.0,0.0,0.0,0.0,0.0,0.0,0.0,0.0,0.0,0.0,0.0,0.0,0.0,0.0,0.0,0.0,0.0,0.0,0.0,0.0,0.0,0.0,0.0,0.0,-2.8042,-2.8099,-2.9016,-2.8297,-2.8426,-2.956,-2.9542,-2.901,-2.7936,0.0,0.0,0.0,0.0,0.0,0.0,0.0,0.0,0.0,0.0,0.0,0.0,0.0,0.0,0.0,0.0,0.0,0.0,0.0,0.0,0.0,0.0,0.0,0.0,0.0,0.0,0.0,0.0,0.0,0.0,0.0,0.0,0.0,0.0,0.0,0.0,0.0,0.0,-2.8465,-2.9883,0.0,0.0,0.0,0.0,0.0,0.0,0.0,0.0,-3.2535,0.0,0.0,0.0,0.0,0.0,0.0,0.0,0.0,0.0,0.0,0.0,0.0,0.0,0.0,0.0,0.0,0.0,0.0,0.0,0.0,0.0,0.0,0.0,0.0,0.0,0.0,0.0,0.0,0.0,0.0,0.0,0.0,0.0,0.0,0.0,0.0,0.0,0.0,0.0,0.0,0.0,0.0,0.0,0.0,0.0,0.0,0.0,0.0,0.0,0.0,0.0,0.0,0.0,0.0,0.0,0.0,-2.993,-2.9093,-2.9071,-2.9946,-2.9147,-2.8979,-2.9579,-2.9598,-2.9043,-2.7941,0.0,0.0,0.0,0.0,0.0,0.0,0.0,0.0,0.0,0.0,0.0,0.0,0.0,0.0,0.0,0.0,0.0,0.0,0.0,0.0,0.0,0.0,0.0,0.0,0.0,0.0,0.0,0.0,0.0,0.0,0.0,0.0,0.0,0.0,0.0,0.0,0.0,0.0,0.0,-3.1719,-3.2509,0.0,0.0,0.0,0.0,0.0,0.0,0.0,0.0,-3.3635,0.0,0.0,0.0,0.0,0.0,0.0,0.0,0.0,0.0,0.0,0.0,0.0,0.0,0.0,0.0,0.0,0.0,0.0,0.0,0.0,0.0,0.0,0.0,0.0,0.0,0.0,0.0,0.0,0.0,0.0,0.0,0.0,0.0,0.0,0.0,0.0,0.0,0.0,0.0,0.0,0.0,0.0,0.0,0.0,0.0,0.0,0.0,0.0,0.0,0.0,0.0,0.0,0.0,0.0,0.0,-2.9529,-2.9118,-2.9108,-2.95,-2.9118,-2.9129,-2.9579,-2.9533,-2.8997,0.0,0.0,0.0,0.0,0.0,0.0,0.0,0.0,0.0,0.0,0.0,0.0,0.0,0.0,0.0,0.0,0.0,0.0,0.0,0.0,0.0,0.0,0.0,0.0,0.0,0.0,0.0,0.0,0.0,0.0,0.0,0.0,0.0,0.0,0.0,0.0,0.0,0.0,0.0,0.0,-3.2884,-3.3715,-3.3448,0.0,0.0,0.0,0.0,0.0,0.0,-3.3973,-3.4157,0.0,0.0,0.0,0.0,0.0,0.0,0.0,0.0,0.0,0.0,0.0,0.0,0.0,0.0,0.0,0.0,0.0,0.0,0.0,0.0,0.0,0.0,0.0,0.0,0.0,0.0,0.0,0.0,0.0,0.0,0.0,0.0,0.0,0.0,0.0,0.0,0.0,0.0,0.0,0.0,0.0,0.0,0.0,0.0,0.0,0.0,0.0,0.0,0.0,0.0,0.0,0.0,0.0,0.0,0.0,-2.9185,-2.8997,-2.8994,-2.9147,-2.8997,-2.9129,-2.9579,-2.9485,-2.8944,0.0,0.0,0.0,0.0,0.0,0.0,0.0,0.0,0.0,0.0,0.0,0.0,0.0,0.0,0.0,0.0,0.0,0.0,0.0,0.0,0.0,0.0,0.0,0.0,0.0,0.0,0.0,0.0,0.0,0.0,0.0,0.0,0.0,0.0,0.0,0.0,0.0,0.0,0.0,0.0,0.0,-3.4574,-3.4282,-3.4254,0.0,0.0,0.0,0.0,-3.413,-3.4413,0.0,0.0,0.0,0.0,0.0,0.0,0.0,0.0,0.0,0.0,0.0,0.0,0.0,0.0,0.0,0.0,0.0,0.0,0.0,0.0,0.0,0.0,0.0,0.0,0.0,0.0,0.0,0.0,0.0,0.0,0.0,0.0,0.0,0.0,0.0,0.0,0.0,0.0,0.0,0.0,0.0,0.0,0.0,0.0,0.0,0.0,0.0,0.0,0.0,0.0,0.0,0.0,0.0,0.0,0.0,0.0,-3.0023,-2.929,-2.9261,-2.9965,-2.9299,-2.912,-2.9589,-2.9533,-2.8979,0.0,0.0,0.0,0.0,0.0,0.0,0.0,0.0,0.0,0.0,0.0,0.0,0.0,0.0,0.0,0.0,0.0,0.0,0.0,0.0,0.0,0.0,0.0,0.0,0.0,0.0,0.0,0.0,0.0,0.0,0.0,0.0,0.0,0.0,0.0,0.0,0.0,0.0,0.0,0.0,0.0,-3.4518,-3.3571,-3.4036,-3.4447,0.0,0.0,-3.5196,-3.5206,-3.5546,0.0,0.0,0.0,0.0,0.0,0.0,0.0,0.0,0.0,0.0,0.0,0.0,0.0,0.0,0.0,0.0,0.0,0.0,0.0,0.0,0.0,0.0,0.0,0.0,0.0,0.0,0.0,0.0,0.0,0.0,0.0,0.0,0.0,0.0,0.0,0.0,0.0,0.0,0.0,0.0,0.0,0.0,0.0,0.0,0.0,0.0,0.0,0.0,0.0,0.0,0.0,0.0,0.0,0.0,0.0,-2.9733,-2.8829,-2.886,-2.887,-2.8771,-2.8402,-2.8436,-2.8838,-2.8793,-2.8487,0.0,0.0,0.0,0.0,0.0,0.0,0.0,0.0,0.0,0.0,0.0,0.0,0.0,0.0,0.0,0.0,0.0,0.0,0.0,0.0,0.0,0.0,0.0,0.0,0.0,0.0,0.0,0.0,0.0,0.0,0.0,0.0,0.0,0.0,0.0,0.0,0.0,0.0,0.0,0.0,0.0,0.0,-3.4442,-3.4954,0.0,0.0,0.0,-3.5397,-3.496,0.0,0.0,0.0,0.0,0.0,0.0,0.0,0.0,0.0,0.0,0.0,0.0,0.0,0.0,0.0,0.0,0.0,0.0,0.0,0.0,0.0,0.0,0.0,0.0,0.0,0.0,0.0,0.0,0.0,0.0,0.0,0.0,0.0,0.0,0.0,0.0,0.0,0.0,0.0,0.0,0.0,0.0,0.0,0.0,0.0,0.0,0.0,0.0,0.0,0.0,0.0,0.0,0.0,0.0,0.0,0.0,0.0,-2.7743,-2.8077,-2.8077,-2.7695,-2.7485,-2.7581,-2.7984,-2.7931,0.0,0.0,0.0,0.0,0.0,0.0,0.0,0.0,0.0,0.0,0.0,0.0,0.0,0.0,0.0,0.0,0.0,0.0,0.0,0.0,0.0,0.0,0.0,0.0,0.0,0.0,0.0,-2.2018,0.0,0.0,0.0,0.0,0.0,0.0,0.0,0.0,0.0,0.0,0.0,0.0,0.0,0.0,-3.4904,-3.4904,-3.5453,-3.5657,0.0,0.0,-3.5202,-3.4404,-3.4876,-3.4986,0.0,0.0,0.0,0.0,0.0,0.0,0.0,0.0,0.0,0.0,0.0,0.0,0.0,0.0,0.0,0.0,0.0,0.0,0.0,0.0,0.0,0.0,0.0,0.0,0.0,0.0,0.0,0.0,0.0,0.0,0.0,0.0,0.0,0.0,0.0,0.0,0.0,0.0,0.0,0.0,0.0,0.0,0.0,0.0,0.0,0.0,0.0,0.0,0.0,0.0,0.0,0.0,0.0,0.0,0.0,-2.773,-2.6966,-2.6937,-2.7644,-2.6899,-2.6713,-2.7148,-2.7127,-2.6979,0.0,0.0,0.0,0.0,0.0,0.0,0.0,0.0,0.0,0.0,0.0,0.0,0.0,0.0,0.0,0.0,0.0,0.0,0.0,0.0,0.0,0.0,0.0,0.0,0.0,0.0,0.0,0.0,0.0,0.0,0.0,0.0,0.0,0.0,0.0,0.0,0.0,0.0,0.0,0.0,0.0,-3.4081,-3.409,-3.4752,-3.525,0.0,0.0,-3.4652,-3.379,-3.468,-3.4872,-3.3084,0.0,0.0,0.0,0.0,0.0,0.0,0.0,0.0,0.0,0.0,0.0,0.0,0.0,0.0,0.0,0.0,0.0,0.0,0.0,0.0,0.0,0.0,0.0,0.0,0.0,0.0,0.0,0.0,0.0,0.0,0.0,0.0,0.0,0.0,0.0,0.0,0.0,0.0,0.0,0.0,0.0,0.0,0.0,0.0,0.0,0.0,0.0,0.0,0.0,0.0,0.0,0.0,0.0,-2.7491,-2.6189,-2.6316,-2.6316,-2.615,-2.5826,-2.5877,-2.6351,-2.6283,-2.6172,0.0,0.0,0.0,0.0,0.0,0.0,0.0,0.0,0.0,0.0,0.0,0.0,0.0,0.0,0.0,0.0,0.0,0.0,0.0,0.0,0.0,0.0,0.0,0.0,0.0,0.0,0.0,0.0,-2.4503,-2.5237,-2.6436,0.0,0.0,0.0,0.0,0.0,0.0,0.0,0.0,0.0,0.0,-3.3554,-3.4,-3.3882,0.0,0.0,-3.3598,-3.3614,-3.3824,-3.3668,-3.3625,-3.3886,-3.3519,0.0,0.0,0.0,0.0,0.0,0.0,0.0,0.0,0.0,0.0,0.0,0.0,0.0,0.0,0.0,0.0,0.0,0.0,0.0,0.0,0.0,0.0,0.0,0.0,0.0,0.0,0.0,0.0,0.0,0.0,0.0,0.0,0.0,0.0,0.0,0.0,0.0,0.0,0.0,0.0,0.0,0.0,0.0,0.0,0.0,0.0,0.0,0.0,0.0,0.0,0.0,0.0,-2.687,-2.5229,-2.5759,-2.5634,-2.4832,-2.4813,-2.4927,-2.5141,-2.5083,-2.4966,0.0,0.0,0.0,0.0,0.0,0.0,0.0,0.0,0.0,0.0,0.0,0.0,0.0,0.0,0.0,0.0,0.0,0.0,0.0,0.0,0.0,0.0,0.0,0.0,0.0,0.0,0.0,0.0,-2.507,-2.5894,-2.7411,0.0,0.0,0.0,0.0,0.0,0.0,0.0,0.0,0.0,0.0,-3.2966,-3.3978,-3.3578,-3.3264,-3.3474,-3.3469,-3.3562,-3.3914,-3.3471,-3.3271,-3.3796,0.0,0.0,0.0,0.0,0.0,0.0,0.0,0.0,0.0,0.0,0.0,0.0,0.0,0.0,0.0,0.0,0.0,0.0,0.0,0.0,0.0,0.0,0.0,0.0,0.0,0.0,0.0,-2.7831,0.0,0.0,-2.7884,0.0,0.0,0.0,0.0,0.0,0.0,0.0,0.0,0.0,0.0,0.0,0.0,0.0,0.0,0.0,0.0,0.0,0.0,0.0,0.0,0.0,0.0,-2.6861,-2.5239,-2.521,-2.4822,-2.399,-2.3923,-2.3799,-2.3536,-2.341,-2.3345,-2.3268,0.0,0.0,0.0,0.0,0.0,0.0,0.0,0.0,0.0,0.0,0.0,0.0,0.0,0.0,0.0,0.0,0.0,0.0,0.0,0.0,0.0,0.0,0.0,0.0,0.0,0.0,-2.5766,-2.4798,-2.4966,0.0,0.0,0.0,0.0,0.0,0.0,0.0,0.0,0.0,0.0,-3.1742,-3.2324,-3.3928,-3.4086,-3.4239,-3.5072,-3.5135,-3.4827,-3.3997,-3.4364,-3.4197,0.0,0.0,0.0,0.0,0.0,0.0,0.0,0.0,0.0,0.0,0.0,0.0,0.0,0.0,0.0,0.0,0.0,0.0,0.0,0.0,0.0,0.0,0.0,0.0,0.0,0.0,0.0,-2.7887,-2.7186,0.0,0.0,0.0,0.0,0.0,0.0,0.0,0.0,0.0,0.0,0.0,-2.5876,-2.645,0.0,0.0,0.0,0.0,0.0,0.0,0.0,0.0,0.0,0.0,0.0,0.0,-2.6294,-2.5229,-2.4622,-2.4473,-2.4736,-2.4196,-2.4018,-2.4266,-2.4203,-2.3621,-2.2445,0.0,0.0,0.0,0.0,0.0,0.0,0.0,0.0,0.0,0.0,0.0,0.0,0.0,0.0,0.0,0.0,0.0,0.0,0.0,0.0,0.0,0.0,0.0,0.0,0.0,-2.5927,0.0,0.0,0.0,0.0,0.0,0.0,0.0,0.0,0.0,0.0,0.0,-3.1154,-3.1762,-3.1845,-3.2014,-3.2543,-3.2576,-3.2462,0.0,0.0,0.0,0.0,0.0,0.0,0.0,0.0,0.0,0.0,0.0,0.0,0.0,0.0,-3.3207,-3.2034,-3.1108,-3.0686,-3.1141,0.0,0.0,0.0,0.0,0.0,0.0,0.0,0.0,0.0,0.0,0.0,0.0,0.0,0.0,-2.6963,0.0,-2.646,0.0,0.0,0.0,0.0,0.0,0.0,0.0,0.0,-2.6658,-2.6149,-2.5275,-2.5791,-2.561,0.0,-2.5105,-2.5356,0.0,0.0,0.0,0.0,0.0,0.0,0.0,0.0,-2.5891,-2.4815,-2.4235,-2.3928,-2.3853,-2.3274,-2.3098,-2.3384,-2.3444,-2.2905,-2.1728,-2.1511,-2.1182,0.0,0.0,0.0,0.0,0.0,0.0,0.0,0.0,0.0,0.0,0.0,0.0,0.0,0.0,0.0,0.0,0.0,0.0,0.0,0.0,0.0,0.0,0.0,-2.5832,0.0,0.0,0.0,0.0,0.0,0.0,0.0,0.0,0.0,-3.0376,-3.0491,-3.0754,-3.1363,-3.1448,-3.1529,-3.1797,0.0,0.0,0.0,0.0,0.0,0.0,0.0,-3.2184,-3.3064,-3.2219,-3.145,-3.1487,-3.1976,-3.2246,-3.1966,0.0,0.0,-3.2831,-3.1914,-3.1252,-3.169,-3.1306,-3.0753,-3.0282,-3.0248,-3.0117,0.0,0.0,0.0,0.0,0.0,0.0,0.0,0.0,-2.6199,-2.5841,0.0,-2.5738,0.0,0.0,0.0,0.0,0.0,-2.647,0.0,0.0,-2.5944,-2.5244,-2.5201,-2.525,-2.486,-2.4129,-2.4783,-2.4759,-2.4145,-2.4834,0.0,0.0,0.0,0.0,0.0,0.0,-2.5642,-2.402,-2.3895,-2.3112,-2.1579,-2.1328,-2.1153,-2.102,-2.1264,-2.1317,-2.1063,-2.0694,-2.0219,-1.9641,-2.0321,0.0,0.0,0.0,0.0,0.0,0.0,0.0,0.0,0.0,0.0,0.0,0.0,0.0,0.0,0.0,0.0,0.0,0.0,0.0,0.0,-2.5248,0.0,0.0,0.0,0.0,0.0,0.0,0.0,0.0,0.0,0.0,-3.0486,-2.9231,-2.8782,-3.0412,0.0,0.0,0.0,0.0,-3.1941,-3.2683,-3.2781,-3.2701,-3.2643,-3.2631,-3.2089,-3.0512,0.0,0.0,-2.8699,-2.9804,-3.0574,-2.9814,-2.9805,-3.0715,-3.3804,-3.2939,-3.2179,-3.2892,-3.1822,-3.0942,-3.0945,-3.076,-3.0675,-2.7497,0.0,0.0,0.0,0.0,-2.7513,-2.7024,-2.6365,-2.6129,-2.5389,-2.4341,-2.4318,0.0,0.0,0.0,0.0,0.0,0.0,-2.5365,-2.5058,-2.4635,-2.4128,-2.3522,-2.3532,-2.3405,-2.317,-2.281,-2.2839,-2.3155,-2.2872,-2.3684,-2.5551,0.0,0.0,0.0,0.0,-2.4841,-2.3156,-2.2503,-2.2221,-2.2247,-2.1663,-2.1487,-2.1819,-2.1397,-2.0873,-2.0268,-2.0265,-1.994,-1.9234,-2.0384,0.0,0.0,0.0,0.0,0.0,0.0,0.0,0.0,0.0,0.0,0.0,0.0,0.0,0.0,0.0,0.0,0.0,0.0,0.0,-2.5107,-2.4948,-2.5029,0.0,0.0,0.0,0.0,0.0,0.0,0.0,0.0,0.0,-3.039,-3.0185,-3.0056,0.0,0.0,-3.0699,-3.095,-3.0941,-3.0786,-3.0419,-3.0853,0.0,-3.0252,-3.0149,-3.0129,-3.0056,-2.9437,-2.8835,-2.855,-2.8846,-2.9035,-2.881,-2.9298,-3.0208,-3.1494,-3.1119,-3.0537,-3.0668,-3.0359,-2.9861,-2.9376,-2.9352,-2.9267,-2.6734,-2.6871,-2.7351,-2.7368,-2.7036,-2.6918,-2.6427,-2.5722,-2.5403,-2.4898,-2.4261,-2.3925,-2.3425,-2.2867,-2.3093,0.0,0.0,0.0,-2.4069,-2.3568,-2.3638,-2.3397,-2.2917,-2.2921,-2.2904,-2.2837,-2.2027,-2.1902,-2.2358,-2.1912,-2.2404,-2.3767,0.0,0.0,-2.4311,-2.4379,-2.371,-2.233,-2.1791,-2.1562,-2.1598,-2.1019,-2.1006,-2.1559,-2.1121,-2.0567,-1.9976,-2.0021,-1.9791,-1.9247,-2.0214,-2.0729,0.0,0.0,0.0,0.0,0.0,0.0,0.0,0.0,0.0,0.0,0.0,-2.1897,0.0,0.0,0.0,0.0,-2.3808,-2.4337,-2.4939,-2.5047,0.0,0.0,0.0,0.0,0.0,0.0,0.0,-2.9219,-2.8601,-2.8415,-2.9427,-2.9321,-2.9369,-3.0005,-3.0085,-2.995,-2.9616,0.0,-2.9384,-2.8852,-2.9229,-2.9356,-2.8758,-2.8661,-2.868,-2.8635,-2.8148,-2.7706,-2.767,-2.7592,-2.7642,-2.7935,-2.817,-2.8566,-2.9325,-2.9394,-2.9597,-3.0058,-2.9908,-2.9559,-2.9184,-2.8976,-2.8696,-2.6243,-2.5635,-2.7012,-2.7148,-2.6417,-2.6417,-2.597,-2.5168,-2.4442,-2.4465,-2.4948,-2.4246,-2.389,-2.3757,-2.3038,0.0,-2.2795,-2.2817,-2.2811,-2.2821,-2.2871,-2.2858,-2.2805,-2.2852,-2.2859,-2.2775,-2.1981,-2.1611,-2.1597,-2.1604,-2.1607,-2.1627,-2.2407,-2.2843,-2.2888,-2.2843,-2.2404,-2.1637,-2.1537,-2.1049,-2.0136,-1.9843,-2.0,-2.0607,-2.047,-2.0251,-1.9935,-1.9841,-1.9713,-1.9561,-1.9975,-2.0314,-2.0514,0.0,0.0,0.0,0.0,0.0,0.0,0.0,0.0,0.0,0.0,0.0,0.0,0.0,0.0,0.0,-2.3883,0.0,-2.4501,-2.5232,0.0,0.0,0.0,-2.5789,-2.5446,-2.6048,-2.6887,-2.7884,0.0,0.0,-2.7904,-2.7329,-2.7392,-2.8727,-2.9014,-2.885,-2.8109,-2.7996,-2.7915,-2.7923,-2.7843,-2.781,-2.7709,-2.7615,-2.7276,-2.6588,-2.6279,-2.6109,-2.6057,-2.606,-2.6315,-2.6863,-2.6543,-2.6403,-2.7107,-2.8044,-2.9094,-3.0263,-3.0048,-2.9636,-2.9515,-2.8981,-2.8501,-2.5734,-2.5541,-2.5889,-2.5905,-2.5666,-2.5666,-2.554,-2.5347,-2.5151,-2.4467,-2.3479,-2.3931,-2.3413,-2.2123,-2.1293,-2.1274,-2.1907,-2.196,-2.1986,-2.1983,-2.205,-2.1728,-2.1108,-2.1106,-2.1112,-2.1082,-2.0881,-2.079,-2.0786,-2.0796,-2.1087,-2.1666,-2.1883,-2.2296,-2.284,-2.228,-2.1882,-2.1682,-2.0972,-2.0441,-2.0103,-1.9939,-1.987,-1.9922,-1.9654,-1.9425,-1.9253,-1.9066,-1.9248,-1.9776,-2.0163,-2.0729,-2.1575,-2.1902,0.0,0.0,0.0,0.0,0.0,0.0,0.0,0.0,0.0,-2.2669,-2.33,0.0,-2.3316,0.0,-2.3881,-2.3984,-2.46,-2.3811,0.0,0.0,-2.4508,-2.4862,-2.6139,-2.5837,-2.6183,-2.7878,-2.7518,-2.7119,-2.7146,-2.7004,-2.6532,-2.5692,-2.6647,-2.7615,-2.7971,-2.7543,-2.7166,-2.7103,-2.6572,-2.6107,-2.6042,-2.5478,-2.5003,-2.4739,-2.4072,-2.3531,-2.3528,-2.3986,-2.4453,-2.4669,-2.5094,-2.5628,-2.6386,-2.6778,-2.7252,-2.818,-2.8695,-2.8646,-2.7549,-2.7173,-2.692,-2.5047,-2.5005,-2.5017,-2.5225,-2.5542,-2.5465,-2.5444,-2.5447,-2.5434,-2.4681,-2.3424,-2.3205,-2.2542,-2.1614,-2.0795,-2.0698,-2.115,-2.12,-2.1206,-2.1214,-2.1238,-2.1012,-2.0548,-2.0504,-2.0508,-2.0511,-2.0503,-2.0299,-1.9932,-1.9918,-2.0142,-2.0575,-2.0592,-2.1186,-2.2306,-2.1924,-2.1696,-2.1694,-2.0748,-2.0236,-2.0138,-1.9991,-1.9992,-2.0211,-2.0001,-1.9951,-2.0101,-2.0002,-2.0144,-2.0593,-2.0642,-2.098,-2.1635,-2.1694,-2.1604,0.0,0.0,0.0,0.0,0.0,0.0,0.0,0.0,0.0,0.0,0.0,-2.3268,-2.3945,-2.3725,-2.3608,-2.3757,-2.3322,-2.3157,-2.3468,-2.3741,-2.4042,-2.4395,-2.43,-2.4784,-2.6233,-2.6009,-2.5879,-2.6246,-2.5668,-2.5047,-2.439,-2.4525,-2.5099,-2.6184,-2.6314,-2.6316,-2.6297,-2.5556,-2.4807,-2.4465,-2.3957,-2.3607,-2.3562,-2.3425,-2.3313,-2.3337,-2.3947,-2.4459,-2.4466,-2.4842,-2.5297,-2.5682,-2.5881,-2.6011,-2.5992,-2.6402,-2.6629,-2.6487,-2.6169,-2.5769,-2.451,-2.442,-2.4411,-2.4829,-2.5499,-2.5291,-2.5243,-2.5342,-2.5236,-2.4737,-2.3873,-2.2279,-2.1629,-2.1679,-2.0932,-2.0603,-2.0603,-2.0603,-2.0604,-2.0596,-2.0596,-2.0596,-2.0579,-2.0436,-2.0345,-2.034,-2.024,-1.9796,-1.9034,-1.9023,-1.9079,-1.9187,-1.9191,-2.003,-2.1636,-2.1605,-2.1555,-2.1529,-2.0656,-2.02,-2.0201,-2.0136,-2.0375,-2.0909,-2.0928,-2.1113,-2.1534,-2.158,-2.1625,-2.167,-2.1363,-2.1283,-2.1472,-2.1199,-2.0938,0.0,-2.0806,0.0,0.0,0.0,0.0,0.0,0.0,0.0,0.0,-2.2986,-2.3082,-2.3248,-2.3295,-2.3069,-2.2517,-2.299,-2.2856,-2.1713,-2.2722,-2.3074,-2.2036,-2.2441,-2.3173,-2.4039,-2.4193,-2.4507,-2.5116,-2.3996,-2.3446,-2.3975,-2.3326,-2.3189,-2.4105,-2.4914,-2.523,-2.5273,-2.4652,-2.3905,-2.3327,-2.308,-2.3019,-2.3034,-2.3438,-2.4025,-2.3918,-2.4574,-2.5095,-2.5043,-2.5158,-2.5289,-2.5175,-2.538,-2.5228,-2.4609,-2.4619,-2.4949,-2.5568,-2.5332,-2.4999,-2.5049,-2.4421,-2.4412,-2.4496,-2.4573,-2.3873,-2.3964,-2.4556,-2.3857,-2.3447,-2.3162,-2.1539,-2.1208,-2.1765,-2.0981,-2.0603,-2.0603,-2.0603,-2.0598,-2.0603,-2.0603,-2.0566,-2.0478,-1.9833,-1.9521,-1.9482,-1.8807,-1.8365,-1.8134,-1.8137,-1.8502,-1.9183,-1.9199,-2.0064,-2.1661,0.0,0.0,0.0,-2.0411,-2.0267,-2.022,-2.0804,-2.112,-2.116,-2.1752,0.0,-2.191,-2.1905,-2.2154,-2.2658,-2.2409,0.0,0.0,0.0,0.0,0.0,0.0,0.0,0.0,0.0,0.0,0.0,-2.0685,-2.1439,-2.2131,-2.2407,-2.2545,-2.2574,-2.208,-2.1721,-2.1703,-2.1188,-2.1091,-2.1593,-2.1335,-2.1498,-2.2544,-2.2279,-2.2299,-2.3216,-2.3337,-2.3426,-2.3668,-2.3349,-2.3252,-2.3496,-2.373,-2.4023,-2.4287,-2.4014,-2.3691,-2.3562,-2.3493,-2.3266,-2.304,-2.298,-2.2911,-2.3019,-2.3018,-2.3139,-2.3207,-2.3838,-2.4374,-2.4362,-2.4975,-2.5381,-2.5328,-2.5462,-2.5211,-2.5211,-2.5151,-2.4913,-2.3825,-2.3464,-2.3346,-2.3524,-2.3135,-2.3125,-2.3369,0.0,-2.283,-2.2703,-2.3113,-2.3106,-2.2877,-2.2428,-2.1169,-2.0847,-2.1247,-2.0808,-2.0596,-2.0601,-2.0601,-2.0565,-2.0537,-2.0127,-1.9931,-1.9879,-1.9047,-1.8658,-1.8632,-1.8202,-1.7764,-1.7333,-1.73,-1.754,-1.7967,-1.7973,-1.8609,-1.9816,-1.9435,-1.9617,-2.0441,-2.0385,-2.0331,-2.0313,-2.0639,-2.0924,-2.1196,-2.1487,0.0,0.0,0.0,0.0,0.0,0.0,0.0,0.0,0.0,0.0,-1.973,-1.9957,-1.9668,-1.8734,-1.9377,-1.9599,-1.9069,-1.9838,-2.0871,-2.2098,-2.2334,-2.2273,-2.1981,-2.1613,-2.1275,-2.0976,-2.0563,-2.0498,-2.0966,-2.0692,-2.0832,-2.1542,-2.1379,-2.1472,-2.2267,-2.2482,-2.2791,-2.3682,-2.3428,-2.3408,-2.3721,-2.375,-2.376,-2.3779,-2.3809,-2.3672,-2.3242,-2.3144,-2.295,-2.2529,-2.2405,-2.2238,-2.1938,-2.2095,-2.2333,-2.2362,-2.3055,-2.3484,-2.3133,-2.3356,-2.3556,-2.3069,-2.3005,-2.3021,-2.2994,-2.2988,-2.2765,-2.1877,-2.2317,-2.2884,-2.1958,-2.1793,-2.1793,-2.2204,-2.281,-2.1931,-2.157,-2.1619,0.0,0.0,0.0,-2.0892,-2.057,-2.057,-2.0589,-2.0573,-2.0566,-2.0586,-2.0468,-2.0249,-1.9605,-1.9214,-1.9017,-1.818,-1.7762,-1.7759,-1.7627,-1.7179,-1.6483,-1.6475,-1.6474,-1.6472,-1.6469,-1.6876,-1.7643,-1.7834,-1.8608,-1.9974,-1.9972,-1.9929,-1.9938,-1.9968,-2.0237,-2.0784,-2.0766,-2.102,-2.1596,-2.0947,-2.0493,-2.0299,-1.9129,-1.8637,-1.9014,-1.8369,-1.8194,-1.8688,-1.8736,-1.8393,-1.7703,-1.8438,-1.8795,-1.8472,-1.9216,-2.0355,-2.1842,-2.2001,-2.1802,-2.1321,-2.1285,-2.1056,-2.0453,-2.042,-2.0421,-2.0433,-2.0462,-2.0511,-2.0527,-2.0506,-2.0808,-2.1448,-2.1631,-2.2227,-2.3594,-2.3301,-2.3262,-2.3877,-2.3555,-2.3008,-2.2988,-2.3379,-2.3525,-2.2998,-2.2656,-2.2382,-2.184,-2.1774,-2.1495,-2.1093,-2.1567,-2.199,-2.2117,-2.2561,-2.2654,-2.2265,-2.199,-2.1839,-2.1132,-2.1272,-2.0923,-2.0865,-2.0856,-2.0846,-2.0949,-2.1819,-2.2562,-2.2469,-2.1791,-2.1789,-2.1875,-2.1902,-2.1051,-2.068,-2.068,-2.0828,-2.0809,-2.0682,-2.0575,-2.0506,-2.0506,-2.0506,-2.0516,-2.0505,-2.0505,-2.0131,-1.9468,-1.9341,-1.8895,-1.8147,-1.7286,-1.6878,-1.6822,-1.6139,-1.571,-1.5598,-1.5598,-1.5583,-1.5594,-1.558,-1.6015,-1.6864,-1.76,-1.8087,-1.8263,-1.8193,-1.8172,-1.8176,-1.8767,-1.9116,-1.925,-1.9864,-2.0184,-2.0179,-2.0058,-1.9926,-1.973,-1.9525,-1.9155,-1.8546,-1.8288,-1.7968,-1.7353,-1.73,-1.697,-1.628,-1.696,-1.7775,-1.8563,-1.8836,-1.9331,-2.015,-2.0399,-2.0477,-2.0398,-2.0511,-2.0524,-2.042,-2.0461,-2.0492,-2.0482,-2.0487,-2.0509,-2.051,-2.0506,-2.058,-2.08,-2.0781,-2.1172,-2.2148,-2.2227,-2.2471,-2.3096,-2.3252,-2.2919,-2.2349,-2.2128,-2.2207,-2.2002,-2.1426,-2.0967,-2.1034,-2.1389,-2.1557,-2.1649,-2.2057,-2.2325,-2.2296,-2.2451,-2.2524,-2.2719,-2.2464,-2.2499,-2.2385,-2.2627,-2.2349,-2.2246,-2.2205,-2.2302,-2.2224,-2.2131,-2.1739,-2.134,-2.1011,-2.1029,-2.1037,-2.1007,-2.0638,-2.0506,-2.0506,-2.0506,-2.0504,-2.0504,-2.0504,-2.0504,-2.0504,-2.0504,-2.0511,-2.0507,-2.0507,-2.0062,-1.9247,-1.8788,-1.8137,-1.7261,-1.6403,-1.5994,-1.5966,-1.559,-1.5407,-1.5409,-1.5357,-1.5353,-1.5332,-1.534,-1.5541,-1.5942,-1.6337,-1.6543,-1.6569,-1.7408,-1.7852,-1.7851,-1.8142,-1.8314,-1.8311,-1.8559,-1.8664,-1.8607,-1.8155,-1.7827,-1.7652,-1.7251,-1.6862,-1.6485,-1.6388,-1.6157,-1.5727,-1.5702,-1.5585,-1.5308,-1.6596,-1.7961,-1.9316,-1.9527,-1.9691,-2.004,-2.0144,-2.0227,-2.0302,-2.0364,-2.0421,-2.0443,-2.0486,-2.0511,-2.0511,-2.0532,-2.0549,-2.0534,-2.0508,-2.0517,-2.0544,-2.0538,-2.0895,-2.1735,-2.1852,-2.2175,-2.2917,-2.3103,-2.2864,-2.2446,-2.2061,-2.1835,-2.1816,-2.1533,-2.1348,-2.126,-2.1151,-2.0983,-2.0542,-2.0332,-2.0316,-2.0296,-2.0342,-2.0547,-2.0849,-2.101,-2.1174,-2.1546,-2.1679,-2.1676,-2.1647,-2.1646,-2.1646,-2.1578,-2.1316,-2.0968,-2.0292,-2.0279,-2.0353,-2.0388,-2.0383,-2.0429,-2.0453,-2.0443,-2.0463,-2.0446,-2.0455,-2.0494,-2.0508,-2.0508,-2.0508,-2.0503,-2.0473,-2.0293,-1.9727,-1.8872,-1.8046,-1.7195,-1.6392,-1.5678,-1.5366,-1.537,-1.5365,-1.5355,-1.5354,-1.5311,-1.5292,-1.5292,-1.5293,-1.5287,-1.5287,-1.5288,-1.5338,-1.5446,-1.6679,-1.7338,-1.7332,-1.7271,-1.7245,-1.7231,-1.7077,-1.6974,-1.6938,-1.6332,-1.5922,-1.5804,-1.5283,-1.4933,-1.4895,-1.4827,-1.4771,-1.4699,-1.4664,-1.4807,-1.5192,-1.6686,-1.8272,-1.9718,-2.0106,-2.0229,-2.0248,-2.0262,-2.0299,-2.0388,-2.041,-2.0445,-2.0488,-2.052,-2.0521,-2.0504,-2.0547,-2.0575,-2.0573,-2.0537,-2.051,-2.0508,-2.0503,-2.0764,-2.1321,-2.1516,-2.1735,-2.2235,-2.2315,-2.2202,-2.228,-2.1723,-2.1264,-2.1225,-2.1263,-2.1152,-2.124,-2.0517,-1.9766,-1.9072,-1.8779,-1.874,-1.8672,-1.8574,-1.8857,-1.9673,-1.9734,-2.0075,-2.045,-2.0627,-2.0692,-2.0726,-2.0734,-2.0637,-2.0676,-2.0637,-2.0547,-2.0197,-2.0214,-2.0283,-2.0312,-2.0324,-2.0314,-2.0323,-2.0317,-2.0311,-2.0307,-2.0336,-2.0457,-2.0504,-2.0506,-2.0504,-2.0493,-2.0391,-1.9676,-1.8852,-1.7977,-1.7061,-1.6201,-1.5524,-1.5295,-1.5254,-1.5288,-1.5251,-1.5231,-1.5231,-1.527,-1.5291,-1.5288,-1.5286,-1.5286,-1.5286,-1.5291,-1.5305,-1.5302,-1.5525,-1.5624,-1.5635,-1.5552,-1.5527,-1.5519,-1.548,-1.5405,-1.5496,-1.5324,-1.5292,-1.5277,-1.521,-1.5166,-1.5156,-1.5102,-1.5034,-1.4959,-1.4905,-1.5207,-1.6029,-1.7095,-1.8116,-1.9035,-1.9924,-2.0371,-2.0383,-2.0441,-2.0451,-2.0437,-2.0467,-2.0478,-2.0514,-2.0554,-2.0556,-2.0512,-2.0518,-2.0512,-2.0516,-2.0514,-2.0504,-2.0513,-2.0495,-2.0537,-2.0687,-2.0724,-2.0719,-2.0958,-2.0556,-2.0341,-2.0749,-2.023,-1.9705,-1.957,-1.9474,-1.9479,-1.9424,-1.8787,-1.8389,-1.8193,-1.8691,-1.8818,-1.8906,-1.9492,-2.0371,-1.9814,-2.0137,-2.0156,-2.0381,-2.0586,-2.0459,-2.0195,-2.0244,-2.0469,-2.0556,-2.0488,-2.0449,-1.9609,-2.0066,-2.0151,-2.0202,-2.0246,-2.024,-2.0263,-2.0292,-2.0292,-2.0296,-2.0295,-2.037,-2.0371,-2.0381,-2.0388,-2.0131,-1.965,-1.9292,-1.8392,-1.7112,-1.6668,-1.6065,-1.5304,-1.5216,-1.5216,-1.5248,-1.5204,-1.5197,-1.5202,-1.5226,-1.5178,-1.5069,-1.5095,-1.5135,-1.5185,-1.5177,-1.522,-1.5282,-1.5316,-1.5339,-1.5345,-1.5361,-1.5362,-1.5357,-1.5297,-1.5268,-1.5265,-1.5262,-1.5245,-1.5263,-1.5233,-1.52,-1.52,-1.5186,-1.5117,-1.5068,-1.5063,-1.5469,-1.6326,-1.7273,-1.8195,-1.9052,-1.9949,-2.0459,-2.046,-2.047,-2.0495,-2.0471,-2.0475,-2.0512,-2.0508,-2.0535,-2.0539,-2.0512,-2.0507,-2.0512,-2.0511,-2.047,-2.0447,-2.0436,-2.0439,-2.0429,-2.0429,-2.0429,-2.0429,-2.0417,-2.0067,-2.0024,-2.0315,-1.9652,-1.9172,-1.899,-1.8317,-1.7922,-1.8192,-1.7716,-1.7467,-1.7748,-1.7776,-1.7786,-1.844,-1.8683,-1.9122,-1.9671,-1.942,-1.9392,-1.9642,-1.9265,-1.8992,-1.9082,-1.9022,-1.9002,-1.9002,-1.942,-1.9693,-1.8611,-1.9207,-1.9487,-1.9654,-1.9732,-1.9969,-2.0086,-2.0131,-2.0175,-2.0194,-2.0163,-1.9969,-1.9857,-1.9887,-1.9932,-1.9521,-1.8792,-1.8456,-1.7679,-1.6486,-1.618,-1.5707,-1.5145,-1.5092,-1.5105,-1.5123,-1.5096,-1.5093,-1.5081,-1.5095,-1.5028,-1.4902,-1.492,-1.4968,-1.5015,-1.5037,-1.5139,-1.5232,-1.5243,-1.5241,-1.5252,-1.5063,-1.5088,-1.5329,-1.534,-1.5295,-1.5289,-1.529,-1.5304,-1.5321,-1.5273,-1.5254,-1.5245,-1.5216,-1.5188,-1.514,-1.5183,-1.547,-1.6126,-1.7026,-1.7924,-1.8782,-1.9648,-2.0251,-2.0434,-2.0494,-2.0508,-2.0506,-2.0508,-2.0507,-2.0504,-2.0508,-2.0488,-2.0471,-2.0466,-2.0483,-2.0476,-2.0417,-2.0386,-2.0381,-2.0399,-2.0383,-2.0344,-2.0163,-2.0015,-2.0256,-2.0127,-2.015,-2.0108,-1.9403,-1.8634,-1.8622,-1.7246,-1.6674,-1.7266,-1.6838,-1.6725,-1.6881,-1.6785,-1.6981,-1.7489,-1.7658,-1.7961,-1.8754,-1.8184,-1.8103,-1.8671,-1.827,-1.7874,-1.7905,-1.7895,-1.7895,-1.8155,-1.8527,-1.876,-1.7192,-1.7377,-1.814,-1.8522,-1.8541,-1.9356,-1.9704,-1.9683,-1.9818,-1.9892,-1.9718,-1.9101,-1.8764,-1.8745,-1.8925,-1.8656,-1.7799,-1.6949,-1.648,-1.614,-1.534,-1.4913,-1.4902,-1.4857,-1.486,-1.4912,-1.4863,-1.482,-1.4811,-1.4816,-1.4812,-1.4785,-1.4789,-1.4808,-1.4758,-1.4855,-1.5028,-1.5014,-1.4962,-1.5072,-1.504,-1.4321,-1.4322,-1.5054,-1.5244,-1.5161,-1.5205,-1.5254,-1.5282,-1.5342,-1.5312,-1.5307,-1.5273,-1.5281,-1.5256,-1.5214,-1.5195,-1.5221,-1.5414,-1.6257,-1.7159,-1.796,-1.8944,-1.9629,-2.0337,-2.0471,-2.0485,-2.0504,-2.0488,-2.0495,-2.0494,-2.0477,-2.0458,-2.0409,-2.0402,-2.041,-2.0394,-2.0401,-2.0389,-2.0386,-2.0386,-2.0369,-2.0282,-1.9565,-1.9656,-1.9884,-1.9543,-1.9279,-1.969,-1.878,-1.7907,-1.7473,-1.6554,-1.5601,-1.6359,-1.6159,-1.5702,-1.6012,-1.659,-1.6682,-1.6924,-1.723,-1.7677,-1.7929,-1.7775,-1.7755,-1.7883,-1.7834,-1.764,-1.756,-1.747,-1.7501,-1.7247,-1.7704,-1.7946,-1.6645,-1.7118,-1.744,-1.786,-1.837,-1.8681,-1.8833,-1.8858,-1.8923,-1.8663,-1.8231,-1.7927,-1.7527,-1.7051,-1.7143,-1.7005,-1.6696,-1.632,-1.5882,-1.5362,-1.4967,-1.4812,-1.484,-1.4803,-1.4798,-1.4812,-1.4738,-1.4636,-1.4556,-1.4545,-1.4498,-1.4451,-1.4557,-1.4348,-1.3919,-1.3951,-1.4083,-1.4128,-1.3693,-1.3647,-1.4134,-1.3367,-1.3123,-1.3484,-1.3592,-1.3669,-1.3708,-1.3699,-1.3715,-1.3746,-1.4267,-1.456,-1.4585,-1.5062,-1.5345,-1.5327,-1.5336,-1.5325,-1.5475,-1.6679,-1.7597,-1.7949,-1.9231,-2.0084,-2.0388,-2.0475,-2.0454,-2.0393,-2.0376,-2.0356,-2.0326,-2.0373,-2.0434,-2.0403,-2.0389,-2.0381,-2.0386,-2.0363,-2.0332,-2.0329,-2.0307,-2.0269,-2.02,-1.9957,-1.9887,-2.0044,-1.9435,-1.9134,-1.8981,-1.7924,-1.6864,-1.6718,-1.5942,-1.5255,-1.5519,-1.5545,-1.5476,-1.6027,-1.6512,-1.6879,-1.7178,-1.7229,-1.7586,-1.7442,-1.7352,-1.7056,-1.7016,-1.6656,-1.6606,-1.6443,-1.6416,-1.6586,-1.62,-1.6736,-1.6984,-1.5523,-1.6032,-1.6347,-1.6792,-1.7336,-1.7633,-1.7812,-1.7889,-1.7919,-1.7667,-1.7216,-1.6941,-1.6512,-1.6025,-1.5718,-1.556,-1.554,-1.5598,-1.5333,-1.478,-1.4727,-1.4713,-1.4708,-1.4668,-1.4634,-1.4614,-1.4508,-1.4382,-1.4311,-1.4296,-1.4256,-1.4187,-1.4308,-1.3966,-1.3316,-1.3325,-1.3383,-1.3138,-1.2623,-1.2649,-1.3047,-1.2329,-1.192,-1.1947,-1.1839,-1.2074,-1.2642,-1.2706,-1.2725,-1.2847,-1.3335,-1.3776,-1.4096,-1.4902,-1.5371,-1.536,-1.5351,-1.5359,-1.5519,-1.672,-1.7601,-1.7871,-1.9122,-2.0065,-2.0342,-2.0408,-2.0365,-2.0299,-2.0276,-2.0236,-2.0175,-2.0217,-2.0276,-2.0317,-2.0332,-2.0323,-2.0319,-2.03,-2.0271,-2.0269,-2.0236,-2.0202,-2.0172,-2.0172,-2.0135,-2.0131,-1.9372,-1.8843,-1.8596,-1.7347,-1.6196,-1.6192,-1.5592,-1.5135,-1.5178,-1.5188,-1.519,-1.5674,-1.5904,-1.6492,-1.6827,-1.6972,-1.7033,-1.6917,-1.6679,-1.6317,-1.5942,-1.5557,-1.5354,-1.5225,-1.5426,-1.5734,-1.5668,-1.5787,-1.6077,-1.3877,-1.4073,-1.475,-1.5285,-1.5612,-1.6306,-1.6664,-1.6772,-1.6897,-1.6833,-1.6556,-1.6081,-1.5733,-1.5625,-1.4939,-1.4478,-1.4487,-1.4664,-1.4725,-1.4645,-1.4548,-1.4493,-1.4473,-1.4375,-1.4313,-1.4294,-1.4163,-1.4096,-1.4087,-1.4,-1.3966,-1.4022,-1.3893,-1.3425,-1.2983,-1.2859,-1.2726,-1.2253,-1.197,-1.2057,-1.2085,-1.1264,-1.0815,-1.0802,-1.0257,-1.0665,-1.2257,-1.234,-1.2348,-1.2516,-1.2636,-1.3112,-1.3962,-1.4837,-1.53,-1.5306,-1.5315,-1.5299,-1.5388,-1.6172,-1.7127,-1.771,-1.8535,-1.9527,-2.0117,-2.0233,-2.0207,-2.0172,-2.016,-2.013,-2.0016,-1.9987,-2.0031,-2.0176,-2.0187,-2.0201,-2.0201,-2.0193,-2.0184,-2.0157,-2.013,-2.0139,-2.0103,-2.004,-1.9976,-1.9694,-1.9039,-1.8348,-1.8099,-1.6765,-1.6027,-1.5798,-1.5348,-1.4916,-1.4914,-1.4962,-1.5018,-1.5117,-1.52,-1.5478,-1.5619,-1.5763,-1.5862,-1.5808,-1.59,-1.5589,-1.5606,-1.527,-1.5251,-1.5162,-1.5174,-1.5192,-1.5338,-1.5464,-1.5385,-1.3796,-1.3814,-1.4091,-1.4551,-1.5073,-1.5387,-1.5532,-1.5572,-1.5602,-1.5343,-1.4888,-1.4603,-1.4509,-1.4477,-1.419,-1.4101,-1.4094,-1.4189,-1.4234,-1.4265,-1.4251,-1.4229,-1.4216,-1.4186,-1.4078,-1.3963,-1.3906,-1.3842,-1.3677,-1.3252,-1.2986,-1.2874,-1.2469,-1.1824,-1.1164,-1.1134,-1.1071,-1.0917,-1.037,-1.0345,-1.0877,-1.0168,-0.9751,-0.9771,-0.9581,-0.9817,-1.0337,-1.059,-1.0743,-1.0878,-1.1428,-1.2417,-1.3816,-1.4822,-1.5266,-1.529,-1.5287,-1.5278,-1.5403,-1.6485,-1.7349,-1.7897,-1.8941,-1.9811,-2.0149,-2.018,-2.0102,-1.9954,-1.9933,-1.9859,-1.9697,-1.9648,-1.9761,-1.9958,-2.0036,-2.0065,-2.0083,-1.9993,-1.987,-1.9749,-1.9734,-1.9707,-1.9685,-1.9679,-1.9507,-1.8942,-1.817,-1.7515,-1.6784,-1.5938,-1.5055,-1.4986,-1.4718,-1.4705,-1.4733,-1.4752,-1.478,-1.4832,-1.486,-1.4901,-1.491,-1.4923,-1.4949,-1.4992,-1.5065,-1.5107,-1.5117,-1.5117,-1.5097,-1.5117,-1.5117,-1.514,-1.5184,-1.5193,-1.5186,-1.3588,-1.3651,-1.3563,-1.3893,-1.4464,-1.4481,-1.4502,-1.4548,-1.4557,-1.4283,-1.3937,-1.3884,-1.3881,-1.3885,-1.3885,-1.3888,-1.3883,-1.3883,-1.3878,-1.3911,-1.4063,-1.4098,-1.4084,-1.401,-1.3893,-1.375,-1.3728,-1.3511,-1.3145,-1.2691,-1.2285,-1.1885,-1.1495,-1.0904,-1.0081,-1.0065,-1.0031,-0.9712,-0.9265,-0.9252,-0.9665,-0.9656,-0.9564,-0.9594,-0.9885,-1.0078,-1.0105,-1.0117,-1.002,-1.016,-1.1027,-1.2413,-1.3795,-1.4675,-1.517,-1.5184,-1.5145,-1.5114,-1.52,-1.624,-1.7217,-1.7647,-1.8731,-1.9618,-1.9841,-1.9941,-1.9843,-1.9736,-1.9681,-1.961,-1.9474,-1.9415,-1.9522,-1.9651,-1.9755,-1.983,-1.9844,-1.9768,-1.966,-1.9551,-1.952,-1.9353,-1.9149,-1.9369,-1.9137,-1.8412,-1.7562,-1.6941,-1.6155,-1.5292,-1.4801,-1.4526,-1.4559,-1.4559,-1.4543,-1.4543,-1.4537,-1.4589,-1.4646,-1.47,-1.4743,-1.4743,-1.4757,-1.4807,-1.4863,-1.4925,-1.4944,-1.4987,-1.5002,-1.5026,-1.5066,-1.5112,-1.5149,-1.5159,-1.5153,-1.3191,-1.3354,-1.3181,-1.3303,-1.3618,-1.3618,-1.373,-1.3797,-1.3782,-1.3791,-1.3761,-1.3734,-1.3746,-1.3815,-1.3756,-1.3712,-1.3665,-1.3634,-1.3565,-1.3591,-1.3784,-1.3975,-1.3982,-1.3873,-1.372,-1.3595,-1.3502,-1.3103,-1.2507,-1.2142,-1.1834,-1.1056,-1.0807,-1.0497,-0.9713,-0.9684,-0.9296,-0.8784,-0.8731,-0.874,-0.8749,-0.9564,-0.9983,-0.9843,-1.0521,-1.0957,-1.0904,-1.0592,-1.024,-1.0122,-1.1521,-1.2817,-1.3647,-1.4434,-1.4929,-1.4965,-1.4916,-1.4872,-1.4967,-1.5654,-1.6374,-1.6976,-1.7894,-1.8588,-1.9275,-1.9506,-1.9564,-1.9504,-1.9499,-1.9429,-1.9337,-1.9291,-1.93,-1.9297,-1.9441,-1.9543,-1.9509,-1.9492,-1.9451,-1.9429,-1.9407,-1.9198,-1.8552,-1.8949,-1.8705,-1.8082,-1.7176,-1.6572,-1.6058,-1.5081,-1.4499,-1.4359,-1.4416,-1.4443,-1.4428,-1.4443,-1.4431,-1.4374,-1.4436,-1.448,-1.4558,-1.4574,-1.4604,-1.465,-1.469,-1.4748,-1.4807,-1.4869,-1.4933,-1.4978,-1.5023,-1.5081,-1.5082,-1.5069,-1.5077,-1.295,-1.3146,-1.2959,-1.3014,-1.3217,-1.3217,-1.3329,-1.3478,-1.3346,-1.3362,-1.3454,-1.3362,-1.3312,-1.3303,-1.332,-1.3218,-1.3133,-1.321,-1.3184,-1.3106,-1.3312,-1.354,-1.369,-1.3682,-1.3573,-1.3409,-1.2998,-1.2542,-1.2098,-1.1146,-1.0426,-0.9978,-0.9469,-0.8998,-0.8598,-0.8609,-0.8485,-0.8342,-0.8343,-0.8396,-0.8531,-0.9192,-0.9506,-0.9556,-1.0283,-1.0645,-1.0665,-1.0629,-1.0604,-1.0617,-1.2123,-1.3123,-1.3467,-1.4209,-1.4663,-1.4691,-1.47,-1.4681,-1.4808,-1.5403,-1.5975,-1.6298,-1.7451,-1.839,-1.8598,-1.9186,-1.9388,-1.9383,-1.9348,-1.9299,-1.9193,-1.9135,-1.9095,-1.9001,-1.921,-1.94,-1.9339,-1.9339,-1.9274,-1.9051,-1.9017,-1.8794,-1.8474,-1.8161,-1.7757,-1.6924,-1.6201,-1.5552,-1.5321,-1.4798,-1.415,-1.4212,-1.4267,-1.4303,-1.4332,-1.435,-1.4306,-1.4212,-1.4223,-1.4256,-1.4344,-1.4428,-1.4477,-1.4532,-1.4571,-1.4625,-1.4709,-1.4785,-1.485,-1.4921,-1.4894,-1.4906,-1.4914,-1.4905,-1.4948,-1.2673,-1.2878,-1.2698,-1.2746,-1.2931,-1.2959,-1.304,-1.3112,-1.304,-1.3023,-1.3095,-1.304,-1.2976,-1.2975,-1.2968,-1.2906,-1.2817,-1.2927,-1.2944,-1.2907,-1.2999,-1.3167,-1.3337,-1.3403,-1.3386,-1.3244,-1.2617,-1.1983,-1.136,-1.0311,-0.9562,-0.8998,-0.8504,-0.8189,-0.8085,-0.8027,-0.7998,-0.8073,-0.8292,-0.8505,-0.8564,-0.9593,-1.0093,-1.0281,-1.0844,-1.1184,-1.0975,-1.1294,-1.1452,-1.1505,-1.2267,-1.3034,-1.3431,-1.3953,-1.4327,-1.4375,-1.4375,-1.4354,-1.45,-1.4961,-1.5358,-1.5818,-1.6934,-1.7686,-1.8173,-1.8796,-1.9146,-1.9092,-1.9033,-1.894,-1.8869,-1.8843,-1.8797,-1.8733,-1.8913,-1.9049,-1.8964,-1.893,-1.8869,-1.8733,-1.8658,-1.847,-1.8117,-1.7827,-1.7229,-1.6449,-1.5971,-1.5488,-1.5092,-1.445,-1.4106,-1.4271,-1.4339,-1.4407,-1.4383,-1.4358,-1.4153,-1.403,-1.4066,-1.4089,-1.4183,-1.4274,-1.4322,-1.4384,-1.4448,-1.4504,-1.4574,-1.4657,-1.477,-1.4794,-1.4747,-1.4747,-1.4785,-1.4808,-1.4848,-1.238,-1.2543,-1.2425,-1.2485,-1.2671,-1.2736,-1.2793,-1.2804,-1.2784,-1.2801,-1.2821,-1.2801,-1.2773,-1.2773,-1.2763,-1.2738,-1.2708,-1.2746,-1.2765,-1.2755,-1.2777,-1.2835,-1.2987,-1.315,-1.3168,-1.3032,-1.2422,-1.1586,-1.0765,-0.9948,-0.9069,-0.8418,-0.8118,-0.8005,-0.7885,-0.7863,-0.7797,-0.7871,-0.8382,-0.8651,-0.8922,-1.0034,-1.077,-1.0914,-1.1641,-1.1858,-1.1729,-1.2025,-1.2239,-1.1885,-1.2184,-1.2818,-1.3479,-1.3753,-1.3903,-1.4033,-1.4024,-1.4054,-1.4138,-1.4279,-1.4635,-1.5355,-1.6168,-1.6959,-1.7729,-1.8421,-1.8816,-1.8788,-1.861,-1.8582,-1.8562,-1.8513,-1.8428,-1.8371,-1.8399,-1.8368,-1.8377,-1.8427,-1.8475,-1.8426,-1.8399,-1.8048,-1.7765,-1.7676,-1.7646,-1.6376,-1.5873,-1.5476,-1.5116,-1.4662,-1.4496,-1.4608,-1.4616,-1.4578,-1.45,-1.4397,-1.4085,-1.3855,-1.3922,-1.3972,-1.4054,-1.4135,-1.4163,-1.4207,-1.4219,-1.4283,-1.4356,-1.4475,-1.4606,-1.4671,-1.4622,-1.4679,-1.4743,-1.4761,-1.479,-1.2141,-1.2357,-1.2177,-1.2239,-1.2435,-1.2491,-1.2602,-1.2757,-1.261,-1.262,-1.2726,-1.262,-1.255,-1.2548,-1.2511,-1.2489,-1.2353,-1.2461,-1.2566,-1.2556,-1.2445,-1.242,-1.2563,-1.2791,-1.2955,-1.2746,-1.2238,-1.1409,-1.0495,-0.9677,-0.892,-0.8068,-0.792,-0.7856,-0.7709,-0.7746,-0.7694,-0.7789,-0.8251,-0.8584,-0.8882,-0.9942,-1.0749,-1.0831,-1.1549,-1.1877,-1.1819,-1.1901,-1.1927,-1.202,-1.2412,-1.2883,-1.3243,-1.3385,-1.3532,-1.3688,-1.3749,-1.3778,-1.3815,-1.3934,-1.4256,-1.5051,-1.5834,-1.6561,-1.7356,-1.8132,-1.8509,-1.8562,-1.8532,-1.8417,-1.8367,-1.8261,-1.808,-1.79,-1.7771,-1.7598,-1.7512,-1.8012,-1.8199,-1.7986,-1.7872,-1.7747,-1.737,-1.68,-1.6595,-1.6178,-1.5885,-1.5496,-1.5128,-1.4759,-1.4708,-1.4689,-1.475,-1.4665,-1.4551,-1.4456,-1.4261,-1.4049,-1.4072,-1.4097,-1.4169,-1.4185,-1.4285,-1.4163,-1.3973,-1.4064,-1.4257,-1.4217,-1.4341,-1.4416,-1.4498,-1.4525,-1.4568,-1.463,-1.4736,-1.188,-1.1871,-1.1941,-1.2036,-1.2161,-1.2208,-1.232,-1.2415,-1.2246,-1.2246,-1.2309,-1.2172,-1.2081,-1.2096,-1.2063,-1.2,-1.1962,-1.2018,-1.2071,-1.206,-1.1992,-1.1971,-1.201,-1.2253,-1.2439,-1.2474,-1.16,-1.0823,-1.015,-0.9282,-0.834,-0.7827,-0.779,-0.7724,-0.7707,-0.7894,-0.81,-0.8294,-0.8809,-0.9242,-0.9619,-1.0304,-1.0948,-1.1101,-1.1554,-1.1808,-1.1804,-1.1811,-1.1819,-1.1911,-1.2204,-1.2599,-1.2884,-1.3018,-1.3201,-1.342,-1.3485,-1.354,-1.3594,-1.3739,-1.4079,-1.4885,-1.5652,-1.6449,-1.7192,-1.7924,-1.8178,-1.813,-1.8023,-1.7943,-1.7816,-1.7698,-1.7507,-1.7426,-1.7284,-1.7146,-1.7134,-1.7489,-1.771,-1.7432,-1.737,-1.7327,-1.6987,-1.6508,-1.6224,-1.6164,-1.6035,-1.5635,-1.4936,-1.463,-1.4574,-1.4589,-1.472,-1.4717,-1.46,-1.4519,-1.4484,-1.4402,-1.4453,-1.4494,-1.4546,-1.4515,-1.449,-1.4384,-1.4294,-1.4113,-1.4229,-1.4163,-1.4155,-1.4157,-1.4238,-1.4291,-1.4377,-1.448,-1.4598,-1.1568,-1.1382,-1.1692,-1.1819,-1.1848,-1.1952,-1.2044,-1.2073,-1.1869,-1.1883,-1.1848,-1.1681,-1.1685,-1.163,-1.1641,-1.1608,-1.1619,-1.163,-1.1696,-1.1696,-1.1696,-1.1685,-1.1696,-1.1804,-1.1991,-1.229,-1.1401,-1.0633,-1.0039,-0.9045,-0.8587,-0.7963,-0.7961,-0.802,-0.8004,-0.8389,-0.8706,-0.8781,-0.9406,-0.9898,-1.0295,-1.0798,-1.1272,-1.1633,-1.1731,-1.1808,-1.1808,-1.1808,-1.1808,-1.1808,-1.1808,-1.2088,-1.2469,-1.266,-1.2851,-1.3157,-1.3235,-1.3447,-1.3642,-1.3817,-1.4217,-1.4977,-1.5678,-1.6469,-1.7209,-1.759,-1.7708,-1.7625,-1.7481,-1.732,-1.7043,-1.7109,-1.706,-1.698,-1.6934,-1.6909,-1.6871,-1.6845,-1.6858,-1.6977,-1.6981,-1.6964,-1.6922,-1.6647,-1.6385,-1.6148,-1.6028,-1.5766,-1.5093,-1.4683,-1.4754,-1.4783,-1.4962,-1.4854,-1.4724,-1.4558,-1.4518,-1.4491,-1.4612,-1.4762,-1.4797,-1.4748,-1.4699,-1.4812,-1.4732,-1.4525,-1.4452,-1.458,-1.4471,-1.4157,-1.4292,-1.4691,-1.4626,-1.4387,-1.4467,-1.1197,-1.1152,-1.1396,-1.1512,-1.1597,-1.1808,-1.1938,-1.198,-1.1808,-1.1787,-1.1783,-1.1674,-1.1553,-1.1564,-1.1593,-1.1586,-1.1531,-1.152,-1.1546,-1.1553,-1.1553,-1.1546,-1.1542,-1.156,-1.1717,-1.185,-1.1523,-1.115,-1.0728,-1.0364,-0.9342,-0.8737,-0.8892,-0.8929,-0.8719,-0.9051,-0.9331,-0.9268,-0.9716,-0.9981,-1.0182,-1.0664,-1.124,-1.1681,-1.1765,-1.1787,-1.1805,-1.1816,-1.1808,-1.1808,-1.1816,-1.2262,-1.2773,-1.2785,-1.2752,-1.2898,-1.3192,-1.3542,-1.3858,-1.4148,-1.5003,-1.5955,-1.6273,-1.6577,-1.7107,-1.7264,-1.7255,-1.7158,-1.7089,-1.701,-1.7005,-1.6858,-1.6828,-1.6725,-1.6594,-1.6528,-1.6355,-1.6254,-1.6295,-1.6514,-1.6586,-1.6599,-1.6506,-1.6448,-1.6281,-1.6156,-1.6173,-1.6016,-1.5598,-1.5308,-1.526,-1.528,-1.5318,-1.5097,-1.4854,-1.4668,-1.4528,-1.4415,-1.4516,-1.4829,-1.4873,-1.4875,-1.4916,-1.5128,-1.508,-1.4838,-1.4853,-1.494,-1.4947,-1.4748,-1.4968,-1.5202,-1.4982,-1.4736,-1.4411,-1.1015,-1.092,-1.1148,-1.1267,-1.1313,-1.1415,-1.1512,-1.1553,-1.1411,-1.1354,-1.1332,-1.1222,-1.1141,-1.1122,-1.1134,-1.1168,-1.1226,-1.1267,-1.1302,-1.1332,-1.1336,-1.1336,-1.1354,-1.1362,-1.1377,-1.1445,-1.1472,-1.1313,-1.0795,-1.0279,-0.9853,-0.9408,-0.9475,-0.9409,-0.932,-0.9725,-0.9936,-0.9942,-1.0179,-1.0445,-1.0545,-1.1021,-1.1386,-1.1604,-1.174,-1.1765,-1.1857,-1.2205,-1.2321,-1.2411,-1.265,-1.3039,-1.3277,-1.3402,-1.3348,-1.3475,-1.3663,-1.3896,-1.4186,-1.4437,-1.5018,-1.5923,-1.6131,-1.6467,-1.6922,-1.706,-1.6888,-1.6763,-1.6496,-1.6429,-1.6409,-1.6353,-1.6168,-1.6071,-1.6051,-1.601,-1.5884,-1.5762,-1.5876,-1.6051,-1.5987,-1.5966,-1.5967,-1.596,-1.6025,-1.6109,-1.6213,-1.6099,-1.5891,-1.5673,-1.5417,-1.5065,-1.4962,-1.4985,-1.4817,-1.4799,-1.4694,-1.4568,-1.4563,-1.487,-1.5102,-1.5175,-1.5359,-1.5578,-1.5413,-1.4994,-1.5027,-1.5042,-1.5187,-1.5309,-1.5268,-1.5245,-1.5233,-1.507,-1.4736,-1.0789,-1.0613,-1.0892,-1.101,-1.1017,-1.108,-1.1157,-1.1132,-1.1003,-1.0956,-1.0944,-1.0801,-1.0736,-1.0718,-1.0729,-1.0789,-1.0885,-1.0956,-1.1038,-1.1097,-1.1139,-1.1115,-1.1111,-1.1104,-1.1155,-1.1213,-1.1132,-1.1027,-1.0813,-1.0445,-0.9991,-0.9821,-0.9819,-0.9882,-0.9942,-1.0303,-1.0551,-1.0703,-1.0835,-1.119,-1.1425,-1.1523,-1.1593,-1.1681,-1.1692,-1.1743,-1.1737,-1.2056,-1.2373,-1.2581,-1.2954,-1.3443,-1.3747,-1.3952,-1.4179,-1.441,-1.4419,-1.4456,-1.4633,-1.4796,-1.5262,-1.6068,-1.6003,-1.6303,-1.6483,-1.6594,-1.6531,-1.6346,-1.6094,-1.5863,-1.587,-1.5675,-1.5573,-1.5566,-1.5566,-1.5514,-1.5551,-1.5507,-1.547,-1.55,-1.5404,-1.5463,-1.558,-1.5668,-1.5762,-1.5776,-1.5883,-1.5786,-1.5597,-1.5455,-1.5139,-1.4585,-1.4418,-1.4608,-1.4708,-1.4936,-1.4906,-1.4921,-1.4914,-1.5103,-1.5352,-1.5563,-1.5645,-1.5514,-1.5255,-1.4902,-1.5011,-1.5246,-1.5499,-1.5582,-1.5397,-1.5296,-1.5315,-1.5263,-1.5046,-1.0198,-1.0198,-1.0528,-1.0656,-1.0693,-1.0951,-1.1092,-1.1076,-1.092,-1.0897,-1.0868,-1.0767,-1.0682,-1.0682,-1.0694,-1.0736,-1.0801,-1.0861,-1.0932,-1.101,-1.1057,-1.1099,-1.1111,-1.1111,-1.1085,-1.1085,-1.0951,-1.0895,-1.0784,-1.0879,-1.0681,-1.0289,-1.0638,-1.0966,-1.0443,-1.0683,-1.1023,-1.0973,-1.085,-1.0899,-1.1134,-1.1277,-1.1407,-1.1549,-1.1637,-1.1641,-1.1486,-1.1707,-1.1858,-1.2097,-1.2167,-1.2747,-1.3551,-1.3806,-1.4196,-1.4486,-1.4613,-1.4632,-1.5074,-1.5249,-1.5548,-1.6033,-1.6186,-1.6163,-1.6087,-1.5944,-1.5818,-1.5646,-1.5566,-1.5573,-1.5544,-1.55,-1.5477,-1.5448,-1.5396,-1.5418,-1.5418,-1.5254,-1.5216,-1.5163,-1.5141,-1.5262,-1.5403,-1.547,-1.5522,-1.5529,-1.5507,-1.544,-1.5242,-1.5023,-1.4528,-1.389,-1.3771,-1.3976,-1.4053,-1.4363,-1.4779,-1.4959,-1.4899,-1.496,-1.5007,-1.5052,-1.5205,-1.5052,-1.4834,-1.4969,-1.5271,-1.5549,-1.587,-1.5843,-1.5633,-1.5511,-1.5423,-1.5332,-1.5101,-1.0021,-1.0103,-1.0261,-1.0336,-1.0387,-1.0529,-1.0608,-1.0632,-1.0583,-1.0553,-1.0541,-1.0504,-1.0493,-1.0498,-1.0517,-1.0565,-1.0645,-1.0736,-1.0844,-1.0939,-1.1003,-1.1076,-1.1099,-1.1087,-1.1062,-1.092,-1.0813,-1.0601,-1.0631,-1.0721,-1.0705,-1.0567,-1.081,-1.0982,-1.0757,-1.0845,-1.0963,-1.0973,-1.0873,-1.0779,-1.0861,-1.0932,-1.102,-1.1152,-1.1214,-1.121,-1.1255,-1.1596,-1.179,-1.2139,-1.2539,-1.3235,-1.3825,-1.4155,-1.4541,-1.47,-1.4688,-1.4765,-1.4999,-1.5169,-1.5445,-1.5574,-1.5652,-1.5594,-1.5573,-1.5544,-1.5477,-1.5507,-1.5388,-1.5329,-1.5269,-1.5171,-1.5126,-1.511,-1.5171,-1.5156,-1.5141,-1.5049,-1.4949,-1.491,-1.4872,-1.4942,-1.5004,-1.5012,-1.5118,-1.5306,-1.5284,-1.5202,-1.4822,-1.4365,-1.3752,-1.298,-1.3061,-1.3309,-1.3324,-1.3481,-1.4157,-1.4316,-1.3934,-1.4018,-1.4151,-1.4246,-1.442,-1.4576,-1.4522,-1.4824,-1.536,-1.5598,-1.5673,-1.5767,-1.5874,-1.5469,-1.5059,-1.4807,-1.4563,-0.9796,-0.9957,-1.0053,-1.0104,-1.0155,-1.0154,-1.0218,-1.0287,-1.0274,-1.0274,-1.0293,-1.0325,-1.0325,-1.0325,-1.0368,-1.0418,-1.0479,-1.0583,-1.0724,-1.0844,-1.0932,-1.1017,-1.1022,-1.1015,-1.0892,-1.0694,-1.0534,-1.0361,-1.0223,-1.0223,-1.0392,-1.0564,-1.0664,-1.0793,-1.0878,-1.0745,-1.0686,-1.0781,-1.0746,-1.0724,-1.0743,-1.0729,-1.0777,-1.0813,-1.0813,-1.0825,-1.0937,-1.1235,-1.1574,-1.1928,-1.2409,-1.2863,-1.3248,-1.3698,-1.4022,-1.4195,-1.4238,-1.4438,-1.4613,-1.4767,-1.486,-1.4898,-1.4921,-1.5104,-1.5209,-1.5284,-1.5314,-1.5262,-1.5178,-1.5094,-1.5064,-1.491,-1.4894,-1.4879,-1.4855,-1.4824,-1.4777,-1.4739,-1.4669,-1.4574,-1.4504,-1.4401,-1.4465,-1.4497,-1.4678,-1.4994,-1.5047,-1.4956,-1.4498,-1.3898,-1.3378,-1.2744,-1.3107,-1.316,-1.274,-1.2905,-1.3498,-1.3636,-1.3253,-1.3133,-1.3299,-1.3475,-1.3629,-1.3801,-1.3961,-1.4023,-1.417,-1.4804,-1.537,-1.5187,-1.5007,-1.4845,-1.4554,-1.4244,-1.4081,-0.9235,-0.9575,-0.9861,-0.9995,-1.0034,-1.0084,-1.0142,-1.0212,-1.0205,-1.023,-1.0281,-1.0312,-1.03,-1.0312,-1.0312,-1.0349,-1.0418,-1.0479,-1.0609,-1.073,-1.0851,-1.0915,-1.0932,-1.0868,-1.0743,-1.0614,-1.0399,-1.0167,-0.9957,-0.9867,-1.0027,-1.0217,-1.0404,-1.0595,-1.0637,-1.0514,-1.0366,-1.0458,-1.0509,-1.0608,-1.0627,-1.0656,-1.0693,-1.0741,-1.0789,-1.0777,-1.056,-1.0667,-1.0836,-1.111,-1.1527,-1.1866,-1.2319,-1.2857,-1.3167,-1.326,-1.3547,-1.374,-1.393,-1.4442,-1.4813,-1.4796,-1.474,-1.4702,-1.4803,-1.4825,-1.4841,-1.4903,-1.491,-1.4886,-1.4848,-1.4801,-1.4793,-1.4793,-1.4777,-1.473,-1.4651,-1.4493,-1.4406,-1.4277,-1.4166,-1.4095,-1.4039,-1.4104,-1.4218,-1.4536,-1.4488,-1.4401,-1.4114,-1.3611,-1.3261,-1.2983,-1.3382,-1.3199,-1.236,-1.257,-1.3047,-1.2921,-1.2523,-1.2447,-1.2507,-1.2675,-1.2846,-1.2904,-1.3001,-1.2988,-1.305,-1.3622,-1.4052,-1.4173,-1.4086,-1.3788,-1.3564,-1.3279,-1.333,-0.9027,-0.9214,-0.9343,-0.9614,-1.0008,-1.0021,-1.0084,-1.0142,-1.0129,-1.0186,-1.023,-1.023,-1.0256,-1.0293,-1.0312,-1.0318,-1.0349,-1.0412,-1.0498,-1.0591,-1.0682,-1.0765,-1.0796,-1.0796,-1.0705,-1.0559,-1.033,-1.0167,-1.004,-0.9828,-0.9828,-1.0002,-1.0104,-1.023,-1.0273,-1.0317,-1.0223,-1.0103,-1.0148,-1.0205,-1.0205,-1.0217,-1.0236,-1.0248,-1.0261,-1.0254,-1.0198,-1.0236,-1.036,-1.0567,-1.0904,-1.1191,-1.1471,-1.2033,-1.2309,-1.2355,-1.2683,-1.2932,-1.332,-1.3876,-1.4225,-1.428,-1.4264,-1.4317,-1.4394,-1.4524,-1.4655,-1.4709,-1.4763,-1.4761,-1.4808,-1.4808,-1.4793,-1.4793,-1.473,-1.4636,-1.4486,-1.4277,-1.4092,-1.3931,-1.3865,-1.3808,-1.3775,-1.3752,-1.3891,-1.4039,-1.3941,-1.3825,-1.3568,-1.3363,-1.3029,-1.2771,-1.3056,-1.2745,-1.1899,-1.2146,-1.2567,-1.22,-1.1798,-1.1849,-1.1892,-1.1879,-1.2011,-1.2045,-1.2194,-1.2365,-1.2484,-1.2561,-1.2828,-1.323,-1.3018,-1.2563,-1.2374,-1.2328,-1.2415,-0.8726,-0.8814,-0.8836,-0.9243,-0.9822,-0.9848,-0.9899,-0.9957,-1.0046,-1.0123,-1.0193,-1.0193,-1.023,-1.0287,-1.0312,-1.0312,-1.0325,-1.0363,-1.0418,-1.0493,-1.0553,-1.0644,-1.0705,-1.0705,-1.062,-1.0522,-1.0436,-1.0298,-1.0021,-0.9886,-0.9815,-0.9769,-0.9769,-0.9905,-1.0053,-1.0129,-1.0078,-0.9938,-0.9886,-0.9886,-0.9912,-0.9912,-0.9925,-0.9938,-0.9957,-0.997,-0.9995,-1.0034,-1.0085,-1.0264,-1.0508,-1.0781,-1.1041,-1.1342,-1.1674,-1.1792,-1.1936,-1.2196,-1.267,-1.3372,-1.3733,-1.376,-1.3771,-1.3864,-1.4006,-1.4117,-1.4173,-1.4536,-1.4629,-1.4699,-1.4692,-1.4622,-1.4581,-1.4534,-1.4328,-1.4208,-1.4088,-1.3908,-1.3742,-1.3585,-1.3484,-1.3321,-1.3304,-1.3287,-1.3444,-1.3562,-1.3579,-1.3433,-1.3173,-1.2998,-1.2859,-1.2606,-1.2505,-1.1985,-1.1376,-1.1619,-1.1789,-1.1521,-1.1235,-1.1322,-1.1347,-1.1396,-1.1319,-1.1312,-1.1506,-1.1801,-1.1739,-1.1502,-1.1903,-1.2474,-1.2143,-1.1784,-1.1799,-1.1774,-1.1494,-0.8239,-0.841,-0.8484,-0.8879,-0.945,-0.9515,-0.9528,-0.9618,-0.9822,-0.9982,-1.0085,-1.0116,-1.018,-1.025,-1.0243,-1.0256,-1.0262,-1.0293,-1.0331,-1.0361,-1.0442,-1.0559,-1.0614,-1.0597,-1.0571,-1.054,-1.0472,-1.0298,-0.9976,-0.9963,-0.9815,-0.9651,-0.9651,-0.9697,-0.9815,-0.9873,-0.9899,-0.9886,-0.9886,-0.9873,-0.9886,-0.9886,-0.9886,-0.9886,-0.9886,-0.9912,-0.9912,-0.9951,-0.9989,-1.0065,-1.0116,-1.027,-1.0373,-1.0819,-1.11,-1.118,-1.1602,-1.1875,-1.21,-1.3204,-1.3419,-1.3198,-1.3152,-1.3242,-1.3303,-1.3449,-1.368,-1.4047,-1.4319,-1.4411,-1.4379,-1.4301,-1.4273,-1.4199,-1.399,-1.3835,-1.3719,-1.3612,-1.3461,-1.3269,-1.2972,-1.2745,-1.2739,-1.2791,-1.2959,-1.3085,-1.3171,-1.3057,-1.2849,-1.2779,-1.2706,-1.2663,-1.2453,-1.2087,-1.1599,-1.1127,-1.0972,-1.0751,-1.0846,-1.1148,-1.1286,-1.1399,-1.1205,-1.0806,-1.087,-1.1219,-1.0776,-1.0282,-1.0931,-1.1524,-1.1479,-1.1266,-1.1283,-1.1242,-1.1013,-0.8095,-0.8382,-0.8193,-0.8358,-0.8775,-0.901,-0.9137,-0.9201,-0.9308,-0.9415,-0.9546,-0.9619,-0.9808,-0.9937,-1.0065,-1.0097,-1.0104,-1.0262,-1.028,-1.0142,-1.0268,-1.0399,-1.0461,-1.0498,-1.0534,-1.0632,-1.0582,-1.0459,-1.0324,-1.0135,-0.9944,-0.9782,-0.9604,-0.9638,-0.971,-0.9756,-0.9769,-0.9828,-0.9828,-0.9841,-0.9873,-0.9886,-0.9886,-0.9886,-0.9886,-0.9886,-0.9886,-0.9938,-0.9963,-0.997,-1.0008,-1.0053,-1.0097,-1.0483,-1.0476,-1.0515,-1.0793,-1.1022,-1.1447,-1.2197,-1.2531,-1.2438,-1.245,-1.2501,-1.255,-1.3048,-1.3289,-1.3478,-1.3761,-1.3871,-1.3957,-1.3898,-1.3848,-1.3868,-1.3735,-1.3579,-1.3461,-1.3342,-1.3206,-1.2972,-1.2709,-1.2692,-1.2692,-1.2692,-1.2814,-1.2843,-1.2931,-1.2913,-1.2756,-1.2756,-1.2726,-1.2755,-1.2621,-1.2326,-1.1923,-1.1366,-1.0953,-1.0815,-1.1069,-1.1465,-1.1535,-1.148,-1.1157,-1.0794,-1.0682,-1.0565,-1.0326,-1.0142,-1.0257,-1.0504,-1.0732,-1.0852,-1.0859,-1.0822,-1.0699,-0.7932,-0.8118,-0.7941,-0.7984,-0.8246,-0.859,-0.883,-0.8976,-0.9003,-0.9066,-0.9205,-0.932,-0.9434,-0.9619,-0.9757,-0.9828,-0.9841,-0.9982,-1.0065,-0.9912,-1.0008,-1.0148,-1.0268,-1.0318,-1.0374,-1.0522,-1.0545,-1.0453,-1.023,-1.0148,-0.9925,-0.9703,-0.9611,-0.9591,-0.9624,-0.9658,-0.9723,-0.9756,-0.9769,-0.9782,-0.9802,-0.9815,-0.9828,-0.9854,-0.9867,-0.9867,-0.9899,-0.9938,-0.997,-0.9995,-1.0008,-1.004,-1.0065,-1.0072,-1.0078,-1.011,-1.0187,-1.0431,-1.0839,-1.1087,-1.1333,-1.1334,-1.1536,-1.175,-1.1838,-1.2096,-1.2354,-1.262,-1.3,-1.307,-1.3081,-1.3058,-1.3013,-1.3,-1.2918,-1.2744,-1.2881,-1.2744,-1.2889,-1.2665,-1.2692,-1.2692,-1.2692,-1.2692,-1.2739,-1.2721,-1.2709,-1.2692,-1.2692,-1.2709,-1.2709,-1.272,-1.2566,-1.2167,-1.1862,-1.1517,-1.116,-1.0912,-1.1146,-1.1495,-1.1603,-1.1514,-1.1144,-1.0762,-1.0514,-1.0303,-1.0186,-1.0129,-1.0244,-1.0351,-1.0505,-1.0542,-1.0463,-1.0527,-1.0586,-0.7725,-0.7681,-0.7744,-0.7768,-0.7874,-0.8259,-0.8623,-0.8935,-0.8949,-0.9009,-0.9143,-0.9097,-0.9172,-0.9287,-0.9409,-0.9469,-0.9521,-0.9632,-0.9671,-0.9691,-0.9717,-0.988,-0.9976,-1.0002,-1.0148,-1.0249,-1.028,-1.0179,-0.995,-0.988,-0.9723,-0.9578,-0.9531,-0.9517,-0.9551,-0.9611,-0.9658,-0.9684,-0.9697,-0.9723,-0.9742,-0.9736,-0.9756,-0.9782,-0.9795,-0.9828,-0.9867,-0.9899,-0.9899,-0.9899,-0.9899,-0.9938,-0.9957,-0.9983,-1.0034,-1.0053,-1.0053,-1.0167,-1.0155,-1.0327,-1.0354,-1.0501,-1.0806,-1.1042,-1.1185,-1.1232,-1.1475,-1.1636,-1.1877,-1.1854,-1.1854,-1.1763,-1.1687,-1.1669,-1.1637,-1.1731,-1.2004,-1.217,-1.2423,-1.2499,-1.2643,-1.2692,-1.2692,-1.2692,-1.2656,-1.2692,-1.2692,-1.2692,-1.2692,-1.2692,-1.2685,-1.266,-1.2398,-1.1919,-1.165,-1.1585,-1.1211,-1.0914,-1.0999,-1.1278,-1.1401,-1.1435,-1.1054,-1.0647,-1.0252,-1.0058,-1.0104,-1.0154,-1.0237,-1.0331,-1.0412,-1.05,-1.0512,-1.0711,-1.0811,-0.7008,-0.7004,-0.7261,-0.7363,-0.7432,-0.7826,-0.8104,-0.8207,-0.8299,-0.8391,-0.8439,-0.8572,-0.8756,-0.8883,-0.9016,-0.9064,-0.9151,-0.9255,-0.9319,-0.9359,-0.9421,-0.9593,-0.9711,-0.9782,-0.9912,-0.9995,-1.0002,-0.9931,-0.9821,-0.971,-0.9598,-0.9504,-0.9491,-0.9491,-0.9504,-0.9551,-0.9578,-0.9611,-0.9624,-0.9657,-0.9683,-0.9684,-0.971,-0.973,-0.973,-0.9782,-0.9828,-0.9854,-0.9854,-0.9828,-0.988,-0.9899,-0.9841,-0.9886,-0.9925,-0.9795,-0.9899,-1.0027,-0.9796,-0.9919,-0.9995,-0.9866,-1.008,-1.0179,-1.0371,-1.0592,-1.075,-1.0831,-1.0931,-1.0995,-1.0966,-1.0879,-1.087,-1.0905,-1.0965,-1.1225,-1.154,-1.1887,-1.2112,-1.2324,-1.2484,-1.2538,-1.2562,-1.2615,-1.2597,-1.2656,-1.2692,-1.2692,-1.2692,-1.2692,-1.2697,-1.2655,-1.2494,-1.2082,-1.1886,-1.179,-1.132,-1.0959,-1.1107,-1.114,-1.1102,-1.1067,-1.0858,-1.0583,-1.0242,-1.0148,-1.0174,-1.0224,-1.0281,-1.0294,-1.0356,-1.0474,-1.059,-1.0712,-1.0851,-0.6684,-0.6725,-0.6918,-0.7072,-0.7255,-0.7608,-0.7783,-0.786,-0.8005,-0.8083,-0.8121,-0.8267,-0.8393,-0.8514,-0.8643,-0.872,-0.872,-0.8902,-0.8974,-0.8982,-0.912,-0.9274,-0.94,-0.9492,-0.9566,-0.9665,-0.9698,-0.9613,-0.9586,-0.9539,-0.9452,-0.9452,-0.9472,-0.9472,-0.9472,-0.9485,-0.9531,-0.9551,-0.9564,-0.9578,-0.9598,-0.9638,-0.9664,-0.9697,-0.9697,-0.9743,-0.9815,-0.9828,-0.9841,-0.9828,-0.9873,-0.9873,-0.9796,-0.979,-0.9725,-0.9593,-0.9534,-0.9522,-0.939,-0.9527,-0.9573,-0.956,-0.9527,-0.9631,-0.977,-0.9973,-1.0008,-1.006,-1.017,-1.0235,-1.0167,-1.014,-1.0243,-1.0346,-1.0603,-1.0849,-1.1238,-1.1618,-1.1872,-1.2098,-1.2222,-1.2276,-1.2353,-1.2431,-1.2544,-1.2656,-1.2692,-1.2692,-1.2692,-1.2692,-1.2709,-1.2697,-1.2584,-1.2376,-1.2181,-1.1986,-1.1715,-1.1426,-1.141,-1.1368,-1.1067,-1.0798,-1.0669,-1.0496,-1.0276,-1.0264,-1.0296,-1.0282,-1.03,-1.0312,-1.0325,-1.0387,-1.0461,-1.0523,-1.067,-0.6503,-0.6559,-0.6652,-0.6895,-0.7225,-0.7554,-0.7715,-0.7725,-0.7953,-0.8078,-0.8082,-0.8144,-0.8215,-0.829,-0.8384,-0.8416,-0.8444,-0.8561,-0.8642,-0.8581,-0.8715,-0.8894,-0.9061,-0.9092,-0.9276,-0.9344,-0.9351,-0.9347,-0.9334,-0.9347,-0.9387,-0.9394,-0.9445,-0.9445,-0.94,-0.9426,-0.9452,-0.9485,-0.9498,-0.9498,-0.9504,-0.9531,-0.9564,-0.9664,-0.9684,-0.9723,-0.9815,-0.9867,-0.9886,-0.9873,-0.9873,-0.9873,-0.9816,-0.9653,-0.9549,-0.9409,-0.9282,-0.9101,-0.906,-0.9147,-0.9172,-0.9199,-0.9247,-0.9234,-0.93,-0.9511,-0.9594,-0.9536,-0.9646,-0.9548,-0.9471,-0.9508,-0.9602,-0.9805,-1.0041,-1.0393,-1.083,-1.1227,-1.1579,-1.176,-1.1853,-1.1902,-1.1981,-1.2053,-1.2095,-1.2395,-1.2467,-1.2449,-1.2579,-1.2579,-1.265,-1.2668,-1.2539,-1.2385,-1.2252,-1.2091,-1.2136,-1.1986,-1.1835,-1.1486,-1.1095,-1.0801,-1.0511,-1.0537,-1.0599,-1.0444,-1.0425,-1.0502,-1.0508,-1.0331,-1.0324,-1.0312,-1.0368,-1.0456,-1.0498,-0.5462,-0.555,-0.6295,-0.6833,-0.7225,-0.7559,-0.7695,-0.7715,-0.7807,-0.7904,-0.7976,-0.8077,-0.8154,-0.8201,-0.823,-0.8253,-0.8276,-0.8305,-0.8324,-0.8404,-0.8483,-0.8631,-0.885,-0.893,-0.9071,-0.9127,-0.9143,-0.9137,-0.9205,-0.9266,-0.9334,-0.9334,-0.9372,-0.9353,-0.9334,-0.9353,-0.938,-0.942,-0.942,-0.9452,-0.9491,-0.9491,-0.9531,-0.9551,-0.9564,-0.9598,-0.9671,-0.9697,-0.971,-0.9723,-0.9795,-0.9841,-0.9873,-0.962,-0.9369,-0.9174,-0.9079,-0.888,-0.8737,-0.8773,-0.8847,-0.8789,-0.8798,-0.877,-0.8866,-0.9159,-0.9259,-0.919,-0.9081,-0.8938,-0.8901,-0.8967,-0.9091,-0.9324,-0.9522,-0.9965,-1.0413,-1.0827,-1.1234,-1.1347,-1.1425,-1.1516,-1.1571,-1.1645,-1.1682,-1.1719,-1.1756,-1.1829,-1.215,-1.2258,-1.2455,-1.2484,-1.2387,-1.2265,-1.2226,-1.2272,-1.2343,-1.2219,-1.202,-1.1619,-1.1202,-1.0891,-1.069,-1.0921,-1.099,-1.0925,-1.0905,-1.0964,-1.0906,-1.0716,-1.0525,-1.0597,-1.0542,-1.0596,-1.0537,-0.5182,-0.5233,-0.6173,-0.6671,-0.6891,-0.7441,-0.7637,-0.7525,-0.7671,-0.7797,-0.7884,-0.802,-0.8131,-0.8154,-0.814,-0.8178,-0.8192,-0.8154,-0.8206,-0.8272,-0.8361,-0.8449,-0.8609,-0.8753,-0.8864,-0.8927,-0.9026,-0.9067,-0.9102,-0.9164,-0.9205,-0.9259,-0.9266,-0.9286,-0.9272,-0.9286,-0.9307,-0.9348,-0.9354,-0.9405,-0.9482,-0.9502,-0.9523,-0.9517,-0.9544,-0.9589,-0.9611,-0.9651,-0.9671,-0.9684,-0.973,-0.9652,-0.958,-0.9343,-0.9062,-0.8855,-0.8715,-0.8628,-0.8479,-0.8485,-0.8578,-0.8493,-0.8469,-0.8505,-0.8556,-0.882,-0.8935,-0.8878,-0.8798,-0.8687,-0.8829,-0.8917,-0.9137,-0.9382,-0.9447,-0.9687,-1.0039,-1.0387,-1.0598,-1.0676,-1.0783,-1.0911,-1.1024,-1.1242,-1.1311,-1.159,-1.1529,-1.1523,-1.1768,-1.1962,-1.2156,-1.2336,-1.2266,-1.2483,-1.2698,-1.2668,-1.2612,-1.2439,-1.2216,-1.2105,-1.182,-1.1209,-1.0895,-1.1184,-1.1425,-1.1524,-1.1517,-1.1545,-1.1582,-1.1491,-1.1196,-1.0937,-1.0868,-1.081,-1.0781,-0.5218,-0.524,-0.6113,-0.6421,-0.6418,-0.7214,-0.7461,-0.7265,-0.7525,-0.772,-0.7807,-0.7976,-0.8059,-0.8059,-0.8073,-0.812,-0.8144,-0.8125,-0.814,-0.8192,-0.8281,-0.8365,-0.8449,-0.8547,-0.8673,-0.8789,-0.8869,-0.8916,-0.895,-0.9015,-0.9077,-0.9159,-0.9205,-0.9251,-0.9224,-0.9238,-0.9259,-0.9274,-0.9305,-0.9385,-0.9451,-0.9536,-0.9563,-0.9604,-0.9699,-0.9743,-0.9784,-0.9847,-0.984,-0.9919,-0.9982,-0.9882,-0.966,-0.9451,-0.9129,-0.891,-0.8758,-0.8586,-0.8373,-0.8407,-0.8328,-0.8247,-0.8283,-0.8335,-0.8411,-0.856,-0.8698,-0.8745,-0.8669,-0.866,-0.8802,-0.8991,-0.9243,-0.9383,-0.9415,-0.9512,-0.9806,-1.0083,-1.0142,-1.0201,-1.0312,-1.0462,-1.0597,-1.0812,-1.0997,-1.1292,-1.1418,-1.1486,-1.156,-1.1658,-1.1823,-1.2078,-1.2207,-1.2512,-1.2824,-1.287,-1.2685,-1.268,-1.2491,-1.256,-1.2383,-1.1566,-1.1217,-1.1545,-1.1754,-1.1947,-1.2065,-1.2103,-1.2143,-1.2145,-1.1882,-1.1542,-1.1366,-1.1295,-1.1155,-0.4948,-0.5074,-0.5751,-0.6044,-0.6156,-0.6833,-0.7132,-0.7187,-0.7462,-0.7656,-0.7739,-0.7802,-0.787,-0.7922,-0.7942,-0.7966,-0.8014,-0.8029,-0.8087,-0.8116,-0.823,-0.8313,-0.8393,-0.8474,-0.8553,-0.8628,-0.8698,-0.872,-0.8767,-0.8825,-0.8913,-0.9032,-0.9114,-0.9141,-0.9127,-0.9172,-0.9251,-0.9296,-0.9409,-0.953,-0.9857,-0.9858,-0.9678,-0.9846,-1.017,-1.0205,-1.0296,-1.0493,-1.0708,-1.0783,-1.0579,-1.0361,-1.0021,-0.9666,-0.9391,-0.9172,-0.9008,-0.8822,-0.8694,-0.8664,-0.8603,-0.8346,-0.8395,-0.8402,-0.8544,-0.8783,-0.8926,-0.9058,-0.8983,-0.8868,-0.8978,-0.9202,-0.9436,-0.944,-0.9464,-0.9671,-0.9938,-1.0093,-1.0205,-1.0225,-1.0259,-1.0356,-1.0395,-1.051,-1.0544,-1.0745,-1.0778,-1.0867,-1.1169,-1.1319,-1.1473,-1.1713,-1.1969,-1.2114,-1.2252,-1.2638,-1.2618,-1.2679,-1.2684,-1.2582,-1.2277,-1.1654,-1.1526,-1.1905,-1.2171,-1.2374,-1.2493,-1.2596,-1.2598,-1.2565,-1.2449,-1.2231,-1.2034,-1.1895,-1.1849]},{"header":{"parameterUnit":"m.s-1","parameterCategory":1,"la1":31.0,"la2":29.5877,"lo1":-88.7671,"lo2":-86.6584,"dy":0.0162,"dx":0.0185,"nx":115,"ny":88,"refTime":"2026-03-24T00:00:00:Z","depth":0,"parameterNumber":3,"parameterNumberName":"V-component_of_WINDS"},"data":[0.0,0.0,0.0,0.0,0.0,0.0,0.0,0.0,0.0,0.0,0.0,0.0,0.0,0.0,0.0,0.0,0.0,0.0,0.0,0.0,0.0,0.0,0.0,0.0,0.0,0.0,0.0,0.0,0.0,0.0,0.0,0.0,0.0,0.0,0.0,0.0,0.0,0.0,0.0,0.0,0.0,0.0,0.0,0.0,0.0,0.0,0.0,0.0,0.0,0.0,0.0,0.0,0.0,0.0,0.0,0.0,0.0,0.0,0.0,0.0,0.0,0.0,0.0,0.0,0.0,0.0,0.0,0.0,0.0,0.0,0.0,0.0,0.0,0.0,0.0,0.0,0.0,0.0,0.0,0.0,0.0,0.0,0.0,0.0,0.0,0.0,0.0,0.0,0.0,0.0,0.0,0.0,0.0,0.0,0.0,0.0,0.0,0.0,0.0,0.0,0.0,0.0,0.0,0.0,0.0,0.0,0.0,0.0,0.0,0.0,0.0,0.0,0.0,0.0,0.0,0.0,0.0,0.0,0.0,0.0,0.0,0.0,0.0,0.0,0.0,0.0,0.0,0.0,0.0,0.0,0.0,0.0,0.0,0.0,0.0,0.0,0.0,0.0,0.0,0.0,0.0,0.0,0.0,0.0,0.0,0.0,0.0,0.0,0.0,0.0,0.0,0.0,0.0,0.0,0.0,0.0,0.0,0.0,0.0,0.0,0.0,0.0,0.0,0.0,0.0,0.0,0.0,0.0,0.0,0.0,0.0,0.0,0.0,0.0,0.0,0.0,0.0,0.0,0.0,0.0,0.0,0.0,0.0,0.0,0.0,0.0,0.0,0.0,0.0,0.0,0.0,0.0,0.0,0.0,0.0,0.0,0.0,0.0,0.0,0.0,0.0,0.0,0.0,0.0,0.0,0.0,0.0,0.0,0.0,0.0,0.0,0.0,0.0,0.0,0.0,0.0,0.0,0.0,0.0,0.0,0.0,0.0,0.0,0.0,0.0,0.0,0.0,0.0,0.0,0.0,0.0,0.0,0.0,0.0,0.0,0.0,0.0,0.0,0.0,0.0,0.0,0.0,0.0,0.0,0.0,0.0,0.0,0.0,0.0,0.0,0.0,0.0,0.0,0.0,0.0,0.0,0.0,0.0,0.0,0.0,0.0,0.0,0.0,0.0,0.0,0.0,0.0,0.0,0.0,0.0,0.0,0.0,0.0,0.0,0.0,0.0,0.0,0.0,0.0,0.0,0.0,0.0,0.0,0.0,0.0,0.0,0.0,0.0,0.0,0.0,0.0,0.0,0.0,0.0,0.0,0.0,0.0,0.0,0.0,0.0,0.0,0.0,0.0,0.0,0.0,0.0,0.0,0.0,0.0,0.0,0.0,0.0,0.0,0.0,0.0,0.0,0.0,0.0,0.0,0.0,0.0,0.0,0.0,0.0,0.0,0.0,0.0,0.0,0.0,0.0,0.0,0.0,0.0,0.0,0.0,0.0,0.0,0.0,0.0,0.0,0.0,0.0,0.0,0.0,0.0,0.0,0.0,0.0,0.0,0.0,0.0,0.0,0.0,0.0,0.0,0.0,0.0,0.0,0.0,0.0,0.0,0.0,0.0,0.0,0.0,0.0,0.0,0.0,0.0,0.0,0.0,0.0,0.0,0.0,0.0,0.0,0.0,0.0,0.0,0.0,0.0,0.0,0.0,0.0,0.0,0.0,0.0,0.0,0.0,0.0,0.0,0.0,0.0,0.0,0.0,0.0,0.0,0.0,0.0,0.0,0.0,0.0,0.0,0.0,0.0,0.0,0.0,0.0,0.0,0.0,0.0,0.0,0.0,0.0,0.0,0.0,0.0,0.0,0.0,0.0,0.0,0.0,0.0,0.0,0.0,0.0,0.0,0.0,0.0,0.0,0.0,0.0,0.0,0.0,0.0,0.0,0.0,0.0,0.0,0.0,0.0,0.0,0.0,0.0,0.0,0.0,0.0,0.0,0.0,0.0,0.0,0.0,0.0,0.0,0.0,0.0,0.0,0.0,0.0,0.0,0.0,0.0,0.0,0.0,0.0,0.0,0.0,0.0,0.0,0.0,0.0,0.0,0.0,0.0,0.0,0.0,0.0,0.0,0.0,0.0,0.0,0.0,0.0,0.0,0.0,0.0,0.0,0.0,0.0,0.0,0.0,0.0,0.0,0.0,0.0,0.0,0.0,0.0,0.0,0.0,0.0,0.0,0.0,0.0,0.0,0.0,0.0,0.0,0.0,0.0,0.0,0.0,0.0,0.0,0.0,0.0,0.0,0.0,0.0,0.0,0.0,0.0,0.0,0.0,0.0,0.0,0.0,0.0,0.0,0.0,0.0,0.0,0.0,0.0,0.0,0.0,0.0,0.0,0.0,0.0,0.0,0.0,0.0,0.0,0.0,0.0,0.0,0.0,0.0,0.0,0.0,0.0,0.0,0.0,0.0,0.0,0.0,0.0,0.0,0.0,0.0,0.0,0.0,0.0,0.0,0.0,0.0,0.0,0.0,0.0,0.0,0.0,0.0,0.0,0.0,0.0,0.0,0.0,0.0,0.0,0.0,0.0,0.0,0.0,0.0,0.0,0.0,0.0,0.0,0.0,0.0,0.0,0.0,0.0,0.0,0.0,0.0,0.0,0.0,0.0,0.0,0.0,0.0,0.0,0.0,0.0,0.0,0.0,0.0,0.0,0.0,0.0,0.0,0.0,0.0,0.0,0.0,0.0,0.0,0.0,0.0,0.0,0.0,0.0,0.0,0.0,0.0,0.0,0.0,0.0,0.0,0.0,0.0,0.0,0.0,0.0,0.0,0.0,0.0,0.0,0.0,0.0,0.0,0.0,0.0,0.0,0.0,0.0,0.0,0.0,0.0,0.0,0.0,0.0,0.0,0.0,0.0,0.0,0.0,0.0,0.0,0.0,0.0,0.0,0.0,0.0,0.0,0.0,0.0,0.0,0.0,0.0,0.0,0.0,0.0,0.0,0.0,0.0,0.0,0.0,0.0,0.0,0.0,0.0,0.0,0.0,0.0,0.0,0.0,0.0,0.0,0.0,0.0,0.0,0.0,0.0,0.0,0.0,0.0,0.0,0.0,0.0,0.0,0.0,0.0,0.0,0.0,0.0,0.0,0.0,0.0,0.0,0.0,0.0,0.0,0.0,0.0,0.0,0.0,0.0,0.0,0.0,0.0,0.0,0.0,0.0,0.0,0.0,0.0,0.0,0.0,0.0,0.0,0.0,0.0,0.0,0.0,0.0,0.0,0.0,0.0,0.0,0.0,0.0,0.0,0.0,0.0,0.0,0.0,0.0,0.0,0.0,0.0,0.0,0.0,0.0,0.0,0.0,0.0,0.0,0.0,0.0,0.0,0.0,0.0,0.0,0.0,0.0,0.0,0.0,0.0,0.0,0.0,0.0,0.0,0.0,0.0,0.0,0.0,0.0,0.0,0.0,0.0,0.0,0.0,0.0,0.0,0.0,0.0,0.0,0.0,0.0,0.0,0.0,0.0,0.0,0.0,0.0,0.0,0.0,0.0,0.0,0.0,0.0,0.0,0.0,0.0,0.0,0.0,0.0,0.0,0.0,0.0,0.0,0.0,0.0,0.0,0.0,0.0,0.0,0.0,0.0,0.0,0.0,0.0,0.0,0.0,0.0,0.0,0.0,0.0,0.0,0.0,0.0,0.0,0.0,0.0,0.0,0.0,0.0,0.0,0.0,0.0,0.0,0.0,0.0,0.0,0.0,0.0,0.0,0.0,0.0,0.0,0.0,0.0,0.0,0.0,0.0,0.0,0.0,0.0,0.0,0.0,0.0,0.0,0.0,0.0,0.0,0.0,0.0,0.0,0.0,0.0,0.0,0.0,0.0,0.0,0.0,0.0,0.0,0.0,0.0,0.0,0.0,0.0,0.0,0.0,0.0,0.0,0.0,0.0,0.0,0.0,0.0,0.0,0.0,0.0,0.0,0.0,0.0,0.0,0.0,0.0,0.0,0.0,0.0,0.0,0.0,0.0,0.0,0.0,0.0,0.0,0.0,0.0,0.0,0.0,0.0,0.0,0.0,0.0,0.0,0.0,0.0,0.0,0.0,0.0,0.0,0.0,0.0,0.0,0.0,0.0,0.0,0.0,0.0,0.0,0.0,0.0,0.0,0.0,0.0,0.0,0.0,0.0,0.0,0.0,0.0,0.0,0.0,0.0,0.0,0.0,0.0,0.0,0.0,0.0,0.0,0.0,0.0,0.0,0.0,0.0,0.0,0.0,0.0,-1.9918,0.0,0.0,0.0,0.0,0.0,0.0,0.0,0.0,0.0,0.0,0.0,0.0,0.0,0.0,0.0,0.0,0.0,0.0,0.0,0.0,0.0,0.0,0.0,0.0,0.0,0.0,0.0,0.0,0.0,0.0,0.0,0.0,0.0,0.0,0.0,0.0,0.0,0.0,0.0,0.0,0.0,0.0,0.0,0.0,0.0,0.0,0.0,0.0,0.0,0.0,0.0,0.0,0.0,0.0,0.0,0.0,0.0,0.0,0.0,0.0,0.0,0.0,0.0,0.0,0.0,0.0,0.0,0.0,0.0,0.0,0.0,0.0,0.0,0.0,0.0,0.0,0.0,0.0,0.0,0.0,0.0,0.0,0.0,0.0,0.0,0.0,0.0,0.0,0.0,0.0,0.0,0.0,0.0,0.0,0.0,0.0,0.0,0.0,0.0,0.0,0.0,0.0,0.0,0.0,0.0,0.0,0.0,0.0,0.0,0.0,-2.1468,-2.1146,-2.1036,-2.0468,-1.9394,0.0,0.0,0.0,0.0,0.0,0.0,0.0,0.0,0.0,0.0,0.0,0.0,0.0,0.0,0.0,0.0,0.0,0.0,0.0,0.0,0.0,0.0,0.0,0.0,0.0,0.0,0.0,0.0,0.0,0.0,0.0,0.0,0.0,0.0,0.0,0.0,0.0,0.0,0.0,0.0,0.0,0.0,0.0,0.0,0.0,0.0,0.0,0.0,0.0,0.0,0.0,0.0,0.0,0.0,0.0,0.0,0.0,0.0,0.0,0.0,0.0,0.0,0.0,0.0,0.0,0.0,0.0,0.0,0.0,0.0,0.0,0.0,0.0,0.0,0.0,0.0,0.0,0.0,0.0,0.0,0.0,0.0,0.0,0.0,0.0,0.0,0.0,0.0,0.0,0.0,0.0,0.0,0.0,0.0,0.0,0.0,0.0,0.0,0.0,0.0,0.0,0.0,0.0,0.0,0.0,0.0,0.0,0.0,0.0,0.0,0.0,0.0,-2.0459,-2.0019,-1.896,0.0,0.0,0.0,0.0,0.0,0.0,0.0,0.0,0.0,0.0,0.0,0.0,0.0,0.0,0.0,0.0,0.0,0.0,0.0,0.0,0.0,0.0,0.0,0.0,0.0,0.0,0.0,0.0,0.0,0.0,0.0,0.0,0.0,0.0,0.0,0.0,0.0,0.0,0.0,0.0,0.0,0.0,0.0,0.0,0.0,0.0,0.0,0.0,0.0,0.0,0.0,0.0,0.0,0.0,0.0,0.0,0.0,0.0,0.0,0.0,0.0,0.0,0.0,0.0,0.0,0.0,0.0,0.0,0.0,0.0,0.0,0.0,0.0,0.0,0.0,0.0,0.0,0.0,0.0,0.0,0.0,0.0,0.0,0.0,0.0,0.0,0.0,0.0,0.0,0.0,0.0,0.0,0.0,0.0,0.0,0.0,0.0,0.0,0.0,0.0,0.0,0.0,0.0,0.0,0.0,0.0,0.0,0.0,0.0,0.0,-2.0334,-1.972,-2.0048,0.0,-1.9055,0.0,0.0,0.0,0.0,0.0,0.0,0.0,0.0,0.0,0.0,0.0,0.0,0.0,0.0,0.0,0.0,0.0,0.0,0.0,0.0,0.0,0.0,0.0,0.0,0.0,0.0,0.0,0.0,0.0,0.0,0.0,0.0,0.0,0.0,0.0,0.0,0.0,0.0,0.0,0.0,0.0,0.0,0.0,0.0,0.0,0.0,0.0,0.0,0.0,0.0,0.0,0.0,0.0,0.0,0.0,0.0,0.0,0.0,0.0,0.0,0.0,0.0,0.0,0.0,0.0,0.0,0.0,0.0,0.0,0.0,0.0,0.0,0.0,0.0,0.0,0.0,0.0,0.0,0.0,0.0,0.0,0.0,0.0,0.0,0.0,0.0,0.0,0.0,0.0,0.0,0.0,0.0,0.0,0.0,0.0,0.0,0.0,0.0,0.0,0.0,0.0,0.0,0.0,0.0,0.0,0.0,0.0,0.0,0.0,0.0,0.0,-1.7895,-1.8195,-1.8292,0.0,0.0,0.0,0.0,0.0,0.0,0.0,0.0,0.0,0.0,0.0,0.0,0.0,0.0,0.0,0.0,0.0,0.0,0.0,0.0,0.0,0.0,0.0,0.0,0.0,0.0,0.0,0.0,0.0,0.0,0.0,0.0,0.0,0.0,0.0,0.0,0.0,0.0,0.0,0.0,0.0,0.0,0.0,0.0,0.0,0.0,0.0,0.0,0.0,0.0,0.0,0.0,0.0,0.0,0.0,0.0,0.0,0.0,0.0,0.0,0.0,0.0,0.0,0.0,0.0,0.0,0.0,0.0,0.0,0.0,0.0,0.0,0.0,0.0,0.0,0.0,0.0,0.0,0.0,0.0,0.0,0.0,0.0,0.0,0.0,0.0,0.0,0.0,0.0,0.0,0.0,0.0,0.0,0.0,0.0,0.0,0.0,0.0,0.0,0.0,0.0,0.0,0.0,0.0,0.0,0.0,0.0,0.0,0.0,0.0,-1.7119,0.0,-1.6491,-1.7041,-1.7257,-1.7099,0.0,0.0,0.0,0.0,0.0,0.0,0.0,0.0,0.0,0.0,0.0,0.0,0.0,0.0,0.0,0.0,0.0,0.0,0.0,0.0,0.0,0.0,0.0,0.0,0.0,0.0,0.0,0.0,0.0,0.0,0.0,0.0,0.0,0.0,0.0,0.0,0.0,0.0,0.0,0.0,0.0,0.0,0.0,0.0,0.0,0.0,0.0,0.0,0.0,0.0,0.0,0.0,0.0,0.0,0.0,0.0,0.0,0.0,0.0,0.0,0.0,0.0,0.0,0.0,0.0,0.0,0.0,0.0,0.0,0.0,0.0,0.0,0.0,0.0,0.0,0.0,0.0,0.0,0.0,0.0,0.0,0.0,0.0,0.0,0.0,0.0,0.0,0.0,0.0,0.0,0.0,0.0,0.0,0.0,0.0,0.0,0.0,0.0,0.0,0.0,0.0,0.0,0.0,0.0,0.0,0.0,0.0,0.0,0.0,-1.6636,-1.6442,-1.5985,-1.7196,-1.7276,0.0,0.0,0.0,0.0,0.0,0.0,0.0,0.0,0.0,0.0,0.0,0.0,0.0,0.0,0.0,0.0,0.0,0.0,0.0,0.0,0.0,0.0,0.0,0.0,0.0,0.0,0.0,0.0,0.0,0.0,0.0,0.0,0.0,0.0,0.0,0.0,0.0,0.0,0.0,0.0,0.0,0.0,0.0,0.0,0.0,0.0,0.0,0.0,0.0,0.0,0.0,0.0,0.0,0.0,0.0,0.0,0.0,0.0,0.0,0.0,0.0,0.0,0.0,0.0,0.0,0.0,0.0,0.0,0.0,0.0,0.0,0.0,0.0,0.0,0.0,0.0,0.0,0.0,0.0,0.0,0.0,0.0,0.0,0.0,0.0,0.0,0.0,0.0,0.0,0.0,0.0,0.0,0.0,0.0,0.0,0.0,0.0,0.0,0.0,0.0,0.0,0.0,0.0,0.0,0.0,0.0,0.0,0.0,0.0,-1.5811,-1.5468,-1.5327,-1.5447,-1.5827,-1.6004,0.0,0.0,0.0,0.0,0.0,0.0,0.0,0.0,0.0,0.0,0.0,0.0,0.0,0.0,0.0,0.0,0.0,0.0,0.0,0.0,0.0,0.0,0.0,0.0,0.0,0.0,0.0,0.0,0.0,0.0,0.0,0.0,0.0,0.0,0.0,0.0,0.0,0.0,0.0,0.0,0.0,0.0,0.0,0.0,0.0,0.0,0.0,0.0,0.0,0.0,0.0,0.0,0.0,0.0,0.0,0.0,0.0,0.0,0.0,0.0,0.0,0.0,0.0,0.0,0.0,0.0,0.0,0.0,0.0,0.0,0.0,0.0,0.0,0.0,0.0,0.0,0.0,0.0,0.0,0.0,0.0,0.0,0.0,0.0,0.0,0.0,0.0,0.0,0.0,0.0,0.0,0.0,0.0,0.0,0.0,0.0,0.0,0.0,0.0,0.0,0.0,0.0,0.0,0.0,0.0,0.0,0.0,0.0,0.0,-1.479,0.0,-1.4033,0.0,-1.4744,-1.5076,0.0,0.0,0.0,0.0,0.0,0.0,0.0,0.0,0.0,0.0,0.0,0.0,0.0,0.0,0.0,0.0,0.0,0.0,0.0,0.0,0.0,0.0,0.0,0.0,0.0,0.0,0.0,0.0,0.0,0.0,0.0,0.0,0.0,0.0,0.0,0.0,0.0,0.0,0.0,0.0,0.0,0.0,0.0,0.0,0.0,0.0,0.0,0.0,0.0,0.0,0.0,0.0,0.0,0.0,0.0,0.0,0.0,0.0,0.0,0.0,0.0,0.0,0.0,0.0,0.0,0.0,0.0,0.0,0.0,0.0,0.0,0.0,0.0,0.0,0.0,0.0,0.0,0.0,0.0,0.0,0.0,0.0,0.0,0.0,0.0,0.0,0.0,0.0,0.0,0.0,0.0,0.0,0.0,0.0,0.0,0.0,0.0,0.0,0.0,0.0,0.0,0.0,0.0,0.0,0.0,0.0,0.0,0.0,-1.4726,-1.3532,-1.2887,-1.2731,-1.2939,-1.399,-1.4545,0.0,0.0,0.0,0.0,0.0,0.0,0.0,0.0,0.0,0.0,0.0,0.0,0.0,0.0,0.0,0.0,0.0,0.0,0.0,0.0,0.0,0.0,0.0,0.0,0.0,0.0,0.0,0.0,0.0,0.0,0.0,0.0,0.0,0.0,0.0,0.0,0.0,0.0,0.0,0.0,0.0,0.0,0.0,0.0,0.0,0.0,0.0,0.0,0.0,0.0,0.0,0.0,0.0,0.0,0.0,0.0,0.0,0.0,0.0,0.0,0.0,0.0,0.0,0.0,0.0,0.0,0.0,0.0,0.0,0.0,0.0,0.0,0.0,0.0,0.0,0.0,0.0,0.0,0.0,0.0,0.0,0.0,0.0,0.0,0.0,0.0,0.0,0.0,0.0,0.0,0.0,0.0,0.0,0.0,0.0,0.0,0.0,0.0,0.0,0.0,0.0,0.0,0.0,0.0,0.0,0.0,0.0,0.0,0.0,-1.2822,-1.2604,-1.2769,-1.3301,-1.3097,-1.3479,0.0,0.0,0.0,0.0,0.0,0.0,0.0,0.0,0.0,0.0,0.0,0.0,0.0,0.0,0.0,0.0,0.0,0.0,0.0,0.0,0.0,0.0,0.0,0.0,0.0,0.0,0.0,0.0,0.0,0.0,0.0,0.0,0.0,0.0,0.0,0.0,0.0,0.0,0.0,0.0,0.0,0.0,0.0,0.0,0.0,0.0,0.0,0.0,0.0,0.0,0.0,0.0,0.0,0.0,0.0,0.0,0.0,0.0,0.0,0.0,0.0,0.0,0.0,0.0,0.0,0.0,0.0,0.0,0.0,0.0,0.0,0.0,0.0,0.0,0.0,0.0,0.0,0.0,0.0,0.0,0.0,0.0,0.0,0.0,0.0,0.0,0.0,0.0,0.0,0.0,0.0,0.0,0.0,0.0,0.0,0.0,0.0,0.0,0.0,0.0,0.0,0.0,0.0,0.0,0.0,0.0,0.0,0.0,0.0,-1.1314,-1.162,-1.2089,-1.2746,-1.2508,-1.2961,-1.425,0.0,0.0,0.0,0.0,0.0,0.0,0.0,0.0,0.0,0.0,0.0,0.0,0.0,0.0,0.0,0.0,0.0,0.0,0.0,0.0,0.0,0.0,0.0,0.0,0.0,0.0,0.0,0.0,0.0,0.0,0.0,0.0,0.0,0.0,0.0,0.0,0.0,0.0,0.0,0.0,0.0,0.0,0.0,0.0,0.0,0.0,0.0,0.0,0.0,0.0,0.0,0.0,0.0,0.0,0.0,0.0,0.0,0.0,0.0,0.0,0.0,0.0,0.0,0.0,0.0,0.0,0.0,0.0,0.0,0.0,0.0,0.0,0.0,0.0,0.0,0.0,0.0,0.0,0.0,0.0,0.0,0.0,0.0,0.0,0.0,0.0,0.0,0.0,0.0,0.0,0.0,0.0,0.0,0.0,0.0,0.0,0.0,0.0,0.0,0.0,0.0,0.0,0.0,0.0,0.0,0.0,0.0,0.0,-0.9288,-1.0051,-1.0773,-1.1416,-1.2108,-1.2939,0.0,0.0,0.0,0.0,0.0,0.0,0.0,0.0,0.0,0.0,0.0,0.0,0.0,0.0,0.0,0.0,0.0,0.0,0.0,0.0,0.0,0.0,0.0,0.0,0.0,0.0,0.0,0.0,0.0,0.0,0.0,0.0,0.0,0.0,0.0,0.0,0.0,0.0,0.0,0.0,0.0,0.0,0.0,0.0,0.0,0.0,0.0,0.0,0.0,0.0,0.0,0.0,0.0,0.0,0.0,0.0,0.0,0.0,0.0,0.0,0.0,0.0,0.0,0.0,0.0,0.0,0.0,0.0,0.0,0.0,0.0,0.0,0.0,0.0,0.0,0.0,0.0,0.0,0.0,0.0,0.0,0.0,0.0,0.0,0.0,0.0,0.0,0.0,0.0,0.0,0.0,0.0,0.0,0.0,0.0,0.0,0.0,0.0,0.0,0.0,0.0,0.0,0.0,0.0,0.0,0.0,0.0,0.0,0.0,-0.8969,-0.8854,-0.9358,-1.0522,-1.1526,-1.2521,0.0,0.0,0.0,0.0,0.0,0.0,0.0,0.0,0.0,0.0,0.0,0.0,0.0,0.0,0.0,0.0,0.0,0.0,0.0,0.0,0.0,0.0,0.0,0.0,0.0,0.0,0.0,0.0,0.0,0.0,0.0,0.0,0.0,0.0,0.0,0.0,0.0,0.0,0.0,0.0,0.0,0.0,0.0,0.0,0.0,0.0,0.0,0.0,0.0,0.0,0.0,0.0,0.0,0.0,0.0,0.0,0.0,0.0,0.0,0.0,0.0,0.0,0.0,0.0,0.0,0.0,0.0,0.0,0.0,0.0,0.0,0.0,0.0,0.0,0.0,0.0,0.0,0.0,0.0,0.0,0.0,0.0,0.0,0.0,0.0,0.0,0.0,0.0,0.0,0.0,0.0,0.0,0.0,0.0,0.0,0.0,0.0,0.0,0.0,0.0,0.0,0.0,0.0,0.0,0.0,0.0,0.0,0.0,-0.8922,-0.815,-0.8177,-0.8578,-0.9339,-1.0882,-1.2198,0.0,0.0,0.0,0.0,0.0,0.0,0.0,0.0,0.0,0.0,0.0,0.0,0.0,0.0,0.0,0.0,0.0,0.0,0.0,0.0,0.0,0.0,0.0,0.0,0.0,0.0,0.0,0.0,0.0,0.0,0.0,0.0,0.0,0.0,0.0,0.0,0.0,0.0,0.0,0.0,0.0,0.0,0.0,0.0,0.0,0.0,0.0,0.0,0.0,0.0,0.0,0.0,0.0,0.0,0.0,0.0,0.0,0.0,0.0,0.0,0.0,0.0,0.0,0.0,0.0,0.0,0.0,0.0,0.0,0.0,0.0,0.0,0.0,0.0,0.0,0.0,0.0,0.0,0.0,0.0,0.0,0.0,0.0,0.0,0.0,0.0,0.0,0.0,0.0,0.0,0.0,0.0,0.0,0.0,0.0,0.0,0.0,0.0,0.0,0.0,0.0,0.0,0.0,0.0,0.0,0.0,0.0,0.0,-0.8435,-0.7201,-0.769,-0.8046,-0.8288,-1.0285,-1.1897,0.0,0.0,0.0,0.0,0.0,0.0,0.0,0.0,0.0,0.0,0.0,0.0,0.0,0.0,0.0,0.0,0.0,0.0,0.0,0.0,0.0,0.0,0.0,0.0,0.0,0.0,0.0,0.0,0.0,0.0,0.0,0.0,0.0,0.0,0.0,0.0,0.0,0.0,0.0,0.0,0.0,0.0,0.0,0.0,0.0,0.0,0.0,0.0,0.0,0.0,0.0,0.0,0.0,0.0,0.0,0.0,0.0,0.0,0.0,0.0,0.0,0.0,0.0,0.0,0.0,0.0,0.0,0.0,0.0,0.0,0.0,0.0,0.0,0.0,0.0,0.0,0.0,0.0,0.0,0.0,0.0,0.0,0.0,0.0,0.0,0.0,0.0,0.0,0.0,0.0,0.0,0.0,0.0,0.0,0.0,0.0,0.0,0.0,0.0,0.0,0.0,0.0,0.0,0.0,0.0,0.0,0.0,0.0,-0.7233,-0.6821,-0.6535,-0.7057,-0.8401,-0.9907,-1.1412,0.0,0.0,0.0,0.0,0.0,0.0,0.0,0.0,0.0,0.0,0.0,0.0,0.0,0.0,0.0,0.0,0.0,0.0,0.0,0.0,0.0,0.0,0.0,0.0,0.0,0.0,0.0,0.0,0.0,0.0,0.0,0.0,0.0,0.0,0.0,0.0,0.0,0.0,0.0,0.0,0.0,0.0,0.0,0.0,0.0,0.0,0.0,0.0,-1.7944,0.0,0.0,0.0,0.0,0.0,0.0,0.0,0.0,0.0,0.0,0.0,0.0,0.0,0.0,0.0,0.0,0.0,0.0,0.0,0.0,0.0,0.0,0.0,0.0,0.0,0.0,0.0,0.0,0.0,0.0,0.0,0.0,0.0,0.0,0.0,0.0,0.0,0.0,0.0,0.0,0.0,0.0,0.0,0.0,0.0,0.0,0.0,0.0,0.0,0.0,0.0,0.0,0.0,0.0,0.0,0.0,0.0,0.0,0.0,-0.677,-0.6476,-0.6077,-0.6734,-0.8431,-0.9247,-1.0721,0.0,0.0,0.0,0.0,0.0,0.0,0.0,0.0,0.0,0.0,0.0,0.0,0.0,0.0,0.0,0.0,0.0,0.0,0.0,0.0,0.0,0.0,0.0,0.0,0.0,0.0,0.0,0.0,0.0,0.0,0.0,0.0,0.0,0.0,0.0,0.0,0.0,0.0,0.0,0.0,0.0,0.0,0.0,0.0,0.0,0.0,0.0,0.0,0.0,0.0,0.0,0.0,0.0,0.0,0.0,0.0,0.0,0.0,0.0,0.0,0.0,0.0,0.0,0.0,0.0,0.0,0.0,0.0,0.0,0.0,0.0,0.0,0.0,0.0,0.0,0.0,0.0,0.0,0.0,0.0,0.0,0.0,0.0,0.0,0.0,0.0,0.0,0.0,0.0,0.0,0.0,0.0,0.0,0.0,0.0,0.0,0.0,0.0,0.0,0.0,0.0,0.0,0.0,0.0,0.0,0.0,0.0,-0.6894,-0.6616,-0.6234,-0.6047,-0.6759,-0.8441,-0.8611,-1.0024,-1.2879,0.0,0.0,0.0,0.0,0.0,0.0,0.0,0.0,0.0,0.0,0.0,0.0,0.0,0.0,0.0,0.0,0.0,0.0,0.0,0.0,0.0,0.0,0.0,0.0,0.0,0.0,0.0,0.0,0.0,0.0,0.0,0.0,0.0,0.0,0.0,0.0,0.0,0.0,-1.2562,-1.2877,0.0,0.0,0.0,0.0,0.0,0.0,0.0,0.0,-1.5649,0.0,0.0,0.0,0.0,0.0,0.0,0.0,0.0,0.0,0.0,0.0,0.0,0.0,0.0,0.0,0.0,0.0,0.0,0.0,0.0,0.0,0.0,0.0,0.0,0.0,0.0,0.0,0.0,0.0,0.0,0.0,0.0,0.0,0.0,0.0,0.0,0.0,0.0,0.0,0.0,0.0,0.0,0.0,0.0,0.0,0.0,0.0,0.0,0.0,0.0,0.0,0.0,0.0,0.0,0.0,0.0,-0.6533,-0.6383,-0.6345,-0.6365,-0.6229,-0.6924,-0.8447,-0.8522,-0.9929,-1.2844,0.0,0.0,0.0,0.0,0.0,0.0,0.0,0.0,0.0,0.0,0.0,0.0,0.0,0.0,0.0,0.0,0.0,0.0,0.0,0.0,0.0,0.0,0.0,0.0,0.0,0.0,0.0,0.0,0.0,0.0,0.0,0.0,0.0,0.0,0.0,0.0,0.0,0.0,0.0,-1.1702,-1.1672,0.0,0.0,0.0,0.0,0.0,0.0,0.0,0.0,-1.6043,0.0,0.0,0.0,0.0,0.0,0.0,0.0,0.0,0.0,0.0,0.0,0.0,0.0,0.0,0.0,0.0,0.0,0.0,0.0,0.0,0.0,0.0,0.0,0.0,0.0,0.0,0.0,0.0,0.0,0.0,0.0,0.0,0.0,0.0,0.0,0.0,0.0,0.0,0.0,0.0,0.0,0.0,0.0,0.0,0.0,0.0,0.0,0.0,0.0,0.0,0.0,0.0,0.0,0.0,0.0,-0.631,-0.6222,-0.622,-0.6304,-0.6222,-0.6926,-0.8447,-0.8678,-1.0091,0.0,0.0,0.0,0.0,0.0,0.0,0.0,0.0,0.0,0.0,0.0,0.0,0.0,0.0,0.0,0.0,0.0,0.0,0.0,0.0,0.0,0.0,0.0,0.0,0.0,0.0,0.0,0.0,0.0,0.0,0.0,0.0,0.0,0.0,0.0,0.0,0.0,0.0,0.0,0.0,-1.0408,-1.0469,-1.1232,0.0,0.0,0.0,0.0,0.0,0.0,-1.4464,-1.5119,0.0,0.0,0.0,0.0,0.0,0.0,0.0,0.0,0.0,0.0,0.0,0.0,0.0,0.0,0.0,0.0,0.0,0.0,0.0,0.0,0.0,0.0,0.0,0.0,0.0,0.0,0.0,0.0,0.0,0.0,0.0,0.0,0.0,0.0,0.0,0.0,0.0,0.0,0.0,0.0,0.0,0.0,0.0,0.0,0.0,0.0,0.0,0.0,0.0,0.0,0.0,0.0,0.0,0.0,0.0,-0.6237,-0.623,-0.6196,-0.6229,-0.623,-0.6926,-0.8447,-0.8769,-1.0214,0.0,0.0,0.0,0.0,0.0,0.0,0.0,0.0,0.0,0.0,0.0,0.0,0.0,0.0,0.0,0.0,0.0,0.0,0.0,0.0,0.0,0.0,0.0,0.0,0.0,0.0,0.0,0.0,0.0,0.0,0.0,0.0,0.0,0.0,0.0,0.0,0.0,0.0,0.0,0.0,0.0,-0.9588,-0.983,-1.0309,0.0,0.0,0.0,0.0,-1.2128,-1.3383,0.0,0.0,0.0,0.0,0.0,0.0,0.0,0.0,0.0,0.0,0.0,0.0,0.0,0.0,0.0,0.0,0.0,0.0,0.0,0.0,0.0,0.0,0.0,0.0,0.0,0.0,0.0,0.0,0.0,0.0,0.0,0.0,0.0,0.0,0.0,0.0,0.0,0.0,0.0,0.0,0.0,0.0,0.0,0.0,0.0,0.0,0.0,0.0,0.0,0.0,0.0,0.0,0.0,0.0,0.0,0.0,-0.6381,-0.6259,-0.6253,-0.6369,-0.6261,-0.6924,-0.8449,-0.8643,-1.0084,0.0,0.0,0.0,0.0,0.0,0.0,0.0,0.0,0.0,0.0,0.0,0.0,0.0,0.0,0.0,0.0,0.0,0.0,0.0,0.0,0.0,0.0,0.0,0.0,0.0,0.0,0.0,0.0,0.0,0.0,0.0,0.0,0.0,0.0,0.0,0.0,0.0,0.0,0.0,0.0,0.0,-0.9007,-0.9547,-0.984,-1.0,0.0,0.0,-1.1606,-1.1609,-1.2894,0.0,0.0,0.0,0.0,0.0,0.0,0.0,0.0,0.0,0.0,0.0,0.0,0.0,0.0,0.0,0.0,0.0,0.0,0.0,0.0,0.0,0.0,0.0,0.0,0.0,0.0,0.0,0.0,0.0,0.0,0.0,0.0,0.0,0.0,0.0,0.0,0.0,0.0,0.0,0.0,0.0,0.0,0.0,0.0,0.0,0.0,0.0,0.0,0.0,0.0,0.0,0.0,0.0,0.0,0.0,-0.6286,-0.6128,-0.6167,-0.6169,-0.6116,-0.6069,-0.6761,-0.8269,-0.8495,-0.9983,0.0,0.0,0.0,0.0,0.0,0.0,0.0,0.0,0.0,0.0,0.0,0.0,0.0,0.0,0.0,0.0,0.0,0.0,0.0,0.0,0.0,0.0,0.0,0.0,0.0,0.0,0.0,0.0,0.0,0.0,0.0,0.0,0.0,0.0,0.0,0.0,0.0,0.0,0.0,0.0,0.0,0.0,-0.8388,-0.8999,0.0,0.0,0.0,-1.078,-1.0605,0.0,0.0,0.0,0.0,0.0,0.0,0.0,0.0,0.0,0.0,0.0,0.0,0.0,0.0,0.0,0.0,0.0,0.0,0.0,0.0,0.0,0.0,0.0,0.0,0.0,0.0,0.0,0.0,0.0,0.0,0.0,0.0,0.0,0.0,0.0,0.0,0.0,0.0,0.0,0.0,0.0,0.0,0.0,0.0,0.0,0.0,0.0,0.0,0.0,0.0,0.0,0.0,0.0,0.0,0.0,0.0,0.0,-0.5929,-0.6,-0.6,-0.5918,-0.5873,-0.6558,-0.8057,-0.8307,0.0,0.0,0.0,0.0,0.0,0.0,0.0,0.0,0.0,0.0,0.0,0.0,0.0,0.0,0.0,0.0,0.0,0.0,0.0,0.0,0.0,0.0,0.0,0.0,0.0,0.0,0.0,-1.3394,0.0,0.0,0.0,0.0,0.0,0.0,0.0,0.0,0.0,0.0,0.0,0.0,0.0,0.0,-0.7419,-0.7419,-0.8103,-0.8602,0.0,0.0,-0.9845,-0.9581,-1.0746,-1.1621,0.0,0.0,0.0,0.0,0.0,0.0,0.0,0.0,0.0,0.0,0.0,0.0,0.0,0.0,0.0,0.0,0.0,0.0,0.0,0.0,0.0,0.0,0.0,0.0,0.0,0.0,0.0,0.0,0.0,0.0,0.0,0.0,0.0,0.0,0.0,0.0,0.0,0.0,0.0,0.0,0.0,0.0,0.0,0.0,0.0,0.0,0.0,0.0,0.0,0.0,0.0,0.0,0.0,0.0,0.0,-0.5894,-0.5732,-0.5726,-0.5876,-0.5718,-0.6321,-0.7785,-0.8067,-0.962,0.0,0.0,0.0,0.0,0.0,0.0,0.0,0.0,0.0,0.0,0.0,0.0,0.0,0.0,0.0,0.0,0.0,0.0,0.0,0.0,0.0,0.0,0.0,0.0,0.0,0.0,0.0,0.0,0.0,0.0,0.0,0.0,0.0,0.0,0.0,0.0,0.0,0.0,0.0,0.0,0.0,-0.7205,-0.7207,-0.7426,-0.7573,0.0,0.0,-0.872,-0.8542,-1.0108,-1.1373,-1.1392,0.0,0.0,0.0,0.0,0.0,0.0,0.0,0.0,0.0,0.0,0.0,0.0,0.0,0.0,0.0,0.0,0.0,0.0,0.0,0.0,0.0,0.0,0.0,0.0,0.0,0.0,0.0,0.0,0.0,0.0,0.0,0.0,0.0,0.0,0.0,0.0,0.0,0.0,0.0,0.0,0.0,0.0,0.0,0.0,0.0,0.0,0.0,0.0,0.0,0.0,0.0,0.0,0.0,-0.5843,-0.5537,-0.5594,-0.5594,-0.5529,-0.546,-0.6123,-0.7587,-0.7785,-0.9236,0.0,0.0,0.0,0.0,0.0,0.0,0.0,0.0,0.0,0.0,0.0,0.0,0.0,0.0,0.0,0.0,0.0,0.0,0.0,0.0,0.0,0.0,0.0,0.0,0.0,0.0,0.0,0.0,-1.1622,-1.1072,-1.048,0.0,0.0,0.0,0.0,0.0,0.0,0.0,0.0,0.0,0.0,-0.6143,-0.657,-0.6663,0.0,0.0,-0.7449,-0.7645,-0.7692,-0.8707,-0.9642,-1.0038,-1.0891,0.0,0.0,0.0,0.0,0.0,0.0,0.0,0.0,0.0,0.0,0.0,0.0,0.0,0.0,0.0,0.0,0.0,0.0,0.0,0.0,0.0,0.0,0.0,0.0,0.0,0.0,0.0,0.0,0.0,0.0,0.0,0.0,0.0,0.0,0.0,0.0,0.0,0.0,0.0,0.0,0.0,0.0,0.0,0.0,0.0,0.0,0.0,0.0,0.0,0.0,0.0,0.0,-0.5711,-0.5305,-0.5446,-0.542,-0.525,-0.5246,-0.5898,-0.7239,-0.74,-0.878,0.0,0.0,0.0,0.0,0.0,0.0,0.0,0.0,0.0,0.0,0.0,0.0,0.0,0.0,0.0,0.0,0.0,0.0,0.0,0.0,0.0,0.0,0.0,0.0,0.0,0.0,0.0,0.0,-1.1064,-1.0363,-0.9539,0.0,0.0,0.0,0.0,0.0,0.0,0.0,0.0,0.0,0.0,-0.548,-0.5991,-0.6223,-0.6466,-0.681,-0.7076,-0.7249,-0.7286,-0.7959,-0.8682,-0.9214,0.0,0.0,0.0,0.0,0.0,0.0,0.0,0.0,0.0,0.0,0.0,0.0,0.0,0.0,0.0,0.0,0.0,0.0,0.0,0.0,0.0,0.0,0.0,0.0,0.0,0.0,0.0,-1.0164,0.0,0.0,-1.0218,0.0,0.0,0.0,0.0,0.0,0.0,0.0,0.0,0.0,0.0,0.0,0.0,0.0,0.0,0.0,0.0,0.0,0.0,0.0,0.0,0.0,0.0,-0.5709,-0.5307,-0.5301,-0.5248,-0.5126,-0.5112,-0.5659,-0.6777,-0.6962,-0.8238,-1.0758,0.0,0.0,0.0,0.0,0.0,0.0,0.0,0.0,0.0,0.0,0.0,0.0,0.0,0.0,0.0,0.0,0.0,0.0,0.0,0.0,0.0,0.0,0.0,0.0,0.0,0.0,-1.1539,-1.0051,-0.878,0.0,0.0,0.0,0.0,0.0,0.0,0.0,0.0,0.0,0.0,-0.5276,-0.5409,-0.5526,-0.6164,-0.6617,-0.6579,-0.7268,-0.7681,-0.7498,-0.8131,-0.8844,0.0,0.0,0.0,0.0,0.0,0.0,0.0,0.0,0.0,0.0,0.0,0.0,0.0,0.0,0.0,0.0,0.0,0.0,0.0,0.0,0.0,0.0,0.0,0.0,0.0,0.0,0.0,-0.9568,-0.9262,0.0,0.0,0.0,0.0,0.0,0.0,0.0,0.0,0.0,0.0,0.0,-0.6212,-0.6076,0.0,0.0,0.0,0.0,0.0,0.0,0.0,0.0,0.0,0.0,0.0,0.0,-0.5559,-0.5305,-0.5205,-0.5202,-0.523,-0.5143,-0.5711,-0.6958,-0.7141,-0.8249,-1.0466,0.0,0.0,0.0,0.0,0.0,0.0,0.0,0.0,0.0,0.0,0.0,0.0,0.0,0.0,0.0,0.0,0.0,0.0,0.0,0.0,0.0,0.0,0.0,0.0,0.0,-1.1273,0.0,0.0,0.0,0.0,0.0,0.0,0.0,0.0,0.0,0.0,0.0,-0.4413,-0.4146,-0.4263,-0.4535,-0.49,-0.5196,-0.5469,0.0,0.0,0.0,0.0,0.0,0.0,0.0,0.0,0.0,0.0,0.0,0.0,0.0,0.0,-1.0192,-1.0216,-1.0033,-0.9749,-0.9335,0.0,0.0,0.0,0.0,0.0,0.0,0.0,0.0,0.0,0.0,0.0,0.0,0.0,0.0,-0.8598,0.0,-0.8406,0.0,0.0,0.0,0.0,0.0,0.0,0.0,0.0,-0.6216,-0.5767,-0.5085,-0.5042,-0.4949,0.0,-0.4229,-0.4328,0.0,0.0,0.0,0.0,0.0,0.0,0.0,0.0,-0.5238,-0.4992,-0.4903,-0.4895,-0.5016,-0.5107,-0.5652,-0.6705,-0.742,-0.8507,-1.0017,-1.1588,-1.2353,0.0,0.0,0.0,0.0,0.0,0.0,0.0,0.0,0.0,0.0,0.0,0.0,0.0,0.0,0.0,0.0,0.0,0.0,0.0,0.0,0.0,0.0,0.0,-1.0306,0.0,0.0,0.0,0.0,0.0,0.0,0.0,0.0,0.0,-0.4404,-0.4217,-0.3946,-0.3712,-0.3826,-0.4046,-0.4398,0.0,0.0,0.0,0.0,0.0,0.0,0.0,-0.7061,-0.7938,-0.8183,-0.8574,-0.9439,-0.9776,-0.9897,-0.9811,0.0,0.0,-0.992,-0.9681,-0.9406,-0.9199,-0.9014,-0.8782,-0.8327,-0.7928,-0.737,0.0,0.0,0.0,0.0,0.0,0.0,0.0,0.0,-0.776,-0.7593,0.0,-0.7563,0.0,0.0,0.0,0.0,0.0,-0.6661,0.0,0.0,-0.5072,-0.4679,-0.4642,-0.4537,-0.4216,-0.3849,-0.4203,-0.4227,-0.3932,-0.4072,0.0,0.0,0.0,0.0,0.0,0.0,-0.4781,-0.4425,-0.4402,-0.444,-0.4538,-0.4948,-0.5495,-0.6127,-0.7819,-0.8939,-0.9378,-1.0233,-1.1121,-1.2095,-1.2667,0.0,0.0,0.0,0.0,0.0,0.0,0.0,0.0,0.0,0.0,0.0,0.0,0.0,0.0,0.0,0.0,0.0,0.0,0.0,0.0,-0.9377,0.0,0.0,0.0,0.0,0.0,0.0,0.0,0.0,0.0,0.0,-0.459,-0.3913,-0.3502,-0.3768,0.0,0.0,0.0,0.0,-0.5023,-0.4957,-0.5633,-0.6135,-0.6124,-0.6343,-0.6419,-0.6381,0.0,0.0,-0.7824,-0.8441,-0.8839,-0.8549,-0.8546,-0.8771,-0.9693,-0.9484,-0.9265,-0.9471,-0.9162,-0.8654,-0.8003,-0.7741,-0.7223,-0.5376,0.0,0.0,0.0,0.0,-0.7824,-0.7685,-0.7064,-0.7001,-0.6744,-0.6352,-0.6402,0.0,0.0,0.0,0.0,0.0,0.0,-0.5132,-0.4871,-0.4371,-0.4092,-0.3989,-0.3806,-0.3733,-0.3722,-0.3155,-0.3159,-0.3693,-0.3138,-0.3592,-0.4996,0.0,0.0,0.0,0.0,-0.438,-0.4318,-0.4196,-0.4319,-0.4729,-0.4704,-0.5208,-0.6282,-0.8187,-0.9157,-0.9051,-1.0326,-1.1081,-1.1217,-1.1977,0.0,0.0,0.0,0.0,0.0,0.0,0.0,0.0,0.0,0.0,0.0,0.0,0.0,0.0,0.0,0.0,0.0,0.0,0.0,-0.9669,-0.8682,-0.8042,0.0,0.0,0.0,0.0,0.0,0.0,0.0,0.0,0.0,-0.4373,-0.4074,-0.3857,0.0,0.0,-0.4212,-0.4178,-0.4383,-0.4498,-0.4377,-0.4645,0.0,-0.53,-0.5486,-0.5857,-0.6732,-0.7271,-0.7693,-0.7884,-0.8169,-0.836,-0.8295,-0.8401,-0.8662,-0.9068,-0.8923,-0.872,-0.8794,-0.8705,-0.8457,-0.7974,-0.725,-0.6455,-0.3995,-0.4678,-0.5751,-0.6224,-0.6273,-0.668,-0.6589,-0.6057,-0.5923,-0.5806,-0.5657,-0.5551,-0.5543,-0.5569,-0.5464,0.0,0.0,0.0,-0.3974,-0.3891,-0.3506,-0.3262,-0.317,-0.2916,-0.2888,-0.3032,-0.2583,-0.2641,-0.3142,-0.2715,-0.3024,-0.4057,0.0,0.0,-0.4123,-0.3889,-0.3808,-0.3887,-0.3793,-0.4021,-0.4591,-0.4853,-0.5481,-0.654,-0.7923,-0.873,-0.8868,-0.9765,-1.033,-1.0396,-1.1292,-1.1908,0.0,0.0,0.0,0.0,0.0,0.0,0.0,0.0,0.0,0.0,0.0,-1.1982,0.0,0.0,0.0,0.0,-0.902,-0.8798,-0.874,-0.8048,0.0,0.0,0.0,0.0,0.0,0.0,0.0,-0.4791,-0.4051,-0.3678,-0.407,-0.36,-0.3444,-0.395,-0.4161,-0.4209,-0.4129,0.0,-0.4097,-0.4023,-0.4075,-0.4224,-0.4523,-0.4636,-0.4993,-0.5858,-0.6402,-0.6748,-0.6931,-0.72,-0.7504,-0.7616,-0.7647,-0.7754,-0.827,-0.791,-0.7792,-0.8477,-0.8576,-0.8267,-0.748,-0.6723,-0.6001,-0.2845,-0.3006,-0.4551,-0.5123,-0.5045,-0.5045,-0.4989,-0.4921,-0.4613,-0.47,-0.5076,-0.485,-0.4482,-0.4002,-0.3289,0.0,-0.2976,-0.2953,-0.2927,-0.2928,-0.2505,-0.2352,-0.2296,-0.1999,-0.1925,-0.2093,-0.2383,-0.2438,-0.2294,-0.2581,-0.2797,-0.2943,-0.3,-0.3058,-0.309,-0.3058,-0.3099,-0.3282,-0.3291,-0.3617,-0.428,-0.5178,-0.5995,-0.6671,-0.7199,-0.785,-0.8668,-0.8834,-0.914,-0.9726,-1.0649,-1.103,-1.0822,0.0,0.0,0.0,0.0,0.0,0.0,0.0,0.0,0.0,0.0,0.0,0.0,0.0,0.0,0.0,-0.7933,0.0,-0.7637,-0.7414,0.0,0.0,0.0,-0.5984,-0.4659,-0.4564,-0.4409,-0.3888,0.0,0.0,-0.3674,-0.2782,-0.2547,-0.3782,-0.3916,-0.3894,-0.3763,-0.3717,-0.3737,-0.3676,-0.3758,-0.3785,-0.3802,-0.3912,-0.4137,-0.4479,-0.4604,-0.5045,-0.545,-0.5897,-0.6348,-0.6698,-0.6403,-0.64,-0.72,-0.6636,-0.6517,-0.8251,-0.8404,-0.7872,-0.6645,-0.616,-0.5637,-0.2336,-0.2797,-0.3179,-0.3439,-0.3607,-0.3607,-0.3589,-0.3562,-0.3479,-0.3439,-0.3378,-0.339,-0.3212,-0.2913,-0.2709,-0.2706,-0.2836,-0.2478,-0.2335,-0.2359,-0.1978,-0.1734,-0.1638,-0.1545,-0.1592,-0.1729,-0.1896,-0.2025,-0.207,-0.2255,-0.2379,-0.2469,-0.2469,-0.2713,-0.3083,-0.2686,-0.2638,-0.2903,-0.3111,-0.3581,-0.4296,-0.4879,-0.5417,-0.5948,-0.672,-0.7384,-0.7926,-0.8365,-0.8772,-0.9143,-1.0246,-1.0791,-1.0523,-1.1892,0.0,0.0,0.0,0.0,0.0,0.0,0.0,0.0,0.0,-1.0331,-0.989,0.0,-0.8689,0.0,-0.733,-0.7019,-0.7141,-0.652,0.0,0.0,-0.563,-0.5341,-0.4668,-0.4585,-0.4235,-0.333,-0.3044,-0.282,-0.2554,-0.2274,-0.2175,-0.2474,-0.2536,-0.2568,-0.2539,-0.2501,-0.2436,-0.249,-0.2793,-0.3003,-0.3054,-0.3609,-0.4072,-0.4168,-0.4516,-0.4841,-0.4947,-0.5235,-0.5477,-0.5582,-0.5563,-0.5682,-0.6092,-0.5906,-0.5979,-0.6571,-0.6724,-0.6548,-0.5856,-0.5405,-0.4959,-0.1587,-0.1913,-0.1887,-0.1985,-0.2178,-0.2676,-0.2955,-0.3012,-0.2954,-0.2921,-0.2902,-0.2593,-0.2369,-0.2224,-0.1865,-0.1743,-0.185,-0.1599,-0.1506,-0.153,-0.1322,-0.117,-0.1077,-0.0985,-0.1097,-0.1367,-0.1344,-0.1464,-0.1766,-0.1918,-0.2028,-0.2117,-0.2142,-0.2367,-0.2714,-0.2449,-0.2472,-0.2808,-0.3217,-0.3614,-0.4029,-0.4661,-0.5264,-0.5867,-0.6547,-0.7286,-0.807,-0.8388,-0.8628,-0.8794,-0.9735,-1.0092,-0.9774,-1.0875,-1.1246,0.0,0.0,0.0,0.0,0.0,0.0,0.0,0.0,0.0,0.0,0.0,-0.7955,-0.7321,-0.6719,-0.6298,-0.6116,-0.5761,-0.532,-0.4855,-0.4884,-0.4673,-0.3973,-0.3767,-0.3428,-0.2844,-0.2333,-0.2008,-0.195,-0.1514,-0.1258,-0.1465,-0.1312,-0.137,-0.186,-0.1955,-0.1927,-0.1925,-0.2124,-0.2389,-0.2571,-0.3048,-0.3449,-0.3679,-0.3973,-0.4163,-0.4194,-0.4492,-0.4782,-0.4894,-0.4857,-0.4974,-0.543,-0.5089,-0.488,-0.5082,-0.5072,-0.5026,-0.5148,-0.4939,-0.4573,-0.0749,-0.0826,-0.0799,-0.084,-0.0974,-0.2018,-0.2542,-0.2636,-0.2513,-0.26,-0.2773,-0.2047,-0.175,-0.173,-0.1028,-0.0697,-0.0697,-0.0697,-0.0675,-0.0629,-0.0629,-0.0607,-0.0539,-0.0379,-0.0533,-0.0933,-0.0751,-0.0864,-0.1352,-0.1497,-0.1648,-0.1763,-0.1827,-0.1973,-0.2202,-0.2223,-0.2408,-0.2787,-0.3364,-0.3653,-0.3699,-0.451,-0.5269,-0.5946,-0.6398,-0.7193,-0.8347,-0.8392,-0.8464,-0.8591,-0.9206,-0.9365,-0.8922,-0.9577,-0.9931,0.0,-0.9868,0.0,0.0,0.0,0.0,0.0,0.0,0.0,0.0,-0.7691,-0.7333,-0.6611,-0.6106,-0.5565,-0.4915,-0.4992,-0.4728,-0.3902,-0.4083,-0.3939,-0.3048,-0.2656,-0.2436,-0.2315,-0.148,-0.1097,-0.1426,-0.0628,-0.023,-0.068,-0.0433,-0.0455,-0.1316,-0.1524,-0.1488,-0.1573,-0.1643,-0.1829,-0.2272,-0.2477,-0.2674,-0.3032,-0.332,-0.335,-0.3415,-0.3782,-0.4171,-0.4359,-0.4267,-0.4374,-0.5036,-0.4304,-0.377,-0.4118,-0.3872,-0.3784,-0.4365,-0.4467,-0.4211,-0.0082,-0.04,-0.0346,-0.0535,-0.0912,-0.1068,-0.1203,-0.1287,-0.1198,-0.1178,-0.1214,-0.1011,-0.0972,-0.0974,-0.0801,-0.0697,-0.0697,-0.0697,-0.0562,-0.0292,-0.0315,-0.0135,0.0179,0.0173,0.0064,-0.0128,-0.0226,-0.0401,-0.0613,-0.0792,-0.0929,-0.1005,-0.1069,-0.1315,-0.1705,0.0,0.0,0.0,-0.3096,-0.3437,-0.3702,-0.428,-0.4852,-0.5349,-0.56,0.0,-0.7304,-0.7382,-0.7709,-0.8415,-0.9082,0.0,0.0,0.0,0.0,0.0,0.0,0.0,0.0,0.0,0.0,0.0,-0.6996,-0.7173,-0.7164,-0.6531,-0.6041,-0.5891,-0.525,-0.4667,-0.4169,-0.3999,-0.3719,-0.3251,-0.3189,-0.3021,-0.2618,-0.244,-0.2049,-0.1293,-0.1019,-0.0741,-0.0413,-0.0102,0.0,0.0,0.0,-0.0079,0.0,0.0,0.0,-0.036,-0.0769,-0.127,-0.1864,-0.2213,-0.2408,-0.2674,-0.3005,-0.3201,-0.321,-0.335,-0.3534,-0.3614,-0.3677,-0.3737,-0.3955,-0.372,-0.3543,-0.3683,-0.3619,-0.3557,-0.3508,-0.3481,-0.3411,0.0205,0.0,0.0025,-0.0102,0.0,-0.0274,-0.0272,-0.0328,-0.0655,-0.0799,-0.0783,-0.0739,-0.0705,-0.0742,-0.0704,-0.0607,-0.045,-0.045,-0.0247,0.009,0.0044,0.0174,0.0369,0.0457,0.0366,0.0163,0.0179,0.0058,-0.0208,-0.0396,-0.0555,-0.0647,-0.0745,-0.0935,-0.1212,-0.1359,-0.1781,-0.2442,-0.2797,-0.3038,-0.3217,-0.3802,-0.4424,-0.504,-0.5532,0.0,0.0,0.0,0.0,0.0,0.0,0.0,0.0,0.0,0.0,-0.8022,-0.8369,-0.8147,-0.7168,-0.7317,-0.7085,-0.6127,-0.5923,-0.6009,-0.6336,-0.5958,-0.545,-0.4848,-0.4471,-0.4015,-0.3463,-0.3073,-0.2767,-0.2574,-0.2312,-0.2098,-0.1956,-0.1683,-0.1337,-0.0899,-0.0589,-0.0323,0.0,0.0,0.0,0.0,0.0,0.0,0.0,0.0,0.0,0.0,-0.0202,-0.0651,-0.1156,-0.1444,-0.1726,-0.1919,-0.2225,-0.2397,-0.24,-0.2525,-0.265,-0.2789,-0.2738,-0.271,-0.3139,-0.2876,-0.2572,-0.2798,-0.2848,-0.282,-0.2686,-0.2938,-0.3191,0.0479,0.0404,0.0428,0.0388,0.0299,0.0311,0.0306,0.0283,0.0,0.0,0.0,-0.0524,-0.0516,-0.0494,-0.0517,-0.0337,-0.009,-0.009,0.0112,0.0464,0.0428,0.0419,0.0498,0.0694,0.064,0.0407,0.0596,0.0525,0.0198,-0.0018,-0.0162,-0.027,-0.0413,-0.0552,-0.0693,-0.0993,-0.1424,-0.1945,-0.2408,-0.2602,-0.2603,-0.3274,-0.398,-0.4655,-0.5395,-0.6127,-0.6783,-0.673,-0.6832,-0.7213,-0.6657,-0.6554,-0.7062,-0.7028,-0.7075,-0.7314,-0.738,-0.713,-0.6553,-0.6734,-0.6517,-0.5648,-0.5104,-0.5028,-0.5522,-0.5409,-0.4933,-0.3928,-0.3681,-0.3335,-0.2806,-0.2281,-0.1989,-0.1967,-0.1633,-0.1367,-0.1278,-0.094,-0.0704,-0.0562,0.0,0.0,0.0,0.0,0.0,0.0,0.0,0.005,0.0075,0.0,0.0,0.0,0.0,-0.0171,-0.05,-0.076,-0.0892,-0.129,-0.1532,-0.1634,-0.1644,-0.1726,-0.1907,-0.2193,-0.1876,-0.2031,-0.2501,-0.2119,-0.1624,-0.1963,-0.2054,-0.2053,-0.2109,-0.251,-0.287,0.1178,0.0832,0.088,0.0668,0.0311,0.0367,0.0406,0.0384,0.0273,0.0227,0.0226,0.0247,0.0246,0.0246,0.0246,0.0269,0.0313,0.0336,0.0483,0.0744,0.0739,0.0887,0.115,0.1152,0.1106,0.1066,0.1022,0.1012,0.092,0.0732,0.0629,0.0596,0.0425,0.0157,-0.0202,-0.0519,-0.0809,-0.1017,-0.1892,-0.2251,-0.2051,-0.2993,-0.3608,-0.3786,-0.429,-0.4822,-0.536,-0.5398,-0.562,-0.6174,-0.611,-0.6017,-0.5937,-0.6097,-0.6099,-0.5996,-0.6147,-0.5968,-0.5388,-0.5572,-0.5456,-0.4822,-0.4327,-0.4352,-0.5001,-0.4359,-0.3818,-0.3597,-0.2883,-0.2316,-0.2191,-0.1768,-0.15,-0.15,-0.1433,-0.1254,-0.0851,-0.0694,-0.0494,-0.0136,0.0,0.0,0.0,0.0,0.0,0.0,0.0,0.0175,0.0439,0.0241,0.0,0.0,0.0,0.0,-0.0184,-0.056,-0.08,-0.0945,-0.1373,-0.161,-0.1608,-0.1619,-0.1699,-0.1838,-0.1719,-0.1771,-0.1958,-0.188,-0.1685,-0.1751,-0.1772,-0.178,-0.1773,-0.1839,-0.195,0.2219,0.1977,0.177,0.154,0.1262,0.1036,0.094,0.094,0.094,0.0738,0.0403,0.0403,0.0403,0.0403,0.0403,0.0515,0.0671,0.0671,0.081,0.1072,0.1067,0.1149,0.1226,0.1183,0.1153,0.1134,0.1039,0.0993,0.0976,0.1023,0.1074,0.1089,0.1123,0.0883,0.04,0.0125,-0.0108,-0.0343,-0.1084,-0.1444,-0.1327,-0.2167,-0.2655,-0.2675,-0.3607,-0.4245,-0.4489,-0.4569,-0.4818,-0.5292,-0.5028,-0.4895,-0.5001,-0.5148,-0.523,-0.5224,-0.533,-0.5158,-0.4607,-0.4544,-0.4499,-0.4415,-0.3995,-0.3872,-0.4214,-0.3847,-0.3385,-0.2831,-0.2343,-0.1989,-0.1744,-0.1298,-0.103,-0.103,-0.0784,-0.0561,-0.0336,-0.0067,0.0134,0.0359,0.0605,0.0752,0.0759,0.0763,0.075,0.075,0.0756,0.0873,0.1054,0.0915,0.0667,0.0,0.0,0.0,0.0,-0.0208,-0.0389,-0.0426,-0.0621,-0.0798,-0.082,0.0,0.0,-0.1115,-0.1032,-0.1063,-0.1412,-0.1136,-0.0994,-0.1182,-0.1205,-0.1205,-0.1202,-0.1164,-0.126,0.3033,0.2918,0.2589,0.239,0.2255,0.19,0.1744,0.1744,0.1745,0.1452,0.0983,0.0738,0.0627,0.0627,0.0627,0.0761,0.1006,0.1086,0.1228,0.1423,0.146,0.1448,0.1326,0.1303,0.1294,0.1243,0.1176,0.1175,0.1192,0.1356,0.1456,0.1456,0.1641,0.1506,0.1035,0.0868,0.0636,0.0337,-0.0127,-0.0454,-0.0624,-0.1359,-0.1755,-0.1887,-0.2973,-0.3608,-0.3639,-0.3752,-0.3915,-0.4142,-0.3775,-0.3723,-0.4026,-0.4199,-0.4358,-0.4529,-0.4641,-0.4544,-0.4124,-0.3737,-0.3697,-0.4034,-0.3568,-0.3249,-0.3252,-0.3164,-0.2853,-0.221,-0.1898,-0.1609,-0.1276,-0.0829,-0.0515,-0.038,-0.0067,0.018,0.0337,0.065,0.0851,0.0895,0.1187,0.1384,0.1397,0.141,0.1353,0.1336,0.1463,0.1552,0.1558,0.1543,0.137,0.102,0.0534,0.0,0.0162,0.0045,0.0,0.0,0.0,0.0,0.0,0.0,0.0,-0.0451,-0.028,-0.035,-0.0871,-0.0563,-0.0271,-0.0497,-0.0588,-0.0563,-0.0564,-0.0563,-0.0628,0.3199,0.3156,0.3031,0.29,0.2811,0.2742,0.2743,0.272,0.2764,0.2719,0.2497,0.17,0.1321,0.1299,0.1321,0.1343,0.1404,0.1657,0.1774,0.179,0.2,0.1953,0.1683,0.1878,0.189,0.1691,0.1839,0.1921,0.1921,0.1926,0.1911,0.186,0.1877,0.1877,0.1792,0.1658,0.1423,0.1104,0.0984,0.058,-0.0068,-0.0866,-0.1358,-0.1546,-0.2124,-0.2492,-0.2541,-0.2564,-0.2576,-0.2608,-0.2596,-0.2674,-0.2946,-0.321,-0.3471,-0.3782,-0.4029,-0.4146,-0.4052,-0.3459,-0.3154,-0.3399,-0.2711,-0.2276,-0.2255,-0.1878,-0.1767,-0.1811,-0.1297,-0.0894,-0.0739,-0.0336,0.009,0.047,0.0604,0.0784,0.112,0.1322,0.1321,0.1344,0.1456,0.1414,0.1515,0.154,0.1472,0.1557,0.1798,0.2003,0.2044,0.2037,0.1984,0.1755,0.1212,0.0723,0.0593,0.0266,0.0,0.0,0.0,0.0,0.0,0.0,-0.0022,0.0151,0.0022,0.0022,-0.0044,-0.0022,0.0,0.0044,-0.0022,-0.0045,-0.0067,-0.0045,-0.0067,0.4034,0.3991,0.3757,0.3471,0.3207,0.3115,0.3028,0.2965,0.2965,0.2943,0.2875,0.2456,0.2276,0.2277,0.23,0.2227,0.213,0.2262,0.2218,0.2063,0.2157,0.2097,0.1964,0.2037,0.2037,0.194,0.2052,0.2102,0.2137,0.231,0.2608,0.2929,0.29,0.2737,0.2507,0.237,0.2004,0.1455,0.1407,0.1258,0.0888,0.0,-0.052,-0.0654,-0.117,-0.1504,-0.1537,-0.1655,-0.1804,-0.1976,-0.2056,-0.2221,-0.2475,-0.2678,-0.2887,-0.3134,-0.3013,-0.2867,-0.2732,-0.2274,-0.2053,-0.2213,-0.1899,-0.1678,-0.1655,-0.1252,-0.0962,-0.0849,-0.0737,-0.0492,0.0022,0.0314,0.0583,0.1008,0.112,0.1187,0.1367,0.1656,0.1811,0.1833,0.2103,0.2283,0.2283,0.2283,0.2283,0.2304,0.2442,0.2547,0.2584,0.2609,0.2588,0.2395,0.1925,0.143,0.1053,0.0812,0.0686,0.0736,0.0776,0.0777,0.0785,0.0816,0.0835,0.0794,0.0721,0.0698,0.0793,0.0694,0.0663,0.0625,0.0643,0.0664,0.0664,0.0721,0.0752,0.4835,0.4789,0.4588,0.429,0.397,0.3927,0.3836,0.3754,0.3625,0.3515,0.3465,0.3386,0.3345,0.3283,0.3001,0.27,0.2557,0.2697,0.2682,0.2537,0.2653,0.2699,0.2568,0.2644,0.2629,0.2582,0.2679,0.2695,0.271,0.2951,0.3366,0.3767,0.3737,0.3542,0.3243,0.3042,0.2601,0.1988,0.1905,0.1838,0.1654,0.102,0.0543,0.0284,-0.0201,-0.0501,-0.0651,-0.0835,-0.107,-0.1357,-0.1454,-0.1637,-0.1889,-0.2037,-0.2236,-0.2483,-0.2201,-0.1899,-0.1748,-0.1471,-0.1273,-0.1169,-0.1073,-0.0951,-0.0781,-0.0402,0.0,0.0268,0.0067,0.0224,0.0738,0.0895,0.1096,0.1521,0.1588,0.1612,0.1814,0.2123,0.2323,0.2367,0.2618,0.2955,0.3018,0.2968,0.2969,0.314,0.3143,0.3124,0.314,0.316,0.3077,0.2908,0.2539,0.2029,0.1416,0.1122,0.1188,0.1199,0.1174,0.1169,0.1319,0.1293,0.1295,0.0983,0.1192,0.1226,0.106,0.1057,0.1132,0.1115,0.1114,0.1114,0.1011,0.1174,0.1209,0.5359,0.5354,0.5395,0.5377,0.5382,0.5482,0.558,0.5436,0.5079,0.4867,0.4757,0.452,0.4418,0.4285,0.3231,0.2539,0.2462,0.3027,0.3297,0.3302,0.3789,0.3961,0.3767,0.3981,0.393,0.3649,0.3844,0.4006,0.4038,0.4092,0.4143,0.4205,0.4188,0.4124,0.3972,0.3635,0.3229,0.2749,0.2655,0.2472,0.2164,0.2156,0.179,0.1152,0.0766,0.0397,0.0033,-0.005,-0.0217,-0.0552,-0.0568,-0.0685,-0.0951,-0.1119,-0.1419,-0.1818,-0.1731,-0.1583,-0.1518,-0.1297,-0.0993,-0.0568,-0.0207,0.0107,0.0444,0.0849,0.1163,0.1321,0.1276,0.1321,0.1478,0.1432,0.1565,0.201,0.2077,0.228,0.273,0.2754,0.2843,0.2865,0.2933,0.3112,0.3349,0.3252,0.3422,0.364,0.371,0.3638,0.3672,0.3544,0.3379,0.3199,0.2845,0.2314,0.1864,0.152,0.1253,0.1295,0.1415,0.124,0.1146,0.111,0.1159,0.1195,0.1301,0.13,0.1153,0.1149,0.1272,0.1286,0.1317,0.1301,0.1414,0.1199,0.1235,0.5308,0.5397,0.5415,0.5546,0.5748,0.5801,0.5803,0.5721,0.5538,0.5241,0.497,0.4824,0.4655,0.4469,0.4017,0.3789,0.374,0.3975,0.3997,0.3901,0.4098,0.4143,0.4081,0.4175,0.4156,0.4108,0.4366,0.4632,0.4817,0.4849,0.4957,0.5064,0.4906,0.4697,0.4439,0.4066,0.3659,0.3229,0.3114,0.301,0.2876,0.2872,0.2655,0.2257,0.1564,0.1076,0.0778,0.0778,0.0644,0.0345,0.0125,-0.0095,-0.0382,-0.0707,-0.0888,-0.087,-0.0888,-0.0719,-0.0321,-0.0109,0.0154,0.0607,0.0798,0.0965,0.1135,0.132,0.161,0.2076,0.2232,0.2409,0.2721,0.2344,0.2058,0.2505,0.2616,0.2683,0.2865,0.3089,0.322,0.3243,0.3376,0.3597,0.3653,0.3676,0.3731,0.3851,0.3756,0.3719,0.3689,0.3545,0.3469,0.325,0.3099,0.2896,0.258,0.2081,0.1763,0.1844,0.19,0.196,0.1919,0.1906,0.1965,0.193,0.1862,0.1774,0.1788,0.1843,0.1855,0.1983,0.1961,0.1762,0.1882,0.1741,0.171,0.5746,0.5835,0.591,0.6029,0.616,0.6201,0.6133,0.5964,0.5779,0.5507,0.5181,0.5078,0.4911,0.4766,0.4768,0.485,0.4881,0.4694,0.4524,0.4431,0.4503,0.4551,0.4567,0.466,0.4702,0.4766,0.5049,0.5341,0.5529,0.5541,0.5669,0.584,0.5618,0.5309,0.4929,0.4523,0.4091,0.3674,0.356,0.3538,0.3527,0.3521,0.339,0.3104,0.2449,0.1926,0.1608,0.1574,0.1408,0.1053,0.0801,0.0601,0.0385,0.0114,0.0017,0.0184,0.0117,0.0268,0.0745,0.0968,0.1269,0.178,0.1925,0.202,0.2183,0.2212,0.25,0.2921,0.3075,0.3386,0.3785,0.3383,0.3008,0.3195,0.322,0.3219,0.3241,0.342,0.3529,0.3597,0.3728,0.3904,0.4058,0.4058,0.4142,0.421,0.4162,0.4113,0.4101,0.4045,0.3907,0.3664,0.3528,0.3425,0.3226,0.2883,0.2474,0.2482,0.2466,0.2557,0.2628,0.265,0.2641,0.2623,0.2567,0.2475,0.2472,0.2534,0.2621,0.2736,0.2547,0.2281,0.2324,0.2324,0.2224,0.6656,0.6675,0.6957,0.6845,0.6708,0.6796,0.6775,0.6501,0.6025,0.5796,0.5701,0.5459,0.536,0.5285,0.5382,0.5557,0.5615,0.5193,0.4927,0.4918,0.517,0.5293,0.5321,0.5554,0.571,0.5757,0.6122,0.6276,0.6272,0.6251,0.6255,0.6298,0.6204,0.5837,0.5378,0.4952,0.4522,0.4129,0.402,0.4005,0.4014,0.4058,0.395,0.3693,0.3382,0.2983,0.2452,0.2385,0.2066,0.1592,0.1496,0.1465,0.1314,0.1282,0.1372,0.1188,0.1189,0.1271,0.1482,0.1682,0.2103,0.2667,0.3019,0.3246,0.3502,0.3636,0.3722,0.3853,0.3919,0.4118,0.4552,0.4591,0.4349,0.399,0.3878,0.3858,0.3858,0.3902,0.3946,0.4032,0.4164,0.412,0.4342,0.4581,0.4727,0.4933,0.5012,0.5024,0.4934,0.4847,0.4862,0.4605,0.422,0.391,0.384,0.373,0.3364,0.3093,0.3024,0.3026,0.3071,0.31,0.3047,0.3019,0.2786,0.2696,0.2769,0.2813,0.2809,0.2861,0.2744,0.2696,0.2601,0.2553,0.2557,0.671,0.6719,0.6797,0.6921,0.7028,0.7093,0.7058,0.6994,0.6804,0.6592,0.6339,0.6236,0.6159,0.6108,0.6133,0.6168,0.6183,0.5986,0.5878,0.5854,0.594,0.5967,0.5998,0.6095,0.6268,0.6474,0.6595,0.6751,0.6819,0.6643,0.6563,0.6613,0.62,0.5831,0.5536,0.5192,0.4857,0.4648,0.4536,0.4471,0.4491,0.4461,0.4341,0.4123,0.3944,0.3719,0.3484,0.2924,0.248,0.2176,0.2054,0.1883,0.1666,0.1542,0.152,0.1573,0.1506,0.169,0.2113,0.2409,0.2767,0.3216,0.3532,0.3716,0.3871,0.3968,0.4204,0.4607,0.4739,0.4998,0.5602,0.5773,0.5411,0.4631,0.4419,0.4334,0.4246,0.4478,0.4954,0.5454,0.5542,0.5604,0.5645,0.5666,0.5593,0.5543,0.5534,0.5439,0.5191,0.5083,0.4892,0.4725,0.45,0.4443,0.4417,0.4387,0.4221,0.3922,0.3774,0.3612,0.3614,0.36,0.3537,0.3392,0.3151,0.3039,0.3093,0.3093,0.3089,0.3093,0.3093,0.2977,0.2797,0.2747,0.2729,0.7187,0.7087,0.7212,0.7213,0.7211,0.72,0.7112,0.7017,0.7022,0.687,0.6666,0.6641,0.6602,0.6548,0.6548,0.6587,0.6622,0.6622,0.6675,0.6654,0.6372,0.6295,0.6326,0.644,0.6645,0.6893,0.6957,0.6996,0.7063,0.6855,0.6722,0.6639,0.6274,0.5951,0.5762,0.5551,0.5348,0.5137,0.4978,0.4919,0.4951,0.4947,0.4913,0.4875,0.4861,0.4821,0.4672,0.3947,0.3292,0.283,0.2596,0.2469,0.2355,0.2357,0.2352,0.2388,0.245,0.2631,0.3024,0.3396,0.3778,0.4176,0.4475,0.471,0.4786,0.4787,0.5062,0.5427,0.5551,0.5832,0.6398,0.6543,0.6249,0.5798,0.5432,0.5151,0.5017,0.5274,0.5661,0.6094,0.6225,0.6265,0.6199,0.6247,0.6172,0.5938,0.5834,0.5751,0.5484,0.5321,0.5187,0.5055,0.496,0.496,0.5008,0.5008,0.5023,0.4811,0.46,0.4389,0.4245,0.4245,0.4197,0.4054,0.3844,0.3635,0.364,0.346,0.3395,0.3417,0.3375,0.3161,0.2979,0.2929,0.2911,0.8024,0.7788,0.8077,0.7836,0.7337,0.7317,0.7167,0.6842,0.6872,0.6876,0.6805,0.6904,0.6835,0.6738,0.6859,0.6968,0.7038,0.7098,0.725,0.7264,0.6891,0.6517,0.6501,0.671,0.6953,0.7172,0.716,0.7078,0.6986,0.68,0.6729,0.6513,0.6398,0.6307,0.6054,0.6008,0.5837,0.5569,0.5377,0.5343,0.5441,0.5564,0.5677,0.5841,0.6074,0.6136,0.5889,0.5368,0.4466,0.3387,0.3222,0.333,0.3513,0.3666,0.3619,0.3593,0.3754,0.3846,0.4133,0.436,0.4792,0.5231,0.5535,0.5995,0.5962,0.594,0.6051,0.6243,0.6289,0.6501,0.6919,0.7045,0.7048,0.7143,0.6528,0.6185,0.6292,0.631,0.6437,0.6501,0.6446,0.6424,0.6411,0.6548,0.6418,0.6248,0.623,0.6176,0.6044,0.5865,0.5693,0.5566,0.5444,0.5346,0.5358,0.5346,0.5378,0.55,0.5308,0.5128,0.4871,0.4823,0.4763,0.4619,0.4456,0.4264,0.4089,0.3897,0.3723,0.3665,0.352,0.3309,0.3257,0.3272,0.3187,0.837,0.8115,0.8375,0.8271,0.7961,0.7942,0.7754,0.749,0.7705,0.7618,0.7534,0.7695,0.7744,0.7778,0.7749,0.7903,0.795,0.782,0.7883,0.8051,0.7705,0.7275,0.7032,0.7047,0.7236,0.7414,0.7168,0.7024,0.7073,0.6533,0.6311,0.6403,0.6164,0.6098,0.6175,0.6226,0.6165,0.6047,0.5978,0.592,0.5932,0.6332,0.6548,0.663,0.6969,0.7096,0.6976,0.6578,0.5579,0.4169,0.4115,0.4232,0.4343,0.4361,0.4378,0.4421,0.4424,0.4488,0.4704,0.4894,0.5094,0.5237,0.5734,0.5909,0.5998,0.6211,0.644,0.6698,0.6828,0.7024,0.7416,0.7538,0.7691,0.787,0.7206,0.668,0.6825,0.6825,0.7063,0.7697,0.7804,0.7833,0.7889,0.7826,0.7629,0.7315,0.7044,0.6823,0.6642,0.6301,0.6079,0.6033,0.5928,0.5761,0.5663,0.5671,0.578,0.6033,0.5982,0.5851,0.5578,0.5358,0.5251,0.5128,0.4893,0.4699,0.4497,0.4309,0.4153,0.3928,0.3956,0.3872,0.384,0.3837,0.3623,0.8751,0.8463,0.8748,0.8678,0.8418,0.8375,0.8267,0.8134,0.8267,0.8257,0.8143,0.8267,0.8366,0.8386,0.8361,0.8421,0.8503,0.8335,0.8326,0.8402,0.8222,0.7931,0.7661,0.7525,0.7535,0.7646,0.7248,0.7094,0.703,0.6443,0.6254,0.6286,0.6122,0.6171,0.6402,0.6428,0.6448,0.6479,0.6596,0.669,0.6661,0.7245,0.7571,0.7695,0.7951,0.8033,0.772,0.76,0.6898,0.5815,0.5462,0.5432,0.5546,0.5426,0.5321,0.5303,0.5303,0.5331,0.5331,0.5408,0.5514,0.5679,0.6038,0.6285,0.6547,0.6864,0.7349,0.7569,0.7714,0.7966,0.8156,0.8242,0.8369,0.8488,0.7979,0.7648,0.7807,0.7889,0.8082,0.8488,0.8651,0.8662,0.8812,0.8695,0.8427,0.8,0.7618,0.7429,0.7239,0.6815,0.6559,0.6598,0.6591,0.649,0.6423,0.643,0.6338,0.6561,0.669,0.6551,0.6296,0.5986,0.5714,0.5557,0.533,0.5118,0.4947,0.4727,0.4428,0.4312,0.4403,0.4368,0.424,0.4194,0.4013,0.916,0.8885,0.9131,0.905,0.877,0.8692,0.8609,0.8575,0.8623,0.8614,0.8567,0.8614,0.8656,0.8656,0.867,0.8673,0.8734,0.8678,0.8651,0.8664,0.8598,0.8475,0.8313,0.7921,0.7873,0.7908,0.7483,0.7258,0.7091,0.6679,0.6424,0.6387,0.6328,0.6439,0.6601,0.6627,0.6704,0.6827,0.7207,0.7389,0.7553,0.8108,0.8548,0.8681,0.8892,0.8815,0.8561,0.8518,0.8294,0.7517,0.6963,0.6762,0.6887,0.6689,0.6464,0.6248,0.6244,0.6202,0.6056,0.6024,0.6137,0.6439,0.6697,0.6981,0.7343,0.7914,0.8304,0.8365,0.8777,0.8814,0.8879,0.898,0.9088,0.9159,0.9123,0.9208,0.9212,0.9112,0.9036,0.9136,0.9123,0.8974,0.893,0.891,0.8991,0.8868,0.8484,0.8315,0.7974,0.7491,0.7366,0.7403,0.7367,0.7288,0.7249,0.7237,0.7118,0.7117,0.7305,0.7273,0.7026,0.6704,0.6269,0.5994,0.589,0.568,0.5439,0.5143,0.4852,0.4714,0.4804,0.4593,0.4384,0.439,0.4293,0.9507,0.9207,0.9492,0.9412,0.9118,0.9075,0.8886,0.8645,0.8891,0.8878,0.8726,0.8878,0.8993,0.9012,0.9048,0.9094,0.9245,0.9116,0.9004,0.9018,0.9104,0.9106,0.8941,0.8506,0.8273,0.8218,0.7853,0.7551,0.7332,0.695,0.6661,0.6548,0.6543,0.6636,0.6791,0.6853,0.6807,0.6936,0.7561,0.7935,0.8086,0.8835,0.9323,0.9332,0.9541,0.9618,0.955,0.9573,0.9509,0.9119,0.8352,0.7741,0.7569,0.7477,0.7271,0.6993,0.6874,0.6813,0.6738,0.6627,0.6723,0.7098,0.7383,0.7811,0.8209,0.86,0.8853,0.8879,0.8964,0.9132,0.9232,0.9355,0.9638,0.9948,1.0235,1.0548,1.0653,0.9805,0.9474,0.9791,0.9958,1.0041,1.0283,1.0245,1.0095,0.9745,0.9474,0.9288,0.8778,0.8202,0.8174,0.8226,0.8197,0.8171,0.8253,0.8242,0.8151,0.805,0.8145,0.82,0.7956,0.7582,0.722,0.685,0.6497,0.6299,0.6125,0.5817,0.5559,0.539,0.5223,0.509,0.4963,0.4842,0.4576,0.9815,0.9764,0.9756,0.9639,0.948,0.9452,0.9305,0.9145,0.9354,0.9354,0.9255,0.9467,0.9567,0.9579,0.9574,0.9653,0.973,0.9646,0.958,0.9593,0.9646,0.9673,0.9639,0.9297,0.8996,0.8694,0.7898,0.7613,0.7511,0.7106,0.6708,0.6744,0.6757,0.6774,0.6955,0.7155,0.7262,0.7484,0.8323,0.8789,0.8756,0.9483,0.9879,0.9736,0.9824,0.9886,0.9861,0.9867,0.9873,0.9732,0.928,0.872,0.8347,0.8174,0.7912,0.7554,0.7398,0.7256,0.7133,0.7,0.702,0.7482,0.7761,0.8089,0.8525,0.8961,0.9387,0.9564,0.9785,0.9971,1.0157,1.0321,1.0624,1.0757,1.1038,1.1268,1.1287,1.0691,1.0302,1.0709,1.0828,1.0933,1.1084,1.1135,1.0892,1.0397,1.029,1.0081,0.9561,0.9076,0.9019,0.905,0.9042,0.9085,0.9234,0.9272,0.9272,0.9219,0.923,0.9256,0.9156,0.8721,0.8261,0.7871,0.748,0.7171,0.6959,0.6623,0.6358,0.6137,0.5971,0.5792,0.5627,0.5468,0.5116,1.0167,1.0316,1.0008,0.9873,0.9854,0.9743,0.9645,0.9624,0.9828,0.9796,0.9854,1.0021,1.0002,1.0065,1.0053,1.0091,1.0078,1.0065,0.9989,0.9989,0.9989,1.0002,0.9989,0.9861,0.9602,0.9052,0.8398,0.8104,0.7914,0.739,0.7253,0.7123,0.7184,0.7205,0.7223,0.7554,0.7873,0.8081,0.9083,0.9684,0.9579,1.0157,1.0306,0.9957,0.9887,0.9886,0.9886,0.9886,0.9886,0.9886,0.9886,0.9637,0.9269,0.8803,0.8486,0.8004,0.7855,0.7744,0.7698,0.7502,0.75,0.7838,0.8183,0.8505,0.9006,0.96,1.007,1.0408,1.0686,1.0981,1.1442,1.1324,1.1399,1.1534,1.1584,1.1621,1.1677,1.1713,1.1695,1.1505,1.1481,1.1523,1.1603,1.1656,1.1367,1.1124,1.1041,1.0836,1.0349,0.9997,0.9928,1.0042,1.0092,1.0352,1.0503,1.065,1.0621,1.0408,1.0374,1.0433,1.0433,1.0231,0.9799,0.8966,0.8527,0.8239,0.797,0.7712,0.7413,0.7039,0.6874,0.6831,0.655,0.6144,0.5772,1.0602,1.0606,1.0329,1.0185,1.0103,0.9886,0.9775,0.9723,0.9886,0.9912,0.9931,1.0059,1.0154,1.0141,1.0122,1.0116,1.0179,1.0192,1.0147,1.0154,1.0154,1.0147,1.0166,1.016,0.9964,0.979,0.9373,0.915,0.8863,0.8735,0.8068,0.7781,0.7988,0.8005,0.7816,0.8132,0.855,0.8776,0.9632,1.0113,1.0271,1.0479,1.0528,1.0021,0.9938,0.9912,0.9905,0.9893,0.9886,0.9886,0.9893,0.9996,0.9935,0.9417,0.9012,0.8802,0.8465,0.8421,0.8617,0.8459,0.8662,0.9142,0.949,0.9936,1.0381,1.0814,1.0993,1.1196,1.1338,1.1473,1.1497,1.1695,1.1756,1.1902,1.2084,1.2174,1.2437,1.2585,1.2532,1.2192,1.2078,1.206,1.2186,1.2282,1.213,1.1955,1.1832,1.1716,1.1411,1.1046,1.081,1.1,1.1231,1.1558,1.1869,1.2037,1.2083,1.1699,1.165,1.1822,1.183,1.1859,1.1394,1.0471,0.977,0.9407,0.9124,0.8866,0.8564,0.8281,0.8106,0.7935,0.7551,0.7167,0.6874,1.0777,1.0873,1.0625,1.0484,1.0435,1.0323,1.023,1.0198,1.0342,1.0404,1.0429,1.0533,1.0619,1.0624,1.0612,1.0575,1.0514,1.0484,1.0447,1.0429,1.041,1.041,1.0404,1.0411,1.038,1.0305,1.0216,0.9834,0.9179,0.8896,0.8641,0.8378,0.8494,0.8435,0.8374,0.8756,0.9105,0.9456,1.0025,1.0423,1.0363,1.0504,1.0297,1.011,0.9982,0.9938,0.9949,1.0219,1.0293,1.0368,1.0615,1.082,1.0776,1.0494,1.0035,0.988,0.9567,0.9506,0.9773,0.9646,0.9776,1.0266,1.0501,1.0719,1.1094,1.1345,1.1634,1.1847,1.2234,1.2324,1.2365,1.2407,1.2632,1.2755,1.2796,1.2878,1.3064,1.3226,1.3058,1.2796,1.286,1.2871,1.2901,1.2924,1.289,1.2785,1.2638,1.2466,1.2304,1.2027,1.167,1.1664,1.1875,1.2189,1.2544,1.2836,1.3029,1.2804,1.2631,1.2813,1.2813,1.2649,1.241,1.1846,1.125,1.0646,1.0376,1.0146,0.9839,0.952,0.9288,0.9003,0.8575,0.8204,0.7959,1.1003,1.1159,1.0915,1.0796,1.0803,1.0724,1.0658,1.0656,1.0789,1.0837,1.0849,1.0991,1.1069,1.1099,1.1062,1.1003,1.0908,1.0837,1.0753,1.0693,1.0663,1.0687,1.0706,1.0699,1.0632,1.0571,1.0656,1.0283,0.9736,0.9343,0.9015,0.8941,0.8899,0.8859,0.8952,0.9441,0.9647,0.9959,1.0373,1.0595,1.0355,1.0217,1.0122,1.0021,1.0008,0.9963,1.0046,1.0319,1.0685,1.0936,1.1311,1.1686,1.1872,1.1707,1.1508,1.136,1.1014,1.077,1.0778,1.0603,1.0637,1.1121,1.118,1.1415,1.1703,1.2001,1.2121,1.2401,1.2773,1.3105,1.3082,1.3329,1.3419,1.3412,1.3412,1.3486,1.3459,1.351,1.3567,1.3503,1.3598,1.3531,1.3395,1.3293,1.3196,1.3179,1.3035,1.2984,1.2829,1.274,1.2479,1.232,1.2396,1.2698,1.3013,1.3331,1.351,1.3494,1.334,1.3362,1.3316,1.3204,1.2954,1.2761,1.2492,1.1934,1.1702,1.141,1.1132,1.081,1.0459,1.0172,0.9875,0.9537,0.922,1.1501,1.1527,1.124,1.1132,1.1097,1.0856,1.0712,1.0743,1.0873,1.0897,1.0939,1.1052,1.1134,1.1134,1.1123,1.1069,1.0991,1.0932,1.0861,1.0796,1.0748,1.0718,1.0706,1.0706,1.0705,1.0705,1.0856,1.0871,1.0552,1.0256,0.9982,0.9785,0.9856,0.9874,0.9548,1.0094,1.0529,1.0596,1.0874,1.0922,1.0682,1.0516,1.0361,1.0173,1.0072,1.0097,1.0274,1.0495,1.0794,1.1455,1.1622,1.2203,1.2944,1.3159,1.3442,1.3072,1.218,1.0926,1.1411,1.1439,1.1479,1.1972,1.2142,1.2431,1.2625,1.2882,1.3068,1.3304,1.3442,1.3448,1.3452,1.3503,1.3514,1.3547,1.3621,1.3581,1.3581,1.3795,1.3851,1.3894,1.3904,1.3772,1.3628,1.3537,1.3463,1.3469,1.345,1.3393,1.3338,1.3233,1.3024,1.2783,1.2983,1.3292,1.3394,1.372,1.3963,1.4072,1.3863,1.3769,1.3631,1.3523,1.363,1.3435,1.324,1.3041,1.2672,1.2423,1.2315,1.1965,1.1462,1.1347,1.1335,1.0911,1.0234,1.1681,1.1597,1.1471,1.1429,1.141,1.1266,1.1178,1.1155,1.1201,1.1243,1.1254,1.1289,1.1326,1.1307,1.1303,1.1231,1.1169,1.1069,1.0963,1.0868,1.0789,1.0743,1.0718,1.073,1.0729,1.0873,1.0979,1.1171,1.1129,1.1029,1.0729,1.059,1.0623,1.0559,1.0186,1.0657,1.0774,1.0806,1.092,1.1041,1.0932,1.0861,1.0758,1.0606,1.0526,1.0545,1.0611,1.0933,1.114,1.1722,1.2109,1.2781,1.3322,1.3669,1.4042,1.4103,1.343,1.2949,1.3067,1.287,1.2874,1.301,1.3221,1.3289,1.3359,1.3423,1.3514,1.348,1.3644,1.3711,1.3778,1.3871,1.3921,1.3937,1.3871,1.3888,1.3904,1.4003,1.4124,1.418,1.4206,1.4118,1.4052,1.4029,1.3914,1.3751,1.3762,1.3779,1.3731,1.3662,1.3397,1.3094,1.3466,1.3933,1.3918,1.4052,1.4375,1.441,1.3964,1.3866,1.3785,1.3757,1.3774,1.3893,1.3781,1.3614,1.3441,1.3118,1.272,1.2541,1.2374,1.2004,1.1608,1.1133,1.046,1.1883,1.171,1.1641,1.1623,1.163,1.1604,1.1575,1.1526,1.1511,1.1511,1.1507,1.1492,1.1492,1.1492,1.144,1.1369,1.1312,1.1201,1.108,1.0963,1.0861,1.0803,1.0784,1.0777,1.0915,1.1123,1.1247,1.1381,1.1505,1.1505,1.1366,1.1206,1.1043,1.0959,1.0902,1.1006,1.109,1.097,1.1031,1.108,1.1076,1.1062,1.1015,1.0979,1.0979,1.0968,1.1008,1.1235,1.1448,1.2006,1.2491,1.3004,1.3393,1.3909,1.4207,1.4351,1.4115,1.4344,1.4235,1.4075,1.4133,1.4107,1.4098,1.3901,1.3815,1.3732,1.3698,1.3772,1.3878,1.3984,1.4016,1.418,1.4196,1.4212,1.4252,1.4284,1.4332,1.4358,1.4415,1.4511,1.4567,1.4655,1.4592,1.456,1.4392,1.4105,1.4063,1.4131,1.4185,1.4205,1.3975,1.3726,1.4056,1.4299,1.3903,1.4083,1.4506,1.4591,1.412,1.3749,1.3534,1.3593,1.3688,1.3862,1.3992,1.3721,1.3271,1.3184,1.307,1.2772,1.2454,1.2021,1.1603,1.1129,1.0539,1.2312,1.2037,1.1804,1.1703,1.1696,1.1626,1.159,1.1593,1.1586,1.1563,1.1519,1.1504,1.1515,1.1504,1.1478,1.1444,1.1395,1.1312,1.1204,1.1087,1.097,1.0892,1.0861,1.0939,1.1076,1.1185,1.1373,1.1568,1.1736,1.1837,1.1689,1.1497,1.1354,1.119,1.1136,1.1226,1.1363,1.1265,1.1245,1.1178,1.1174,1.1132,1.1097,1.105,1.1003,1.1015,1.125,1.1364,1.162,1.2231,1.2524,1.2836,1.3268,1.3848,1.412,1.422,1.4527,1.4734,1.4743,1.4505,1.4211,1.4257,1.4328,1.4353,1.4264,1.4254,1.4238,1.4173,1.418,1.4219,1.4245,1.4293,1.4316,1.4316,1.4332,1.4381,1.4461,1.462,1.4692,1.4817,1.4896,1.495,1.4989,1.4928,1.482,1.4536,1.4583,1.4655,1.4905,1.4919,1.4696,1.4578,1.4797,1.4595,1.3668,1.3899,1.4586,1.4319,1.3757,1.3376,1.3065,1.3241,1.3685,1.3509,1.3551,1.3333,1.3135,1.2898,1.2736,1.2733,1.2435,1.175,1.1181,1.0634,1.0091,1.2453,1.234,1.2231,1.2006,1.1692,1.1681,1.1626,1.159,1.1601,1.159,1.1563,1.1563,1.1541,1.1507,1.1504,1.1485,1.1444,1.1387,1.1307,1.1234,1.1134,1.1027,1.101,1.101,1.1085,1.1224,1.1448,1.1568,1.1652,1.1869,1.1869,1.1711,1.1623,1.1512,1.146,1.1408,1.1479,1.1597,1.1571,1.1534,1.1534,1.1523,1.1493,1.1482,1.1471,1.1464,1.1527,1.1493,1.171,1.197,1.2271,1.2565,1.2852,1.3423,1.3701,1.3751,1.4086,1.4362,1.4761,1.4687,1.4827,1.4787,1.4803,1.4697,1.4552,1.4492,1.4401,1.436,1.4319,1.4349,1.43,1.43,1.4316,1.4316,1.4381,1.4477,1.4613,1.4817,1.498,1.5103,1.5164,1.5202,1.5232,1.524,1.5126,1.4989,1.5081,1.5187,1.5404,1.5543,1.5289,1.5086,1.5253,1.489,1.3994,1.4284,1.4747,1.4096,1.3423,1.3247,1.3064,1.3456,1.3756,1.3465,1.3278,1.3318,1.3127,1.2616,1.2415,1.2446,1.1928,1.1164,1.0638,1.0208,0.9743,1.2666,1.2617,1.259,1.2294,1.1836,1.1815,1.1797,1.1736,1.1659,1.1619,1.1597,1.1597,1.1563,1.1526,1.1504,1.1504,1.1492,1.1458,1.1395,1.1326,1.1243,1.1143,1.1085,1.1085,1.1167,1.1259,1.1339,1.1437,1.1681,1.1808,1.188,1.193,1.193,1.1805,1.1667,1.1575,1.1619,1.1765,1.1808,1.1808,1.1787,1.1787,1.1776,1.1765,1.1736,1.1725,1.1703,1.167,1.1652,1.1807,1.1982,1.2132,1.2398,1.2679,1.3051,1.3154,1.3314,1.3605,1.4072,1.4754,1.5086,1.4756,1.4639,1.4577,1.4536,1.4428,1.4235,1.4536,1.447,1.4413,1.4406,1.4463,1.4518,1.4565,1.474,1.4842,1.4943,1.5111,1.5262,1.5389,1.5477,1.5631,1.5646,1.566,1.5499,1.5396,1.5382,1.5521,1.5769,1.5838,1.5774,1.5602,1.5546,1.4999,1.4398,1.4253,1.4049,1.37,1.3213,1.3344,1.3374,1.3702,1.364,1.3186,1.312,1.3368,1.2952,1.22,1.2113,1.2204,1.1549,1.0846,1.0554,1.0168,0.9623,1.3058,1.2889,1.2818,1.2535,1.2123,1.2097,1.2086,1.2065,1.1862,1.174,1.1678,1.1663,1.1608,1.156,1.1552,1.1541,1.1523,1.1507,1.1474,1.1407,1.1346,1.1224,1.1185,1.1215,1.1213,1.1229,1.1279,1.1437,1.1732,1.1743,1.188,1.2051,1.2051,1.2002,1.188,1.1819,1.1797,1.1808,1.1808,1.1819,1.1808,1.1808,1.1808,1.1808,1.1808,1.1787,1.1787,1.1754,1.1721,1.1785,1.1767,1.1814,1.1828,1.2229,1.2463,1.2444,1.297,1.3276,1.3468,1.4537,1.4645,1.4278,1.4134,1.4077,1.4019,1.3988,1.4104,1.4483,1.4667,1.4632,1.4664,1.4712,1.478,1.4865,1.5035,1.5165,1.527,1.5352,1.5485,1.5675,1.5947,1.6166,1.6159,1.6117,1.5932,1.5803,1.5732,1.5839,1.6046,1.6065,1.601,1.592,1.5762,1.523,1.4582,1.3772,1.3369,1.3071,1.3157,1.3464,1.354,1.3675,1.3442,1.2936,1.2869,1.3021,1.2397,1.1648,1.1799,1.1882,1.128,1.0714,1.0453,1.0078,0.951,1.3113,1.2908,1.3017,1.29,1.262,1.2429,1.2348,1.235,1.2269,1.2187,1.2109,1.2039,1.1898,1.1791,1.1682,1.1641,1.1623,1.1523,1.1493,1.159,1.1504,1.1399,1.1342,1.1307,1.1247,1.1155,1.1175,1.129,1.1441,1.1582,1.1772,1.1946,1.2101,1.2062,1.1991,1.1941,1.193,1.1869,1.1869,1.1859,1.1819,1.1808,1.1808,1.1808,1.1808,1.1808,1.1808,1.1765,1.1743,1.1751,1.1692,1.1641,1.1615,1.1953,1.192,1.1885,1.2226,1.2376,1.2769,1.3486,1.3856,1.3663,1.3586,1.3553,1.3547,1.387,1.4126,1.4391,1.4661,1.4745,1.5066,1.5067,1.5113,1.5134,1.5255,1.5382,1.5485,1.5587,1.5703,1.5947,1.6194,1.6208,1.6208,1.6208,1.6074,1.6038,1.5968,1.5982,1.6145,1.6145,1.6107,1.6071,1.5903,1.5427,1.4823,1.4005,1.3435,1.3207,1.3517,1.4001,1.3993,1.3773,1.3355,1.2921,1.2759,1.259,1.2037,1.1615,1.1619,1.1488,1.1113,1.0664,1.0305,0.9873,0.9321,1.3201,1.3087,1.3184,1.3158,1.3007,1.2735,1.2582,1.2526,1.2506,1.2449,1.2383,1.2284,1.2185,1.2039,1.1915,1.1844,1.1833,1.174,1.1682,1.1787,1.1718,1.1597,1.1504,1.1459,1.1396,1.1259,1.121,1.1283,1.1538,1.1571,1.1776,1.2009,1.2083,1.2112,1.2073,1.2033,1.198,1.1941,1.193,1.192,1.1891,1.188,1.1869,1.1848,1.1837,1.1837,1.1797,1.1765,1.1725,1.1703,1.1692,1.1652,1.1656,1.1637,1.1619,1.1604,1.1641,1.1816,1.2198,1.2422,1.2726,1.2699,1.2925,1.3021,1.3061,1.3288,1.366,1.3985,1.4406,1.4579,1.4753,1.4825,1.4904,1.4889,1.5025,1.5121,1.5453,1.5528,1.5775,1.603,1.6208,1.6208,1.6208,1.6208,1.6159,1.6173,1.6194,1.6208,1.6208,1.6194,1.6157,1.6099,1.5797,1.5228,1.4747,1.4222,1.372,1.3355,1.3643,1.4038,1.4076,1.3782,1.334,1.2883,1.253,1.2198,1.1874,1.1626,1.1604,1.1521,1.1315,1.0821,1.0238,0.9903,0.9595,1.3346,1.3405,1.3346,1.332,1.3235,1.2964,1.2724,1.2555,1.2546,1.2514,1.2441,1.2463,1.2395,1.2297,1.2179,1.212,1.2105,1.2029,1.2023,1.1994,1.1973,1.1826,1.1732,1.1711,1.1597,1.1508,1.1467,1.1531,1.178,1.1826,1.198,1.2122,1.2171,1.2182,1.2143,1.2083,1.2033,1.2012,1.2002,1.198,1.1977,1.197,1.1941,1.192,1.1909,1.1869,1.1837,1.1797,1.1797,1.1797,1.1797,1.1765,1.1736,1.1714,1.167,1.1641,1.1641,1.1645,1.1759,1.1933,1.1884,1.208,1.2267,1.2345,1.2505,1.2751,1.32,1.3564,1.3936,1.3879,1.3879,1.4019,1.4146,1.425,1.4402,1.4715,1.5159,1.5438,1.5723,1.5962,1.6147,1.6208,1.6208,1.6208,1.6236,1.6208,1.6208,1.6208,1.6208,1.6208,1.6163,1.6059,1.5656,1.4951,1.4516,1.4243,1.3691,1.324,1.3284,1.356,1.3648,1.3658,1.3174,1.2661,1.2164,1.1829,1.1674,1.1604,1.1571,1.1474,1.1387,1.1186,1.0673,1.0641,1.044,1.368,1.3672,1.3548,1.3526,1.3477,1.3252,1.3096,1.3008,1.2996,1.2983,1.2964,1.2829,1.2681,1.2569,1.2437,1.239,1.2338,1.2309,1.231,1.228,1.2195,1.206,1.1965,1.192,1.1812,1.1729,1.1711,1.1757,1.1888,1.1991,1.2093,1.2192,1.2203,1.2203,1.2192,1.2143,1.2122,1.2083,1.2073,1.2059,1.2038,1.2012,1.1991,1.1962,1.1962,1.192,1.1869,1.1848,1.1848,1.1869,1.1826,1.1797,1.1859,1.1808,1.1776,1.1909,1.1797,1.1689,1.1858,1.1768,1.1729,1.1863,1.2066,1.197,1.2089,1.2401,1.2868,1.3169,1.3528,1.3577,1.3663,1.377,1.3913,1.4084,1.4322,1.4762,1.521,1.5632,1.5928,1.6171,1.6344,1.6303,1.6297,1.6256,1.6269,1.6236,1.6208,1.6208,1.6208,1.6208,1.6179,1.6088,1.5742,1.5121,1.4678,1.4366,1.3702,1.3177,1.3295,1.3306,1.3261,1.3189,1.2854,1.2473,1.2019,1.1778,1.1626,1.1582,1.1544,1.1533,1.1451,1.133,1.1208,1.1092,1.097,1.382,1.3789,1.3726,1.3658,1.3573,1.3412,1.3312,1.3278,1.3225,1.3223,1.3188,1.304,1.2924,1.2833,1.2723,1.2658,1.2658,1.2567,1.2552,1.2534,1.241,1.2307,1.2223,1.2177,1.2107,1.2015,1.1976,1.2031,1.2078,1.2128,1.2208,1.2208,1.2205,1.2205,1.2205,1.2195,1.2171,1.2143,1.2133,1.2122,1.2093,1.2062,1.2041,1.2002,1.2002,1.1952,1.188,1.1869,1.1859,1.1869,1.1819,1.1819,1.1883,1.1876,1.1929,1.206,1.2094,1.2079,1.2182,1.2112,1.2089,1.2099,1.2112,1.208,1.2119,1.2343,1.2554,1.2761,1.3134,1.3429,1.3554,1.3672,1.3875,1.4078,1.4494,1.4932,1.5397,1.5882,1.6192,1.6462,1.6517,1.6477,1.6431,1.6384,1.631,1.6236,1.6208,1.6208,1.6208,1.6208,1.6194,1.6142,1.582,1.5386,1.4941,1.4508,1.4085,1.3678,1.3628,1.3548,1.3189,1.284,1.263,1.229,1.19,1.1755,1.1688,1.157,1.1515,1.1504,1.1492,1.141,1.1342,1.1285,1.1146,1.3788,1.375,1.3792,1.3716,1.3589,1.3454,1.3396,1.3379,1.3268,1.3215,1.3189,1.3128,1.3084,1.3013,1.2941,1.2897,1.2879,1.2813,1.2782,1.2812,1.2709,1.2585,1.2501,1.2514,1.2366,1.2316,1.2298,1.2264,1.2274,1.2264,1.2233,1.2215,1.2226,1.2226,1.2223,1.2228,1.2208,1.2195,1.2184,1.2184,1.2192,1.2171,1.2133,1.2041,1.2012,1.198,1.188,1.1837,1.1808,1.1819,1.1819,1.1819,1.1854,1.1974,1.2058,1.2179,1.2289,1.2412,1.2441,1.239,1.2395,1.2375,1.2327,1.2337,1.2398,1.2311,1.2419,1.2513,1.2858,1.2992,1.3096,1.3454,1.3746,1.42,1.4713,1.5229,1.5758,1.6184,1.6498,1.6717,1.6771,1.6725,1.668,1.6628,1.661,1.6412,1.6357,1.6371,1.6283,1.6283,1.6228,1.6177,1.5694,1.5329,1.4996,1.4636,1.456,1.4317,1.4074,1.3628,1.3165,1.2787,1.2444,1.2229,1.2033,1.1883,1.1783,1.1766,1.1696,1.1474,1.1466,1.1478,1.144,1.1386,1.1307,1.335,1.3398,1.3733,1.378,1.3589,1.3463,1.3396,1.3396,1.332,1.3252,1.3208,1.3181,1.3145,1.3093,1.3075,1.3049,1.3022,1.3004,1.3003,1.294,1.2877,1.2766,1.2639,1.2607,1.2542,1.2477,1.2441,1.2433,1.2383,1.2325,1.2274,1.2274,1.2269,1.2272,1.2274,1.2272,1.2251,1.2221,1.2221,1.2208,1.2203,1.2203,1.2171,1.2143,1.2133,1.2093,1.2023,1.2002,1.1991,1.198,1.1909,1.1859,1.1819,1.2013,1.221,1.237,1.2439,1.2594,1.2682,1.2646,1.2606,1.267,1.2652,1.2671,1.2604,1.2405,1.2343,1.2419,1.2499,1.2589,1.283,1.3294,1.3833,1.4427,1.5019,1.5605,1.6188,1.6513,1.6853,1.6942,1.7019,1.6993,1.6955,1.6904,1.6879,1.6853,1.6828,1.6776,1.657,1.649,1.6342,1.6159,1.5503,1.5112,1.493,1.4854,1.4808,1.453,1.4199,1.3694,1.3203,1.2865,1.26,1.2426,1.226,1.224,1.2245,1.2231,1.2086,1.185,1.1562,1.1615,1.1454,1.1363,1.1325,1.3544,1.3284,1.3703,1.387,1.3784,1.3528,1.343,1.3471,1.3388,1.3303,1.3252,1.3216,1.3171,1.3145,1.3154,1.3119,1.311,1.3145,1.3101,1.3048,1.2968,1.2887,1.2793,1.2706,1.263,1.2573,1.2538,1.2509,1.2471,1.2413,1.2383,1.2343,1.2325,1.2323,1.2333,1.2323,1.2295,1.2238,1.2246,1.2257,1.2246,1.2244,1.219,1.2182,1.2161,1.2163,1.2083,1.2051,1.2023,1.2012,1.1962,1.2026,1.2071,1.2231,1.2416,1.2588,1.2709,1.2792,1.2903,1.2911,1.2837,1.2893,1.2886,1.285,1.2805,1.2625,1.2555,1.262,1.2652,1.2728,1.3339,1.383,1.473,1.5462,1.5958,1.6486,1.6958,1.733,1.7466,1.7464,1.7467,1.7376,1.7304,1.7187,1.713,1.6942,1.6972,1.6964,1.6807,1.6693,1.6541,1.6297,1.5735,1.545,1.5439,1.5299,1.513,1.4791,1.4494,1.4331,1.4087,1.3299,1.2784,1.2922,1.2971,1.2883,1.2876,1.2851,1.2778,1.2623,1.2192,1.1806,1.1604,1.1417,1.1336,1.3865,1.3302,1.373,1.4009,1.4042,1.3639,1.3495,1.3557,1.3471,1.3371,1.332,1.3242,1.3215,1.3215,1.3206,1.3154,1.3128,1.3163,1.3154,1.311,1.3031,1.2942,1.2887,1.2822,1.2738,1.267,1.2638,1.2616,1.2605,1.2522,1.2465,1.2405,1.2383,1.2361,1.2381,1.2371,1.2343,1.2307,1.232,1.237,1.2344,1.2316,1.2295,1.2238,1.2275,1.2303,1.2245,1.2269,1.2288,1.2387,1.2549,1.2677,1.2848,1.3038,1.3159,1.3367,1.3583,1.3543,1.34,1.3356,1.3232,1.3133,1.3064,1.302,1.2982,1.3025,1.2956,1.2996,1.3035,1.3368,1.3984,1.4671,1.5614,1.6335,1.6811,1.7204,1.7599,1.7914,1.788,1.7847,1.7772,1.7673,1.7592,1.7472,1.7345,1.7142,1.7047,1.6989,1.6939,1.6884,1.6768,1.6586,1.6236,1.6051,1.5978,1.5753,1.5526,1.5555,1.5356,1.5237,1.4889,1.3968,1.3547,1.382,1.3823,1.3683,1.3578,1.3531,1.3456,1.3283,1.2742,1.2216,1.1899,1.1696,1.1451,1.3413,1.3262,1.3885,1.4154,1.4116,1.378,1.3627,1.3588,1.3461,1.3396,1.3371,1.3312,1.3261,1.3218,1.3217,1.3192,1.3174,1.3199,1.3198,1.318,1.3075,1.2987,1.2924,1.2894,1.2831,1.2792,1.2745,1.2717,1.2697,1.2633,1.2583,1.2546,1.2487,1.2467,1.2477,1.248,1.2531,1.2534,1.2657,1.2762,1.314,1.3053,1.2699,1.289,1.3344,1.3329,1.3358,1.3613,1.3706,1.3771,1.3756,1.3812,1.3952,1.4129,1.429,1.4328,1.4557,1.4397,1.4223,1.407,1.3936,1.352,1.3467,1.3381,1.3477,1.3753,1.3777,1.3948,1.41,1.4506,1.509,1.574,1.6552,1.6942,1.7386,1.7629,1.7928,1.7931,1.7856,1.7845,1.7814,1.7758,1.7735,1.7666,1.7635,1.7491,1.7459,1.7392,1.7199,1.7101,1.701,1.6845,1.6665,1.6559,1.6445,1.6176,1.6005,1.6119,1.609,1.5747,1.5228,1.4488,1.4265,1.4637,1.4633,1.4488,1.4372,1.4269,1.39,1.3653,1.3147,1.2666,1.2326,1.2025,1.1823]}]]